GFSGL_sfc_temp_000.txt.gz
Temp
55 53 52 54 54 53 53 53 52 52 52 50 50 50 49 49 50 49 49 49 49 50 52 53 53 54 54 56 55 54 53 53 49 53 57 57 54 50 48 49 51 51 50
54 52 52 53 52 51 52 51 51 50 50 49 49 48 48 48 48 47 46 47 47 47 48 49 50 54 52 53 54 52 52 54 51 49 54 54 51 53 50 47 48 49 50
53 52 51 50 51 51 51 51 50 49 48 48 48 46 46 46 46 46 46 45 45 46 47 47 48 49 49 51 52 52 52 53 53 52 51 55 54 52 46 45 44 45 48
53 52 50 50 49 50 50 49 48 47 46 46 46 45 45 45 45 44 44 43 43 42 42 42 43 44 44 47 49 49 51 50 51 51 50 52 53 51 45 42 40 42 40
51 51 51 49 49 49 48 47 47 46 46 46 44 44 44 44 44 43 42 40 38 37 38 39 40 40 40 41 43 45 47 47 48 49 48 50 50 49 41 42 41 38 37
51 50 50 48 48 47 47 45 45 45 45 45 43 43 42 43 39 36 35 34 34 34 34 37 39 39 39 38 38 38 38 39 40 45 47 48 49 51 49 41 38 35 34
50 49 48 47 45 45 45 44 44 43 43 42 42 41 40 40 37 35 34 34 33 34 35 36 38 41 39 40 38 36 36 37 36 40 41 48 49 53 53 42 38 40 37
48 47 47 45 44 44 43 43 43 42 41 41 40 39 38 38 34 34 33 33 32 34 34 36 36 37 38 39 39 38 39 41 41 41 44 46 52 55 55 48 41 38 35
46 45 45 44 43 42 41 40 41 40 39 39 38 37 35 34 33 32 32 32 31 32 35 35 36 36 36 37 36 35 37 38 39 40 41 42 41 40 41 50 36 35 31
45 43 44 43 42 41 41 40 40 40 38 36 34 34 33 32 32 32 31 31 30 32 34 35 34 35 34 34 35 34 33 36 40 36 36 39 41 43 37 43 41 37 33
43 43 43 42 41 40 40 40 39 37 33 31 30 31 32 32 32 33 33 31 32 32 34 36 37 35 34 33 34 35 35 39 38 39 39 38 39 44 44 39 39 43 35
42 42 41 41 40 39 39 38 37 34 32 30 30 31 35 34 34 34 34 33 32 31 32 35 35 33 31 32 32 32 33 35 37 36 37 36 35 37 43 46 40 39 43
41 40 40 40 39 39 37 34 34 35 31 29 30 31 33 36 36 34 34 33 32 30 33 32 30 31 31 31 32 32 32 35 34 34 36 38 39 40 41 39 32 32 32
39 38 38 37 36 37 36 36 34 31 29 29 29 31 31 34 33 34 34 34 33 33 32 33 31 30 32 33 34 32 33 34 34 36 38 40 42 34 33 34 30 28 26
36 35 36 35 34 34 35 34 32 32 30 27 29 29 29 29 31 31 31 31 31 31 29 31 32 31 32 34 34 33 34 34 35 37 36 34 35 31 31 31 31 30 28
33 34 33 32 32 33 33 32 34 32 31 30 30 29 29 29 31 31 31 30 30 30 31 29 29 29 29 30 30 32 33 33 35 35 35 35 34 32 29 30 30 31 26
29 29 32 31 32 31 30 29 28 32 32 31 30 29 28 29 30 31 31 30 32 33 30 29 28 27 28 28 28 29 29 31 31 31 32 32 32 32 31 31 29 30 26
27 28 30 31 31 30 29 28 28 26 26 29 30 28 27 29 30 31 32 34 33 32 32 29 27 27 28 28 27 27 27 29 29 29 29 29 29 29 29 29 29 27 26
31 32 29 30 30 29 29 28 28 28 27 27 28 29 28 28 30 30 31 31 31 31 31 29 29 30 29 27 27 27 26 26 28 29 28 29 29 29 28 28 27 26 25
34 28 27 29 30 29 30 28 27 27 27 26 25 24 26 28 27 27 29 29 29 29 29 30 30 29 28 29 29 29 27 26 26 28 28 28 28 27 25 24 24 25 26
34 32 26 30 29 29 29 27 27 26 26 25 24 24 24 25 25 25 25 26 27 28 29 30 30 31 31 31 31 29 27 27 28 28 28 27 27 26 26 26 26 25 23
31 30 29 28 28 28 27 28 26 26 26 25 24 24 24 24 23 23 24 24 25 26 28 29 28 29 29 29 29 28 28 27 28 28 27 27 27 27 27 26 25 25 24
30 28 28 29 28 26 27 27 25 25 25 24 24 23 23 22 22 22 22 23 23 23 24 25 26 27 28 28 29 28 27 26 27 27 27 27 27 27 27 26 25 25 24
29 27 27 27 26 26 25 25 25 24 24 24 23 22 22 22 21 21 21 22 22 22 22 22 22 23 25 26 27 27 28 29 30 29 28 27 26 26 26 25 25 23 23
27 26 26 25 25 25 25 24 23 24 23 22 22 22 21 21 21 20 20 20 20 20 20 21 22 22 22 21 21 22 23 25 27 29 29 28 27 26 26 26 24 24 22
27 26 26 26 25 25 24 23 23 23 22 22 21 20 20 20 20 19 19 19 19 19 20 20 20 19 20 20 19 18 18 19 23 26 28 28 26 25 25 23 23 22 20

GFSGL_sfc_temp_003.txt.gz
Temp
64 59 57 56 56 55 55 55 55 55 54 53 53 53 52 52 52 51 51 51 51 51 52 52 52 54 53 55 55 54 52 53 49 54 58 60 59 57 55 53 52 50 51
60 57 55 55 55 54 54 54 54 53 53 52 52 52 51 51 51 50 49 50 49 49 50 50 50 54 52 53 53 51 52 53 51 48 54 56 57 60 59 55 52 51 49
58 56 54 53 53 53 53 53 53 52 52 52 51 49 49 49 49 49 48 48 48 48 48 48 48 49 48 50 51 51 51 53 52 50 50 55 55 58 56 55 52 51 49
57 56 54 53 53 53 52 51 51 52 50 50 49 49 48 48 48 48 47 46 46 46 45 44 44 44 44 45 46 47 50 49 49 49 49 50 53 55 56 51 43 45 44
55 54 51 53 53 52 51 51 51 50 49 49 48 48 47 48 48 46 45 43 42 40 40 40 40 40 40 40 41 41 42 44 46 46 46 47 48 49 49 50 46 44 39
54 52 53 53 51 50 50 49 49 48 48 47 46 46 45 47 42 39 39 39 37 35 34 36 38 38 38 37 37 37 38 38 37 38 43 43 46 49 52 50 46 37 37
52 51 51 50 49 48 49 49 47 46 46 45 45 44 43 43 40 38 36 36 34 33 33 35 36 39 38 39 38 37 36 36 35 39 35 38 44 49 51 49 45 40 41
50 51 51 50 48 48 47 46 46 46 44 43 43 42 41 41 37 36 35 33 32 33 33 35 35 35 37 37 37 37 39 40 40 40 40 41 43 48 46 47 47 43 35
50 50 50 48 47 46 45 44 44 43 42 42 41 38 36 35 35 34 33 32 32 33 35 35 36 35 35 36 33 32 34 36 40 39 38 39 41 41 41 42 38 36 31
49 49 49 48 47 45 44 43 43 43 41 39 36 36 34 33 34 34 34 32 31 32 34 35 34 34 33 33 32 32 31 34 37 38 38 37 37 41 39 40 37 38 35
48 48 47 48 46 45 43 43 42 40 37 33 32 33 34 34 34 35 35 33 33 32 33 34 35 34 33 33 34 33 33 36 36 37 36 36 37 41 42 44 40 37 35
47 46 46 46 45 44 42 41 40 38 35 32 31 32 35 34 36 36 34 33 33 31 31 33 34 33 32 32 31 31 32 32 34 33 35 36 38 36 42 45 45 41 37
45 45 44 44 43 42 40 38 37 38 33 31 30 31 32 34 35 35 33 33 32 31 33 32 33 32 32 32 32 31 31 32 32 32 33 37 40 43 43 43 37 33 33
43 42 42 41 39 40 39 39 37 33 31 31 29 29 30 32 32 33 32 33 32 32 33 33 33 31 31 32 33 34 32 33 33 33 35 36 41 41 40 41 33 31 30
41 39 40 39 37 37 37 37 35 34 32 29 29 29 28 27 30 31 31 30 31 31 30 32 33 33 32 34 35 33 33 34 33 34 36 38 35 36 35 33 32 31 27
37 38 36 35 36 36 36 35 35 34 33 32 31 30 30 29 30 31 31 31 32 31 32 30 30 30 29 30 32 33 34 34 35 35 33 36 34 33 32 32 32 31 28
31 32 34 34 35 34 33 31 27 32 33 33 30 30 29 29 31 31 31 33 33 33 30 29 28 28 29 29 29 31 31 33 34 34 34 34 34 33 32 31 32 30 28
30 31 34 34 34 33 31 30 29 28 27 29 31 29 28 29 30 31 31 34 32 33 30 29 28 28 28 28 29 28 30 30 31 31 32 33 33 33 31 31 31 30 29
33 35 31 31 32 31 31 31 30 29 28 28 29 29 28 29 29 31 31 30 29 30 30 29 29 29 29 29 28 28 29 29 30 30 30 30 31 31 31 31 30 30 29
38 31 30 32 32 32 31 30 29 28 28 27 26 24 26 27 27 26 27 27 28 29 29 29 30 30 29 29 29 28 28 28 29 29 29 30 30 30 29 29 28 27 28
38 36 30 33 32 31 30 30 28 27 27 26 25 25 24 25 24 24 24 24 24 26 27 28 28 29 29 29 28 28 27 27 27 28 29 28 28 26 27 28 27 24 25
34 33 32 31 31 30 29 29 28 26 26 26 25 25 24 24 24 23 23 23 23 24 25 26 27 28 28 28 28 28 27 27 27 28 27 27 27 26 25 23 23 23 23
32 31 30 31 30 29 29 29 27 26 25 25 25 23 23 22 22 22 22 23 23 23 24 24 24 25 27 28 28 28 27 26 27 28 27 26 26 25 25 24 24 23 22
32 29 29 30 29 28 28 26 26 26 25 24 24 23 22 22 21 21 21 22 22 22 21 22 22 21 22 23 25 26 28 28 29 28 28 27 26 26 26 24 24 23 22
29 29 29 28 28 27 27 26 25 25 25 23 22 22 22 21 21 20 20 20 20 20 20 20 20 20 19 18 19 20 22 26 28 29 28 27 26 25 24 24 23 21 21
29 29 28 28 27 27 26 25 25 25 23 23 22 21 21 20 20 19 19 20 20 20 20 20 20 19 18 18 17 17 18 20 25 27 29 29 27 26 25 24 23 22 22

GFSGL_sfc_temp_006.txt.gz
Temp
59 58 53 54 53 52 52 51 51 50 50 50 49 48 48 47 47 45 44 45 44 44 45 45 45 46 45 46 46 47 46 46 41 45 49 49 46 46 48 48 49 48 50
58 54 52 52 52 50 50 50 50 49 49 48 48 48 48 47 46 45 44 45 44 43 43 43 43 48 44 45 45 44 45 46 43 41 45 46 46 46 48 46 49 49 46
56 53 51 50 50 49 49 49 49 49 48 48 48 46 46 45 45 44 44 43 43 43 42 42 42 42 41 42 43 43 44 47 44 42 42 46 47 44 43 45 46 46 46
55 53 50 49 50 49 49 48 48 48 47 46 46 45 44 44 45 45 44 42 41 42 41 40 40 39 38 38 39 39 41 39 40 39 41 42 44 45 42 39 39 39 40
53 52 51 49 49 49 48 47 47 46 46 45 44 43 43 44 45 42 41 38 37 37 37 38 37 37 39 38 37 36 36 36 37 36 37 39 40 40 38 39 38 38 37
51 48 48 48 50 48 46 45 45 44 43 43 41 41 40 44 41 40 37 35 35 34 33 34 35 36 36 37 37 37 36 33 32 32 33 33 35 38 39 37 36 32 36
46 46 46 47 47 46 46 45 42 40 40 39 39 39 38 39 40 38 37 33 32 32 31 32 33 36 36 36 36 36 36 36 34 34 32 34 34 35 37 35 34 33 37
45 45 48 48 46 45 44 42 39 39 38 38 37 37 36 37 37 36 35 32 31 31 31 31 31 31 33 34 34 33 33 35 37 37 34 35 36 39 39 39 36 34 35
47 48 48 46 44 43 41 38 38 37 37 36 36 34 33 33 35 35 34 32 30 30 32 32 33 32 34 36 32 30 30 32 38 38 39 39 39 39 39 37 33 33 32
48 47 47 46 44 42 39 37 37 36 36 34 34 33 34 31 34 35 34 32 30 31 33 33 34 33 33 33 31 30 29 30 32 34 35 36 38 37 37 36 35 33 32
47 46 46 45 43 41 39 38 37 35 33 31 28 30 31 32 32 36 36 32 30 29 30 30 32 34 34 33 33 31 30 33 33 33 33 34 35 34 35 36 37 36 33
46 44 43 42 42 42 37 36 35 33 31 26 28 28 30 30 34 34 33 32 31 29 29 30 31 33 33 33 32 32 32 31 32 31 30 31 32 34 35 36 37 38 38
43 41 40 40 39 39 35 33 32 32 30 28 28 27 27 30 31 33 33 32 32 29 30 30 32 32 33 31 32 32 31 29 28 29 30 31 33 34 34 36 34 36 34
39 38 37 36 35 35 35 34 32 29 28 28 26 26 27 28 28 29 29 30 31 31 30 30 30 29 30 30 30 31 31 30 29 29 30 32 33 34 34 34 32 31 29
36 35 35 34 33 33 33 32 30 29 29 27 27 27 26 25 27 30 31 30 30 30 30 30 29 28 28 28 30 31 29 28 29 30 30 31 32 32 33 32 31 30 28
33 33 32 31 31 32 31 31 34 33 33 33 33 29 28 29 30 31 32 32 32 32 29 27 25 25 26 27 27 29 28 27 28 27 27 30 31 32 31 30 31 29 28
28 30 30 30 31 30 29 28 25 29 33 33 32 30 29 29 30 30 31 32 32 32 27 25 25 25 25 26 26 28 28 31 31 29 28 31 30 29 30 30 29 28 27
31 28 29 28 28 28 27 27 27 25 24 26 31 29 28 29 30 29 29 30 28 29 28 26 25 25 25 25 26 26 28 29 29 29 31 32 29 28 28 28 28 27 26
32 30 27 27 27 27 27 27 28 24 26 26 26 26 26 28 28 28 27 24 24 25 26 26 27 26 25 26 25 26 27 27 28 28 29 29 29 29 29 28 25 26 26
35 29 26 27 27 27 26 26 26 24 25 25 24 22 23 25 22 22 22 22 22 22 24 25 26 26 27 25 25 25 25 26 27 27 26 26 27 28 27 26 26 25 25
33 32 27 30 27 26 25 24 25 24 24 24 23 23 23 22 21 21 21 20 21 21 21 22 24 25 25 26 26 25 24 24 25 26 25 25 23 22 24 23 22 22 22
30 30 29 27 27 27 25 25 23 23 24 23 23 23 23 21 20 20 20 20 20 21 21 20 20 21 22 23 25 25 25 25 25 25 25 24 24 23 22 22 22 21 22
30 29 28 27 26 23 25 24 23 24 22 23 22 21 21 20 19 19 19 20 19 18 19 19 17 17 19 20 21 22 25 25 25 26 25 24 23 23 22 21 21 21 21
29 27 26 25 26 25 25 22 22 21 22 21 21 21 19 19 19 18 19 18 19 18 18 17 17 15 15 15 17 19 21 25 26 26 26 25 23 23 22 21 21 21 21
28 27 26 26 25 23 24 22 23 22 22 21 20 20 19 19 18 18 18 18 18 18 17 17 16 15 13 12 13 14 17 19 23 26 25 24 23 22 21 20 20 20 20
28 27 26 26 25 23 21 20 20 21 21 21 20 19 19 18 18 18 18 18 18 18 17 16 15 13 13 12 12 14 14 16 18 20 23 21 18 18 16 15 13 12 14

GFSGL_sfc_temp_012.txt.gz
Temp
49 49 46 45 44 43 43 43 43 44 45 44 43 44 44 43 44 43 41 41 40 39 39 39 39 39 39 39 39 40 39 38 34 38 42 44 43 44 46 46 47 45 45
48 46 44 43 43 42 42 43 44 44 44 45 44 44 44 43 43 41 39 40 37 37 37 38 38 42 38 37 36 37 38 38 36 33 38 40 40 42 42 42 45 48 45
47 44 43 42 42 41 41 43 43 44 45 44 44 42 42 41 40 39 38 38 37 38 37 36 36 36 34 33 33 32 33 38 36 34 33 36 38 38 40 41 41 42 44
45 42 41 41 40 41 41 41 42 42 41 41 41 41 40 40 39 39 38 36 33 34 33 32 33 33 33 33 33 33 34 33 33 32 32 34 36 38 37 35 35 37 38
45 43 40 41 41 42 41 40 41 43 43 40 39 37 36 37 39 35 33 31 30 30 31 32 32 34 37 36 35 33 33 31 31 30 30 31 33 33 33 34 33 32 34
42 43 43 42 43 42 42 41 42 41 40 38 36 35 34 38 37 37 35 31 32 31 30 31 31 34 33 35 35 35 34 31 29 29 29 28 29 31 33 32 33 32 30
43 43 42 42 41 40 41 41 39 37 35 34 33 32 31 31 36 37 36 32 30 30 29 29 30 32 33 32 33 34 34 34 33 31 29 30 30 32 32 29 30 30 30
40 41 42 40 40 39 38 37 34 34 33 32 31 31 30 32 35 36 35 31 29 29 30 30 30 31 32 32 31 30 31 31 32 33 32 32 34 34 33 33 32 31 31
41 39 39 39 39 36 34 33 33 31 30 30 31 29 28 28 33 34 33 28 28 29 31 31 31 31 33 35 32 30 30 30 34 35 36 36 36 36 35 32 29 28 26
39 40 42 40 37 34 32 31 31 29 29 29 29 28 29 27 31 33 32 29 26 27 28 30 32 31 32 32 30 29 28 30 31 31 32 34 35 34 35 33 31 28 27
41 40 38 37 36 33 31 30 28 27 27 21 20 23 26 27 26 32 33 29 27 27 28 29 30 32 33 32 32 29 29 32 31 30 31 31 31 30 31 33 34 32 29
39 37 36 35 34 34 30 28 28 25 21 15 15 19 22 23 28 31 32 32 31 28 28 29 30 32 33 32 32 32 32 31 30 29 29 29 29 30 31 32 33 34 35
35 34 32 32 32 31 28 27 24 23 20 18 19 20 22 25 27 31 31 31 31 29 30 31 32 32 31 29 31 31 30 30 29 28 27 28 30 32 32 31 30 31 32
32 31 31 29 29 28 27 27 22 20 19 24 22 22 23 24 25 26 28 29 31 30 28 28 25 27 24 26 27 28 29 29 29 29 28 29 31 30 30 30 30 32 31
31 30 29 28 26 26 27 24 24 24 21 20 20 25 22 21 25 29 29 29 29 29 28 23 23 23 24 25 26 27 29 28 25 28 27 26 27 28 29 28 31 30 29
30 28 24 23 22 23 21 23 29 29 31 31 31 27 25 28 29 29 29 29 30 29 26 22 18 21 22 23 23 24 25 27 26 21 18 20 22 25 24 26 29 30 29
24 26 23 24 22 21 20 21 16 21 29 29 30 29 29 28 28 28 28 27 27 27 23 22 20 21 22 22 22 23 23 25 29 29 27 29 29 27 30 29 28 27 26
17 20 22 21 20 20 13 15 14 12 10 14 23 26 27 27 26 26 26 25 21 22 21 20 19 20 21 22 22 21 22 24 23 25 27 25 26 23 21 24 26 23 24
26 21 16 18 18 17 14 14 12 10 11 12 14 22 22 25 25 24 23 18 18 18 18 19 18 18 18 19 20 21 22 22 22 23 23 23 22 16 20 20 21 23 21
25 25 22 20 18 19 18 13 13 10 10 12 12 19 20 20 18 18 17 16 15 16 16 16 17 16 16 16 17 19 21 22 21 20 21 21 22 23 23 24 22 21 22
20 27 25 19 16 18 13 11 11 8 7 8 14 17 19 18 17 16 16 16 15 14 14 14 14 14 14 14 15 15 20 20 20 19 19 20 20 20 20 19 18 20 22
18 21 22 18 17 13 12 14 7 7 7 7 15 16 18 16 16 16 16 15 15 15 14 13 12 13 13 14 13 13 15 19 20 18 15 16 17 17 18 18 17 15 18
16 17 18 18 14 11 8 8 7 4 5 7 12 14 15 14 15 16 15 15 14 14 13 12 10 10 12 13 13 15 15 17 20 18 14 13 15 15 14 15 14 16 16
16 16 17 16 11 10 7 7 6 7 12 9 8 11 12 12 13 14 15 15 14 13 11 11 10 8 9 10 12 13 15 15 15 17 15 15 15 14 14 15 16 16 17
16 21 14 14 10 9 6 4 1 4 12 9 8 9 13 11 13 14 15 14 13 11 10 10 9 8 8 8 10 10 11 12 11 12 15 12 10 11 12 14 15 17 17
26 25 18 10 13 8 7 5 1 5 9 8 7 7 9 12 13 12 13 13 12 11 9 8 9 7 7 10 10 10 9 9 10 10 10 11 9 7 7 7 6 6 5

GFSGL_sfc_temp_015.txt.gz
Temp
46 46 45 44 43 41 40 40 40 41 42 43 44 45 43 42 42 41 41 40 39 38 38 38 37 38 38 37 37 38 37 36 32 36 38 40 38 39 42 43 44 43 44
45 45 43 42 41 40 40 41 42 44 45 45 43 43 43 43 42 40 38 39 37 36 36 36 36 40 37 36 35 34 35 36 34 32 36 36 37 38 39 38 42 45 42
45 43 41 40 40 39 39 42 43 43 44 43 42 40 41 40 39 38 37 36 36 35 35 34 34 34 32 32 32 31 32 36 34 32 32 34 35 36 36 38 38 39 42
43 41 40 39 41 39 41 40 41 42 42 41 41 40 39 37 37 37 36 34 32 32 32 32 31 31 30 31 32 32 33 32 32 31 31 31 33 36 35 33 33 35 36
42 41 41 42 42 41 41 41 41 43 43 40 38 36 35 36 37 34 33 32 31 30 31 31 32 33 36 35 33 31 31 30 30 30 30 30 30 30 29 31 31 32 33
40 41 43 42 42 41 40 39 40 40 39 37 36 35 33 36 37 37 35 30 30 30 29 30 31 33 32 34 34 34 34 30 29 29 28 28 29 30 31 30 28 28 27
41 40 43 42 40 39 39 39 37 35 35 34 33 32 31 31 36 36 36 31 29 29 28 28 30 32 33 31 32 33 33 33 32 31 28 28 28 30 30 28 29 28 28
40 39 39 39 39 37 36 35 34 33 32 31 31 31 29 31 34 35 34 30 28 28 29 29 29 29 31 32 32 30 30 31 33 32 30 31 31 32 33 32 30 30 30
40 39 39 39 38 35 32 31 30 30 30 30 30 29 28 28 32 33 32 25 26 26 29 29 29 29 31 33 30 28 28 29 34 35 36 34 35 35 34 32 28 27 25
39 39 38 37 35 32 31 30 31 29 30 29 29 28 28 25 30 32 31 26 25 27 28 30 32 31 32 32 29 28 27 29 30 31 31 33 34 34 34 33 31 27 27
38 37 37 36 34 31 31 30 29 27 26 21 20 22 25 26 24 31 32 29 26 27 27 28 30 32 32 32 32 29 29 31 30 30 30 30 31 31 31 33 33 31 28
36 35 34 32 32 32 29 28 27 25 22 16 14 18 22 22 27 29 32 32 31 27 27 29 29 32 32 31 30 30 32 30 30 29 28 29 29 29 31 32 32 32 33
34 31 31 31 31 30 27 25 24 24 20 17 19 20 21 24 24 29 30 30 31 28 30 30 30 30 29 27 28 29 28 28 28 27 27 28 30 31 32 31 31 32 32
32 31 31 28 28 27 27 27 22 20 19 23 21 20 21 21 23 25 28 27 30 30 28 28 26 27 25 26 26 27 27 28 28 28 28 29 30 29 29 30 29 29 29
30 29 28 27 25 25 27 24 24 24 20 18 18 22 21 21 23 28 28 27 28 27 25 25 23 21 22 23 24 25 25 25 27 23 24 25 26 27 28 28 29 29 28
30 28 24 22 22 22 20 23 28 29 30 30 30 28 25 27 28 28 28 28 28 27 24 21 18 17 19 21 21 21 22 23 24 28 25 21 22 25 25 25 29 29 28
21 24 23 23 23 21 19 19 14 20 27 28 28 29 28 27 27 27 26 26 26 25 20 19 16 15 16 19 20 21 20 22 24 25 27 28 28 28 28 27 28 28 28
16 18 16 16 16 19 16 16 10 11 9 13 21 25 25 26 26 25 24 22 19 20 19 18 16 16 16 17 18 21 22 21 20 21 22 23 24 25 25 26 26 23 23
25 18 14 14 14 15 17 13 11 11 9 11 13 17 20 24 23 23 21 16 15 16 16 16 16 16 15 15 14 15 21 21 18 18 18 19 20 23 25 24 22 24 24
25 22 22 19 14 15 15 10 13 9 11 10 11 12 19 19 16 16 17 15 14 14 14 14 15 15 14 13 13 13 17 20 19 18 17 16 17 20 21 22 21 21 19
23 21 25 21 18 15 10 11 9 8 5 7 8 11 19 16 16 15 15 14 14 13 12 12 12 12 13 13 14 13 13 16 19 17 15 16 14 12 16 14 13 16 15
19 17 20 17 14 10 10 10 7 8 6 7 5 12 17 15 15 15 15 13 13 13 13 12 10 11 12 11 12 12 13 14 17 16 12 11 13 13 12 12 12 13 16
18 16 18 16 15 11 7 8 5 3 5 5 5 10 12 12 13 14 14 14 13 12 12 11 9 9 10 10 12 12 12 12 13 14 10 10 12 12 9 11 11 13 14
16 15 16 16 11 8 2 2 1 3 9 7 3 6 10 11 11 13 14 13 12 11 10 9 9 8 8 9 9 10 10 12 11 12 9 8 9 10 10 11 12 12 11
21 22 22 12 12 9 2 2 1 -2 1 3 3 5 9 10 11 11 12 11 11 10 10 9 8 8 7 7 8 7 7 8 8 8 10 8 6 6 4 6 3 9 12
25 25 22 13 11 10 3 1 -1 -3 0 3 3 5 6 7 9 8 10 11 10 9 9 8 8 6 7 9 8 9 6 6 7 6 6 9 6 4 3 3 1 2 1

GFSGL_sfc_temp_018.txt.gz
Temp
44 44 43 45 44 41 39 39 38 40 40 41 42 43 43 43 41 39 40 41 40 39 39 37 37 37 36 36 37 37 36 35 32 36 37 39 38 38 41 41 42 41 42
43 43 42 41 40 39 38 39 40 42 43 43 44 43 42 40 40 38 37 37 36 36 36 35 35 39 35 35 34 33 33 35 33 31 35 35 35 38 39 38 41 43 41
43 41 41 41 38 37 38 40 41 41 42 42 42 41 41 40 38 37 37 36 35 34 33 32 33 33 31 32 32 32 32 35 34 32 32 35 35 35 37 37 38 39 41
41 40 38 37 39 40 39 40 40 41 41 41 41 39 38 37 37 36 36 34 32 32 32 32 31 31 30 30 31 30 32 30 31 30 30 31 32 35 34 33 32 35 35
40 39 38 39 41 41 41 40 41 41 41 38 37 36 35 35 37 33 33 32 31 30 31 32 32 32 36 35 33 31 30 29 30 30 30 30 31 31 30 32 31 32 34
41 40 40 42 42 39 39 39 38 39 39 37 35 33 32 35 36 36 35 31 31 31 30 30 31 33 32 33 34 34 33 30 29 28 28 28 29 31 32 30 29 28 26
39 41 40 41 40 40 40 38 36 34 33 32 32 32 31 31 35 36 35 31 30 29 28 28 30 32 32 32 33 34 33 33 31 30 28 29 29 32 32 29 29 29 28
40 41 41 40 39 37 35 34 32 31 31 30 30 30 29 31 34 34 34 29 28 28 28 28 28 29 31 31 30 29 30 31 32 32 32 31 32 33 33 32 31 30 31
37 38 37 35 35 34 32 31 31 30 30 29 30 29 28 28 32 32 32 26 25 26 28 29 29 30 32 33 30 27 28 30 34 35 35 34 34 35 34 31 28 28 26
35 35 35 34 33 30 29 29 30 28 29 29 29 28 28 25 29 31 31 26 23 26 29 30 31 31 32 32 30 28 27 29 30 31 31 33 34 33 33 32 31 27 28
37 37 34 33 31 29 28 28 27 26 26 21 19 22 24 26 23 30 32 28 27 26 27 28 29 31 32 32 32 28 27 30 29 30 30 30 31 31 32 33 32 31 29
36 34 32 31 31 30 27 26 26 24 21 15 13 17 21 20 27 29 30 31 30 27 26 28 29 30 31 30 29 29 29 29 28 28 29 29 29 30 31 32 32 32 33
33 31 31 30 30 29 26 25 23 23 19 17 17 20 21 23 23 28 28 30 29 27 29 29 30 30 29 26 28 28 27 27 27 26 27 28 30 31 32 31 31 32 32
30 29 28 27 27 26 27 26 22 20 18 22 21 19 21 21 23 24 26 27 28 28 28 27 25 25 23 24 25 25 25 25 25 26 26 28 29 30 30 30 29 29 29
29 29 28 27 25 25 27 23 24 23 20 20 18 19 20 20 23 28 27 26 26 26 26 24 22 20 19 21 23 23 23 24 23 25 27 25 25 27 28 29 30 29 28
29 28 23 22 21 21 19 22 27 28 29 30 30 27 25 27 28 28 27 27 26 25 23 20 17 16 16 18 18 21 22 22 22 24 25 28 25 24 27 27 28 28 27
20 23 20 21 20 19 19 19 17 19 26 27 27 27 27 27 27 26 25 25 24 23 19 18 16 16 16 17 17 18 19 22 22 21 22 23 26 27 27 26 26 29 28
15 17 15 16 14 16 11 16 13 11 10 12 19 24 25 26 25 24 23 21 17 19 17 16 15 15 15 16 15 15 16 21 20 19 19 20 21 25 24 25 25 23 25
24 18 13 11 10 11 12 13 11 8 7 9 11 17 15 23 23 22 21 16 14 14 15 15 15 15 14 15 14 14 14 18 18 16 17 17 19 23 24 25 23 25 25
27 21 17 16 13 14 12 10 12 10 10 8 10 12 15 17 15 15 15 14 13 13 13 13 14 14 13 14 14 14 14 14 18 17 15 15 16 17 18 19 17 17 19
21 21 17 17 16 13 12 8 9 10 10 7 9 3 14 15 14 14 14 13 12 12 11 12 12 12 12 12 13 12 13 14 15 16 15 14 12 13 16 14 15 16 18
25 21 18 16 14 10 11 8 7 6 7 5 6 7 13 13 13 13 13 12 12 12 12 11 10 10 11 10 10 10 10 11 12 13 14 12 12 12 12 12 13 15 16
25 18 16 16 14 9 5 5 2 -1 5 2 2 6 8 10 11 12 10 11 12 11 11 10 9 9 9 9 9 10 9 8 9 10 11 9 11 10 10 12 12 13 13
20 13 13 12 6 7 2 -0 -1 1 3 3 -2 2 5 8 10 10 11 9 10 10 9 9 9 8 9 9 8 9 8 9 8 8 6 6 8 8 9 11 12 10 11
24 23 21 13 6 5 5 3 -1 -6 -5 -2 -2 0 6 6 10 8 10 10 10 9 9 9 8 8 8 8 7 7 5 5 6 4 8 6 5 5 4 6 5 8 8
25 25 24 15 10 7 7 7 3 -5 -4 -3 -3 -1 5 5 7 6 10 12 11 10 10 9 8 7 7 10 8 7 3 3 5 5 5 7 5 4 3 4 4 5 5

GFSGL_sfc_temp_024.txt.gz
Temp
64 62 60 59 58 58 57 56 55 54 50 48 46 44 42 42 43 45 45 46 46 47 48 47 48 51 51 51 51 50 48 48 43 48 52 54 53 53 54 54 54 54 55
61 60 59 58 57 56 54 54 54 51 48 44 42 43 46 48 47 47 48 48 47 48 48 48 48 50 48 49 49 48 48 49 46 43 48 50 50 52 52 51 52 55 54
59 58 57 56 55 54 52 50 48 48 48 48 49 50 50 49 49 49 49 48 48 47 47 46 46 46 45 46 46 46 47 48 47 45 44 48 49 50 49 50 50 51 53
56 56 55 52 50 49 50 48 50 52 51 51 50 47 47 47 48 48 47 46 46 46 45 45 45 44 44 44 44 43 44 44 44 43 43 44 46 48 48 46 45 49 48
54 54 51 52 47 45 43 46 48 51 51 50 48 49 48 48 48 43 43 44 44 44 44 44 44 43 39 39 40 41 42 42 42 39 36 38 40 40 40 43 40 43 45
53 52 50 49 49 49 49 48 50 50 50 49 48 47 46 47 36 36 37 41 42 42 41 42 43 41 41 37 36 35 36 34 33 33 34 34 36 38 40 39 39 37 35
52 51 50 50 49 49 50 49 48 47 48 46 46 45 44 44 36 35 34 39 40 41 41 41 42 43 39 38 36 35 34 33 32 34 32 34 35 38 38 36 37 36 37
49 50 50 49 48 48 48 47 46 46 45 45 44 44 43 43 36 34 33 38 39 40 40 41 39 37 36 35 34 34 35 36 37 37 37 39 39 39 38 38 38 38 39
48 46 47 48 47 46 46 45 45 45 44 43 43 41 40 40 35 33 33 35 36 36 36 36 37 35 35 34 33 32 35 37 39 38 37 37 36 36 37 38 33 33 32
48 48 49 48 46 45 45 44 44 44 43 41 39 39 37 36 34 32 33 33 30 32 34 36 35 35 33 32 32 31 30 34 35 36 36 37 37 37 35 36 36 32 33
50 49 48 47 46 45 44 44 43 42 39 34 32 34 34 34 33 32 32 30 30 30 32 34 36 31 30 31 31 32 30 32 32 33 34 35 36 37 38 39 39 36 34
49 48 47 46 45 44 43 43 42 41 36 32 31 32 35 33 34 33 32 31 31 29 30 33 33 30 30 30 30 30 29 29 32 32 33 34 35 36 38 39 39 39 40
47 46 45 44 44 44 42 41 39 38 34 31 30 30 31 34 35 32 31 31 31 30 32 30 29 28 29 29 30 29 29 30 30 30 31 34 36 38 37 38 38 38 38
45 44 44 43 41 43 42 41 38 34 31 31 30 29 30 32 33 31 31 31 30 30 29 30 29 27 28 28 30 31 31 32 30 30 31 34 37 37 35 37 36 37 34
43 41 41 40 40 39 39 38 36 35 31 30 30 30 28 27 28 29 28 27 28 27 27 28 28 27 27 29 29 30 31 31 30 31 31 32 34 36 34 36 34 35 33
40 40 40 38 38 37 37 36 33 30 29 29 28 28 29 28 28 27 27 26 25 25 26 25 24 23 25 27 27 28 28 28 29 30 30 31 30 32 33 34 33 33 32
36 36 37 35 36 35 34 32 31 33 30 28 27 27 26 26 26 26 26 25 24 25 23 23 22 22 23 25 26 26 26 27 28 29 29 29 30 30 31 32 33 33 32
33 30 35 35 34 33 32 31 31 29 27 30 30 26 25 25 25 25 24 26 25 24 22 21 21 21 22 23 24 24 25 27 27 28 28 28 28 29 29 30 31 30 32
34 34 33 33 32 31 31 31 30 29 28 30 30 29 28 26 24 24 24 23 22 21 21 21 21 21 22 23 23 24 24 25 26 26 27 27 27 28 29 29 29 29 30
35 32 32 33 32 31 31 30 29 29 29 29 28 27 27 26 23 23 23 22 21 21 20 21 22 22 22 22 23 23 25 25 25 25 25 26 27 28 28 28 29 29 29
34 34 31 32 32 31 30 29 29 28 28 28 28 25 20 23 22 22 22 21 20 21 20 21 21 21 21 21 22 23 24 24 24 24 25 26 27 26 28 29 29 29 29
33 31 31 31 32 30 30 30 29 28 28 28 27 27 20 24 23 22 22 21 20 20 21 21 21 21 21 20 20 21 21 22 23 23 23 25 26 27 27 28 28 28 28
32 31 31 32 31 30 30 30 29 28 27 28 27 27 27 24 23 23 22 21 21 20 20 20 20 19 21 21 21 21 19 19 21 22 22 24 26 26 27 26 26 26 27
32 31 31 31 30 31 30 29 29 27 26 27 27 26 26 25 24 23 22 22 21 21 20 19 19 18 18 19 20 21 20 18 20 21 23 24 25 25 26 26 26 25 25
32 31 31 31 31 30 30 29 29 28 27 27 27 26 26 25 25 24 24 23 22 21 20 19 18 18 18 17 17 17 15 14 17 16 23 24 23 23 23 25 24 26 25
32 32 31 31 30 30 30 29 29 28 27 27 27 26 25 25 24 24 23 23 22 21 19 20 19 17 17 19 16 15 14 14 14 16 22 24 22 21 22 22 22 24 23

GFSGL_sfc_temp_027.txt.gz
Temp
65 64 63 63 63 62 59 59 57 54 52 51 50 48 47 48 49 49 49 48 47 47 48 47 47 49 50 50 50 49 47 46 41 46 50 53 53 53 55 56 56 55 55
63 62 61 61 61 59 57 52 54 53 53 52 50 50 50 51 51 50 49 49 48 48 48 48 48 51 48 49 49 48 48 49 47 44 48 49 50 52 52 52 54 56 56
61 60 60 59 57 54 53 52 53 52 51 50 50 48 50 51 50 50 49 49 49 48 48 48 47 47 46 47 47 46 47 48 47 45 45 49 50 51 50 51 52 52 54
59 58 57 55 53 52 50 44 48 49 49 49 50 51 51 52 51 51 50 47 46 47 47 46 46 45 45 45 45 45 45 44 44 44 44 45 47 49 49 47 47 50 50
57 57 56 52 52 51 50 49 51 51 52 52 52 51 51 50 50 46 45 43 43 43 45 46 46 45 41 41 41 41 41 40 41 41 42 43 43 42 41 45 43 45 46
57 56 55 51 51 50 51 50 50 50 50 51 50 49 48 50 36 36 37 40 40 41 41 43 45 44 43 39 38 37 37 35 34 34 35 36 37 38 39 38 39 37 34
56 55 52 51 50 50 51 50 49 48 50 48 48 48 47 47 37 36 35 38 38 39 41 41 42 45 42 43 38 36 35 34 33 34 32 34 35 38 39 37 37 37 36
56 54 53 50 49 49 49 48 49 48 47 47 46 46 45 45 36 35 34 37 38 38 39 39 40 39 39 37 36 36 36 37 38 38 36 38 39 40 39 39 38 38 38
54 53 51 50 49 49 48 48 48 47 46 45 45 42 40 40 37 34 34 34 34 35 37 37 37 36 36 36 32 32 34 36 40 38 37 37 37 37 37 37 33 31 32
54 52 52 50 49 49 48 47 47 47 45 44 40 39 36 36 36 35 34 33 30 32 34 36 35 35 34 33 32 31 30 33 34 36 36 38 38 38 35 36 35 31 32
55 53 51 50 49 49 47 47 46 45 43 37 33 36 37 36 35 35 34 32 32 31 31 32 34 32 30 31 31 30 30 32 32 33 34 35 37 38 38 38 37 35 32
53 51 49 49 49 48 46 46 45 43 40 33 32 33 35 35 35 35 32 32 32 30 30 33 32 31 31 30 29 30 29 30 31 31 32 33 34 35 38 38 38 38 39
50 48 47 48 48 48 45 44 42 41 38 32 32 32 32 35 36 34 32 31 31 30 31 30 30 30 29 29 30 29 29 30 31 30 31 33 36 38 39 39 40 40 38
47 46 45 45 44 44 45 44 40 38 33 32 32 31 31 32 33 32 31 30 30 30 29 29 30 29 29 30 30 31 31 31 31 30 31 34 36 36 36 39 36 36 35
44 41 42 43 43 40 41 41 39 38 34 31 31 30 28 27 29 29 28 27 27 27 26 29 28 27 26 28 29 30 31 32 30 30 31 32 33 34 34 36 35 35 34
37 38 41 40 39 38 38 38 36 33 31 30 29 28 29 29 28 28 28 27 27 26 26 25 24 24 23 25 26 27 29 29 29 30 30 30 30 31 32 34 35 34 33
34 38 39 36 36 35 35 34 31 34 31 30 29 28 27 27 27 27 27 27 26 26 24 24 22 22 22 24 25 25 26 28 29 29 29 29 29 29 30 31 32 33 32
35 33 36 36 34 33 32 31 31 30 29 31 29 28 28 28 27 27 26 27 26 26 23 22 21 22 23 24 24 25 25 27 27 27 28 28 28 29 29 29 29 30 31
35 35 34 33 32 32 32 32 32 30 30 30 33 30 31 29 27 25 26 24 22 22 22 22 22 22 23 23 24 25 25 25 26 25 27 27 28 29 29 29 29 30 31
38 33 33 33 32 32 32 31 30 31 30 30 30 30 29 27 25 24 25 24 22 22 22 23 23 23 23 23 23 24 25 25 25 24 25 26 28 29 28 29 29 29 30
37 35 33 33 32 32 31 30 30 30 29 29 30 27 24 24 24 24 24 23 23 22 21 22 23 23 23 22 23 22 23 23 24 24 24 26 27 27 29 29 29 29 30
35 33 32 31 32 31 32 31 30 29 29 29 30 30 25 26 26 25 25 23 23 23 23 22 22 22 22 21 21 21 21 21 21 22 23 25 27 27 27 28 28 27 28
33 32 32 32 32 32 31 32 31 30 30 29 29 29 29 27 27 26 25 24 24 23 23 21 21 20 21 21 22 21 20 18 18 21 21 23 25 26 27 27 26 26 26
33 32 32 32 32 32 32 31 31 30 30 29 29 28 29 28 27 26 25 25 23 24 23 21 21 20 19 19 21 20 20 17 18 19 20 23 23 24 25 26 26 26 26
33 32 32 32 32 31 31 31 31 30 30 30 29 28 29 28 27 27 26 26 24 23 22 21 21 20 19 19 18 17 15 15 16 16 20 24 22 22 23 24 23 26 24
33 33 32 32 32 32 31 31 31 30 30 30 30 29 28 27 28 27 26 25 24 23 22 21 21 20 20 21 18 16 14 14 14 14 20 22 20 21 20 22 21 23 23

GFSGL_sfc_temp_033.txt.gz
Temp
51 51 49 49 49 48 48 46 45 45 44 44 45 46 45 45 45 42 41 41 40 39 39 39 39 40 37 37 38 37 37 37 33 37 38 41 39 41 46 45 46 45 45
51 50 49 49 47 45 45 44 43 42 43 44 46 45 45 44 44 43 41 41 39 36 36 36 37 41 35 36 35 35 35 35 33 32 33 35 37 40 40 41 46 51 48
51 50 48 47 45 44 43 44 43 42 42 42 43 43 43 42 42 41 39 38 36 36 36 36 35 35 34 35 36 34 34 38 33 30 30 33 34 36 39 39 40 41 46
50 49 47 44 45 44 43 43 42 43 42 41 43 43 42 41 39 38 38 34 33 34 34 34 34 34 33 34 35 34 35 31 30 29 29 30 31 34 34 32 31 34 35
49 48 46 44 44 44 43 43 43 43 43 42 41 41 40 39 38 33 33 31 30 31 32 34 34 36 39 38 36 33 31 29 27 27 26 27 27 28 29 29 28 29 30
48 47 47 45 44 43 42 42 42 42 42 41 40 38 35 39 36 36 33 29 30 30 29 31 31 35 36 36 37 36 34 30 28 27 27 26 27 28 30 27 26 25 25
48 48 49 46 46 43 44 43 41 39 38 38 37 35 34 33 36 36 35 30 29 28 27 28 30 35 32 32 33 34 34 35 32 31 27 27 27 29 30 27 26 25 27
49 48 47 44 45 45 43 42 40 38 36 37 34 33 32 36 37 37 35 29 27 28 28 28 28 28 30 31 30 29 29 30 31 33 31 30 30 32 32 32 30 31 31
44 43 43 44 43 42 41 39 39 38 35 34 33 32 30 30 35 35 34 27 27 27 29 29 29 29 32 34 29 26 27 28 34 36 37 36 36 34 34 32 29 27 27
45 43 43 42 42 38 39 39 38 36 34 32 31 31 33 29 34 36 31 22 22 26 26 28 30 30 31 30 28 27 24 26 27 27 29 31 33 32 34 32 30 27 27
45 44 42 40 41 41 40 38 38 32 30 28 26 29 30 30 29 34 32 27 25 25 25 25 27 30 30 30 31 27 26 28 28 28 27 28 29 30 31 32 32 30 28
43 42 39 39 41 42 36 35 34 30 28 20 17 20 24 26 32 31 31 30 29 21 23 25 26 28 29 30 29 30 30 29 27 26 26 27 27 29 30 31 32 34 34
39 38 37 39 39 38 35 32 30 28 23 21 21 19 18 25 23 29 29 29 28 23 25 27 27 28 29 27 28 29 28 28 27 26 27 27 28 30 31 31 33 32 32
36 35 36 34 34 33 34 32 25 22 21 25 21 17 14 21 21 21 24 21 25 25 25 25 25 26 25 25 26 26 26 26 25 24 25 27 29 28 25 30 28 30 23
34 35 33 31 32 31 31 28 27 26 25 20 20 18 11 9 19 28 27 25 25 25 24 23 23 22 22 23 23 24 25 25 24 25 25 25 27 27 27 27 24 25 25
32 33 32 29 28 26 24 26 33 31 32 33 32 23 18 26 29 30 30 29 29 27 22 20 18 19 19 20 20 21 23 23 24 24 24 25 24 24 25 26 24 21 20
30 30 27 27 26 25 24 24 23 27 33 34 33 32 30 29 29 31 29 28 27 25 19 18 17 18 19 20 20 20 20 22 24 23 22 22 23 24 25 23 24 23 20
30 31 30 29 29 29 27 28 27 23 20 20 29 29 29 28 30 29 29 25 15 17 18 18 17 18 18 19 19 19 19 20 20 20 20 20 21 23 23 22 22 21 23
32 30 29 28 28 28 28 27 25 25 23 23 22 21 23 28 29 28 27 11 9 11 13 17 18 18 18 18 16 17 17 17 16 16 17 18 19 22 21 23 22 21 21
29 28 29 27 27 27 27 23 24 25 24 20 19 17 16 15 6 5 5 4 4 8 7 13 17 18 16 16 16 15 15 14 13 14 14 15 17 20 20 22 21 21 20
26 28 28 28 27 27 22 25 23 22 23 20 15 16 15 12 7 11 8 5 6 5 3 8 11 13 14 15 16 14 13 11 11 11 12 13 14 16 18 20 21 20 20
25 24 28 27 27 27 26 26 21 16 17 20 21 16 13 7 9 11 7 6 4 5 6 6 9 12 13 14 14 11 12 10 10 10 11 11 12 15 16 16 16 14 14
20 23 27 27 27 24 27 26 25 16 20 20 16 15 13 11 11 11 8 5 6 5 5 5 5 11 11 10 10 11 9 9 9 10 9 10 12 14 14 13 14 12 7
24 22 27 27 20 24 25 21 19 20 19 17 16 17 14 15 11 11 7 4 4 3 1 3 6 11 13 9 9 10 11 8 9 9 8 9 12 13 12 13 13 7 5
22 19 21 27 27 26 27 26 25 21 22 20 23 16 15 11 11 8 6 5 5 2 3 2 3 8 11 11 10 10 9 10 9 9 9 10 9 10 10 11 7 9 4
20 17 20 24 25 25 25 17 15 19 25 24 19 17 19 16 12 8 6 6 5 3 3 2 4 7 11 11 11 11 10 10 9 10 10 10 8 7 7 6 6 4 5

GFSGL_sfc_temp_036.txt.gz
Temp
53 49 47 47 46 45 44 42 42 42 42 41 42 42 43 41 42 41 40 40 39 37 35 35 35 37 35 34 34 34 33 33 31 32 35 36 35 36 40 41 43 42 43
49 48 47 46 45 43 43 42 42 42 42 41 42 42 42 41 40 39 37 36 35 34 34 34 35 38 33 32 31 31 32 34 31 28 30 32 33 35 35 35 42 46 44
49 47 47 45 43 42 42 42 42 42 41 40 41 40 40 40 37 36 35 34 33 33 33 33 33 32 31 31 31 31 32 36 31 29 28 30 31 32 32 35 36 36 42
48 47 45 44 42 41 41 41 41 41 40 40 40 40 39 37 36 35 34 31 31 32 31 31 30 30 30 30 31 30 31 29 29 28 27 28 29 31 30 29 29 31 32
46 45 44 43 42 43 41 41 42 43 43 42 40 38 37 36 36 32 32 30 29 29 30 30 31 33 36 35 33 31 29 28 27 27 27 26 26 25 25 27 27 27 28
45 45 46 44 44 41 42 40 42 42 41 40 37 36 35 38 36 36 33 29 30 29 27 29 29 32 31 33 33 34 33 30 28 27 27 26 26 25 26 25 24 23 21
45 45 44 44 42 41 41 40 39 37 38 38 36 34 32 32 36 37 36 31 28 27 26 27 29 33 31 30 31 32 32 33 31 30 28 27 27 27 26 25 24 24 24
43 42 42 41 40 40 38 38 36 36 36 36 32 32 31 34 36 36 35 29 27 27 27 27 27 27 27 29 29 28 28 28 29 30 29 29 29 30 29 29 28 26 28
41 41 41 40 39 38 38 36 36 35 35 32 32 30 29 29 34 35 29 25 26 25 28 28 28 27 30 32 28 26 27 27 33 34 34 35 35 34 34 32 29 28 26
40 40 41 40 38 37 35 35 35 34 33 31 31 30 32 27 33 34 31 23 17 24 25 27 29 28 29 30 27 25 24 26 26 26 27 28 31 30 32 30 28 25 25
41 40 40 38 37 40 37 35 32 31 29 28 25 27 28 28 27 32 31 22 22 24 24 24 25 28 29 30 30 27 27 29 28 27 28 27 27 28 29 30 30 29 27
39 37 37 36 37 38 35 33 33 29 27 18 14 19 23 24 31 29 30 29 29 21 22 24 25 29 29 29 27 29 29 28 27 27 26 26 27 28 29 31 32 32 33
36 35 35 35 35 35 33 30 29 27 22 20 19 17 17 24 22 29 28 29 28 23 24 26 27 28 27 26 27 27 26 26 25 24 25 26 28 29 30 30 32 31 31
35 33 33 35 32 33 33 32 26 21 20 24 20 16 12 20 20 21 23 19 24 25 23 24 24 25 24 24 24 25 25 24 24 24 24 26 28 28 27 28 26 25 26
34 33 33 33 31 30 30 27 27 26 24 19 19 17 9 8 18 26 28 24 23 25 18 17 20 20 20 21 22 22 23 24 23 23 23 24 25 26 26 25 22 22 22
31 30 31 29 27 27 26 27 31 31 31 33 33 22 17 24 29 30 30 29 28 26 16 12 15 17 17 19 18 19 21 21 22 22 22 22 22 23 24 23 21 18 17
31 31 30 29 28 29 29 28 19 26 32 32 33 33 32 28 29 31 29 27 26 22 11 11 13 15 16 18 17 18 18 19 20 19 19 19 20 21 23 20 21 22 19
31 30 30 29 28 27 26 27 26 19 15 18 27 29 29 29 30 29 28 24 13 14 12 9 13 15 17 17 17 16 17 16 15 16 16 17 17 19 20 21 21 19 18
31 29 28 26 27 26 27 26 20 24 24 22 18 19 18 28 28 27 25 9 8 8 10 10 9 15 15 16 14 14 11 11 11 10 13 14 15 18 18 20 18 18 16
31 27 27 27 26 26 26 19 23 24 25 23 14 14 15 15 6 3 1 -1 -0 5 4 8 9 11 11 12 13 11 11 10 10 10 9 10 11 15 16 17 18 15 16
29 29 27 27 25 25 25 17 20 21 21 17 16 14 13 11 7 4 6 4 4 3 1 5 4 4 8 10 13 11 10 6 9 9 9 10 9 11 14 14 14 13 15
21 21 22 23 26 25 24 25 24 15 17 18 18 13 11 5 8 8 6 8 4 4 5 3 5 6 8 11 11 4 7 4 5 7 8 9 10 12 12 11 11 7 10
18 16 20 24 25 21 24 24 19 21 18 20 19 18 11 12 13 13 11 8 3 2 1 2 -1 3 5 6 8 9 7 7 7 5 6 7 9 11 9 8 9 9 4
23 19 20 21 24 21 23 16 16 15 16 17 15 16 13 14 16 16 9 4 -1 -1 -3 -0 2 5 6 4 6 8 10 7 7 8 6 5 8 9 7 8 9 7 4
25 22 20 19 21 25 22 23 21 19 19 19 21 16 14 11 15 14 8 4 4 -1 0 -1 -1 3 3 4 7 8 8 10 7 8 8 8 5 6 7 7 5 7 3
28 23 22 19 17 20 25 22 17 12 13 16 18 17 14 14 14 9 7 6 7 4 -0 -2 0 2 3 5 8 10 9 8 7 9 8 9 6 6 5 4 4 4 2

GFSGL_sfc_temp_039.txt.gz
Temp
50 49 46 45 45 43 42 42 41 41 40 40 40 40 40 39 39 37 37 36 34 33 32 32 33 35 34 35 32 32 31 30 28 31 32 34 34 34 36 36 39 38 39
47 47 46 45 44 42 41 41 41 40 41 40 40 40 40 39 38 36 35 34 32 31 31 31 32 36 31 30 30 29 29 30 29 28 29 30 31 33 33 32 38 42 37
46 45 44 43 42 41 41 41 41 40 41 40 41 40 39 40 37 34 34 32 31 32 31 30 30 29 28 28 28 28 29 32 29 28 28 29 29 30 30 31 32 32 39
45 44 43 42 41 40 40 39 39 40 39 40 39 40 40 37 36 35 34 31 30 31 31 30 29 28 28 28 29 28 30 29 28 28 28 28 30 30 29 28 27 29 30
43 42 41 41 41 40 39 39 39 39 39 39 40 39 37 36 36 32 32 30 29 29 30 30 30 31 35 33 31 28 27 28 28 26 26 27 26 25 25 27 25 25 27
43 42 42 42 41 39 38 38 37 36 37 39 36 37 36 37 36 36 34 29 30 30 27 29 29 31 30 33 32 32 31 27 26 26 26 25 26 25 25 25 23 22 21
41 41 41 41 40 39 39 37 35 35 35 35 36 36 33 32 36 37 36 31 28 27 26 27 28 31 30 29 29 31 31 32 30 27 26 27 26 27 26 24 23 23 24
40 40 40 39 38 38 37 35 33 33 32 32 32 32 31 33 35 35 32 26 25 26 27 27 26 26 27 28 28 27 28 29 30 30 29 28 29 29 28 29 28 27 27
39 38 38 38 37 36 37 38 37 36 34 31 31 31 30 28 34 34 29 25 25 25 27 27 27 25 28 30 27 25 26 27 32 34 34 34 34 34 33 30 27 26 24
38 38 38 37 36 35 36 36 33 31 31 31 31 30 32 27 32 33 30 21 14 23 25 26 27 28 29 29 27 25 23 27 28 28 28 29 30 30 32 29 25 24 24
38 37 37 36 35 35 34 32 30 30 31 28 26 27 28 28 25 31 31 20 21 23 23 23 25 28 29 30 29 26 26 27 27 28 28 28 28 28 27 28 28 27 25
37 36 35 35 35 35 35 34 32 28 27 20 14 19 22 24 29 29 30 29 29 19 22 24 24 29 29 28 27 28 28 26 25 25 26 27 27 28 29 30 30 30 31
37 35 32 34 32 32 31 29 29 28 23 20 19 16 17 24 22 28 28 29 28 21 24 26 27 27 26 25 26 26 25 24 23 22 23 25 26 28 29 30 31 32 32
34 34 32 32 33 32 31 31 27 22 19 23 19 16 13 20 20 21 23 21 24 23 21 20 19 23 22 23 23 23 23 23 23 22 22 25 27 27 27 28 27 27 25
33 34 31 31 31 30 29 28 28 26 24 19 19 18 9 8 18 25 28 21 16 21 13 11 14 17 18 20 20 21 21 22 20 21 21 21 23 25 25 27 25 23 21
32 32 30 29 29 28 29 29 31 31 31 33 33 23 16 24 28 30 30 28 27 25 13 7 3 5 13 17 16 17 19 18 18 19 19 19 20 20 23 24 23 20 18
31 31 28 30 29 28 28 28 25 27 31 31 32 32 32 28 29 30 29 27 26 21 8 5 1 5 8 16 16 16 15 15 16 16 16 16 18 19 21 22 21 20 20
30 30 29 29 26 27 24 25 26 18 22 17 26 28 30 30 29 29 28 23 12 13 10 6 3 6 8 15 15 14 14 12 11 11 13 13 14 16 18 19 19 16 16
31 29 28 24 22 23 21 25 20 22 22 19 16 19 19 28 28 27 25 9 7 7 9 9 5 6 7 10 10 10 7 8 9 7 9 10 10 13 15 17 17 13 13
31 29 28 27 25 24 22 19 19 22 22 21 13 14 11 13 6 2 -0 -2 -2 5 4 7 8 7 3 4 3 4 8 6 7 8 7 7 8 10 13 14 15 14 14
25 25 27 25 23 23 23 21 18 15 21 16 15 11 12 19 13 8 9 8 7 5 3 5 2 0 1 1 6 4 5 1 6 7 7 8 7 7 12 12 11 12 14
22 21 18 17 21 19 24 21 22 15 15 15 16 18 16 11 15 11 10 11 9 7 6 4 4 4 4 6 4 -1 3 0 2 4 6 8 8 9 9 8 8 7 9
21 19 19 20 20 19 14 21 17 17 17 14 15 15 10 10 12 15 14 11 5 5 4 3 -3 1 1 -2 -1 3 2 5 6 4 4 5 8 9 7 5 7 6 5
28 23 21 20 19 21 20 21 17 14 16 15 15 18 14 12 11 12 14 8 0 2 -5 1 3 5 3 -2 -3 -0 5 3 6 7 7 4 6 8 6 7 7 5 5
26 27 26 23 22 22 21 18 20 19 18 18 18 15 18 18 11 12 12 5 4 1 5 1 1 3 3 1 1 3 0 4 5 8 6 6 4 3 4 5 3 6 3
28 28 28 25 22 22 21 20 20 21 19 18 18 18 19 21 19 16 14 6 4 5 5 1 2 3 2 1 3 3 2 2 1 7 5 8 5 4 3 4 4 5 5

GFSGL_sfc_temp_045.txt.gz
Temp
55 54 54 54 53 53 53 52 52 51 52 50 50 50 50 49 49 47 47 46 44 43 44 43 42 43 42 42 42 41 39 38 34 39 43 44 43 43 45 47 48 48 49
54 53 53 53 52 52 52 52 51 51 51 50 49 48 48 48 47 45 44 45 43 41 42 41 41 42 40 41 40 39 38 39 36 34 38 40 41 42 43 43 45 48 48
54 54 53 52 51 51 50 50 51 49 49 48 47 46 46 45 42 41 43 41 41 41 41 40 39 39 38 39 38 38 38 38 37 33 34 39 39 39 39 41 43 44 46
53 52 50 50 49 49 49 49 48 47 46 46 45 45 43 40 38 39 42 41 40 40 39 39 39 38 38 37 36 35 35 33 33 33 34 35 36 39 38 35 36 41 42
50 50 49 49 49 49 48 47 47 45 45 45 43 41 37 39 41 41 41 40 39 39 39 38 38 36 34 34 35 34 34 32 31 31 31 32 32 33 33 36 34 36 39
48 48 49 48 48 47 46 45 44 44 43 43 41 39 41 43 37 37 38 39 38 37 36 36 37 34 35 32 31 31 32 29 28 29 30 30 31 33 34 33 32 31 30
47 48 47 46 45 45 45 45 44 43 42 41 41 41 40 40 36 36 33 38 36 35 35 34 34 34 33 33 32 31 32 32 30 30 28 30 31 34 34 33 33 31 32
45 45 45 45 43 44 43 43 43 42 42 42 41 39 39 39 35 34 32 36 35 34 34 34 33 32 32 30 32 31 32 34 34 34 32 33 34 35 35 34 34 33 34
42 42 42 43 43 42 42 41 42 40 39 39 38 38 38 37 34 33 33 34 33 32 33 33 32 31 30 30 29 28 30 32 34 33 33 33 33 34 33 32 30 29 29
40 41 42 43 41 40 40 40 41 41 39 39 37 37 34 35 32 33 33 32 29 31 32 33 30 30 29 29 28 27 25 29 30 31 32 34 35 34 32 33 33 28 30
41 41 41 41 40 41 40 40 40 38 37 33 32 35 35 34 33 31 32 31 30 29 30 30 31 28 29 29 29 28 26 28 28 29 30 32 33 34 33 33 33 31 29
40 39 39 39 38 38 39 39 38 35 33 30 30 32 34 33 31 31 31 31 31 29 28 29 29 28 27 27 27 27 26 26 27 27 27 28 29 30 32 33 33 33 34
38 36 38 39 39 39 37 37 36 36 33 32 31 32 32 34 34 30 30 29 30 28 29 28 26 25 25 26 25 25 25 25 24 24 24 26 28 30 31 33 35 34 34
35 37 38 37 37 37 36 36 35 34 33 32 31 31 31 32 33 33 32 32 29 28 27 27 23 23 23 24 26 26 25 24 22 22 23 26 28 29 29 31 31 32 31
35 34 34 34 34 35 36 36 35 36 34 32 32 32 30 30 32 31 30 30 30 28 24 25 25 23 23 24 25 24 24 23 21 22 23 24 25 26 28 30 30 31 30
33 33 33 32 34 34 34 35 34 33 32 33 33 32 32 30 29 30 31 31 29 26 26 23 21 20 20 21 22 22 22 20 20 21 21 23 23 24 25 28 29 29 28
33 33 33 31 33 33 33 32 31 34 33 32 32 33 33 33 30 31 31 30 28 25 25 24 21 20 20 21 22 22 20 20 19 20 20 20 21 23 24 25 27 27 27
33 32 33 33 34 33 32 31 31 30 29 30 33 31 32 32 32 31 31 29 27 25 25 24 22 22 21 22 22 21 20 20 19 18 18 19 19 21 22 23 24 23 25
33 33 32 33 32 30 31 31 31 30 30 30 32 29 28 28 29 30 30 29 27 27 26 25 24 23 23 22 21 19 18 18 16 16 17 17 18 19 20 22 23 21 21
33 32 32 32 32 32 32 31 31 30 30 30 30 31 31 26 28 29 28 27 26 27 27 25 25 24 23 22 21 19 19 19 18 18 16 17 17 18 19 19 21 21 23
33 34 32 32 31 31 31 30 30 30 29 29 30 30 27 28 29 30 29 27 26 27 27 26 25 24 23 22 21 21 19 19 18 17 17 17 16 17 19 20 20 20 21
33 32 32 31 32 30 30 30 30 30 30 29 30 31 23 26 28 28 28 28 28 27 28 27 26 25 24 23 22 21 19 18 18 17 17 16 17 18 17 18 19 19 20
31 30 30 30 30 30 30 30 30 29 29 29 29 29 30 29 29 29 28 29 28 26 26 25 24 24 23 21 21 21 19 20 18 17 15 16 17 17 17 18 18 18 17
32 31 31 31 30 30 30 30 30 29 29 29 29 29 28 29 29 29 28 28 27 27 25 22 23 23 23 21 21 20 20 19 18 17 14 15 17 17 17 17 17 16 16
32 31 31 31 31 30 30 30 29 30 30 29 29 29 29 29 29 29 30 29 26 26 24 20 21 21 20 19 20 19 18 14 14 12 16 16 16 15 16 17 15 17 15
32 32 31 32 31 31 31 30 30 30 29 30 29 29 29 29 29 30 29 28 27 25 25 23 21 20 20 20 19 17 12 11 13 9 14 17 17 18 17 16 13 16 14

GFSGL_sfc_temp_048.txt.gz
Temp
57 58 62 63 62 61 60 59 59 59 59 58 58 57 57 56 55 53 52 52 48 50 50 49 48 49 48 49 48 48 46 45 40 44 48 49 48 48 49 48 49 50 51
59 63 62 61 60 60 59 59 58 57 57 56 56 55 55 54 53 50 48 47 46 47 48 48 47 49 46 47 47 45 45 45 42 39 44 44 44 46 46 45 46 49 49
64 62 60 60 59 58 58 57 57 55 55 55 54 53 52 51 49 47 45 43 45 47 47 46 46 45 44 45 45 43 43 44 42 38 38 41 42 44 43 43 43 44 48
61 60 59 58 57 57 56 55 54 54 53 53 52 50 45 44 43 41 44 45 46 46 46 45 45 44 43 42 41 41 42 41 39 35 35 36 39 41 41 39 40 43 43
58 58 57 56 56 56 54 53 53 52 52 51 49 47 46 46 47 45 46 46 46 45 45 45 44 41 37 36 37 38 38 36 35 33 33 34 35 37 37 40 39 40 42
56 55 56 55 54 53 52 51 52 52 51 50 49 48 47 48 36 37 37 46 45 44 42 43 43 40 39 34 34 33 33 32 31 30 31 31 34 35 37 36 36 35 33
53 53 53 53 52 52 52 51 50 50 48 46 45 46 45 46 37 35 35 43 43 42 41 41 41 41 38 39 35 33 33 32 30 32 30 32 33 35 36 35 35 35 35
51 51 51 51 50 51 50 50 50 47 46 42 41 43 45 45 35 34 33 42 42 41 41 40 39 38 38 33 32 32 34 35 35 36 35 34 35 37 36 35 34 35 37
49 49 49 49 49 49 49 48 48 44 45 45 41 42 43 43 35 34 34 40 39 38 39 40 38 36 33 30 30 29 31 33 36 34 34 33 33 34 35 33 32 31 30
48 48 48 49 48 47 47 47 47 45 44 45 44 44 39 41 34 33 34 37 32 35 38 39 35 33 29 30 29 28 26 30 32 32 33 35 36 37 34 35 35 31 32
48 48 48 48 46 45 42 44 46 45 40 37 35 39 41 40 38 33 33 34 33 33 34 36 37 30 29 29 28 28 27 29 29 30 31 32 33 36 37 37 36 33 32
47 46 46 46 46 46 43 45 44 42 37 33 33 35 39 39 35 35 32 32 33 32 32 35 34 29 28 27 28 27 27 28 29 28 28 28 30 31 33 35 35 36 36
45 44 45 46 46 46 42 42 38 39 37 35 34 35 35 37 39 33 32 31 31 32 33 31 28 28 28 29 28 26 27 30 28 27 26 27 29 31 32 34 36 36 35
44 42 38 37 41 43 42 41 38 37 36 34 33 32 33 34 37 37 35 35 31 31 33 33 30 26 28 29 31 31 30 28 26 26 26 28 31 31 31 33 32 34 32
43 41 38 37 36 37 39 40 40 41 39 36 35 33 31 31 34 33 33 34 33 32 28 31 31 31 30 31 31 30 30 29 27 27 26 27 28 29 30 32 32 33 32
41 41 38 36 36 36 36 36 36 34 33 33 33 33 35 34 33 31 31 32 31 29 30 30 29 28 27 28 28 28 29 27 26 26 26 26 26 26 27 30 31 30 30
39 39 38 35 35 35 35 34 33 37 34 33 33 33 33 33 33 32 32 32 31 28 28 30 29 28 28 29 29 28 27 27 25 26 25 26 26 26 26 27 28 28 28
39 34 36 36 36 35 34 33 34 32 31 34 35 33 34 33 33 33 32 31 30 28 29 29 29 29 29 29 29 28 27 26 26 25 24 24 24 25 26 26 26 25 26
40 39 36 35 35 35 34 33 33 32 32 33 35 34 33 31 32 32 32 31 30 30 31 31 31 30 30 30 28 26 25 25 23 23 24 23 23 24 25 26 27 26 26
40 35 34 35 35 35 35 33 32 33 33 32 32 33 35 30 30 31 31 31 30 30 31 31 32 32 30 29 28 26 26 26 25 25 24 24 24 23 23 24 25 25 27
41 39 36 37 35 35 33 33 33 32 32 32 32 33 33 33 32 32 32 32 31 31 31 31 31 30 30 29 28 27 26 25 25 24 24 24 23 22 24 24 25 25 26
35 35 34 33 34 33 33 34 33 32 33 32 33 34 33 32 32 33 33 33 32 33 33 32 31 31 31 30 29 27 25 24 24 24 24 23 24 24 24 24 23 24 24
33 32 32 32 32 32 32 33 32 32 32 32 33 33 33 32 32 33 33 32 33 32 32 32 31 31 31 30 29 28 26 26 26 24 22 23 23 24 23 23 23 22 21
35 33 33 33 33 33 33 32 32 32 32 32 32 32 32 32 32 32 32 32 32 32 32 31 31 30 30 29 28 28 27 26 25 24 20 21 23 23 23 23 23 21 21
34 32 32 33 32 32 32 32 32 32 32 32 32 32 33 32 32 32 32 32 32 32 31 31 30 30 28 28 28 27 26 21 21 19 22 21 21 20 21 22 21 22 20
32 32 31 31 32 32 31 31 32 32 32 32 32 32 32 32 32 32 32 32 32 32 31 31 30 28 28 27 26 25 22 18 17 14 20 23 22 23 23 21 17 21 19

GFSGL_sfc_temp_051.txt.gz
Temp
62 61 59 64 65 64 63 62 61 61 60 59 58 58 57 57 57 56 53 52 51 50 51 49 49 50 48 48 49 48 47 47 41 44 48 50 48 48 49 50 50 49 50
59 59 64 64 64 63 62 61 61 59 59 58 57 57 56 56 56 53 51 52 49 46 47 47 46 48 46 47 48 46 46 47 43 40 44 45 44 46 46 45 47 49 48
64 64 64 63 62 61 61 60 59 58 57 56 56 55 55 53 50 49 48 48 46 46 46 46 45 45 45 46 46 45 45 45 44 42 41 43 42 44 42 44 44 44 47
64 63 62 61 60 60 59 58 57 57 55 55 55 54 49 47 49 48 46 45 45 46 46 46 46 46 44 42 41 40 41 40 40 40 39 38 39 40 41 39 39 42 42
61 61 60 60 59 58 57 57 56 55 55 56 54 51 49 48 48 47 47 46 46 46 47 47 47 43 39 38 38 38 37 36 35 34 33 34 35 36 35 38 36 38 40
60 58 59 58 56 56 56 55 55 55 55 54 50 48 47 48 37 38 38 45 46 45 44 45 45 43 42 38 37 35 34 33 31 32 32 31 32 35 38 34 34 33 31
57 57 56 55 54 54 55 55 54 53 53 50 47 47 45 46 38 37 36 43 44 44 44 43 43 44 40 40 37 35 35 35 33 33 30 32 31 33 34 33 33 34 33
55 55 55 54 53 54 53 53 53 53 51 48 46 46 42 42 37 36 35 41 44 44 43 42 41 41 38 33 34 33 33 34 36 37 35 34 35 36 35 34 34 34 35
54 53 53 53 52 52 51 51 51 51 49 46 46 45 44 40 36 35 35 40 41 40 40 42 41 39 33 31 30 29 30 33 36 35 35 35 34 34 35 33 31 30 30
53 52 53 52 51 50 50 48 48 49 49 46 44 44 38 42 36 35 35 38 35 35 39 40 35 33 30 30 28 28 26 30 31 31 33 34 36 36 35 35 33 29 30
53 52 52 52 51 50 49 48 47 47 45 40 36 40 41 40 39 35 34 35 34 34 35 37 38 31 30 29 29 29 28 29 29 30 31 33 34 35 35 36 36 34 31
51 50 50 50 50 50 48 48 47 44 40 35 34 35 39 40 37 35 34 33 34 33 33 35 36 31 30 29 29 30 28 28 30 30 30 29 30 31 33 35 35 36 37
49 48 48 47 46 47 47 46 43 40 37 35 35 35 36 38 40 35 35 33 32 31 34 34 31 31 31 31 32 30 28 31 29 27 28 28 30 32 33 34 36 37 38
47 47 47 44 42 42 44 44 42 39 38 37 36 35 35 37 37 39 34 34 32 32 33 34 33 31 30 29 31 33 33 31 29 28 28 29 31 31 31 33 32 33 33
47 47 45 44 40 38 38 39 40 42 40 38 38 37 34 33 36 35 34 35 35 33 30 32 33 33 32 33 33 33 33 32 30 29 28 28 29 29 29 32 31 32 31
44 44 44 42 38 37 36 37 38 36 35 35 34 34 35 35 35 34 33 32 32 32 31 30 30 31 30 30 30 31 31 31 30 28 28 28 27 27 28 29 31 29 28
43 42 42 39 38 37 36 35 34 37 35 35 34 34 34 34 34 35 34 33 32 31 27 30 30 30 30 30 31 31 30 30 28 29 27 27 26 26 27 28 28 28 28
44 37 40 39 37 37 36 35 35 33 32 34 35 34 34 34 33 34 33 33 31 30 31 31 30 30 31 31 32 31 30 29 28 28 27 26 25 25 25 27 28 27 27
44 44 41 38 37 37 36 35 34 33 33 34 35 35 35 34 33 33 33 32 31 31 32 32 32 32 32 32 31 30 28 27 27 26 26 26 26 25 24 26 26 26 27
45 38 37 39 38 37 37 36 35 35 34 34 34 34 35 35 31 31 32 31 31 32 33 33 33 33 32 32 31 29 28 27 28 28 26 26 26 25 24 24 25 25 26
44 44 37 38 38 37 36 35 35 34 34 34 34 34 34 33 33 33 33 33 33 33 33 34 33 33 32 31 31 29 28 28 28 27 26 26 25 24 26 26 25 26 26
42 39 36 34 33 33 34 35 35 34 34 33 34 35 34 33 33 33 33 33 33 34 35 34 34 34 33 32 31 30 28 27 27 27 26 25 25 26 26 26 25 24 24
39 36 35 34 34 34 33 34 34 33 34 33 34 33 33 33 33 33 33 33 34 34 35 34 33 33 33 32 32 31 29 28 28 28 25 24 25 26 24 25 25 24 22
34 34 34 34 34 34 33 33 33 33 33 33 32 32 32 33 32 33 32 33 33 32 33 33 33 32 32 31 31 30 30 30 29 27 23 23 24 25 24 24 25 23 22
34 32 32 32 32 32 32 32 32 32 32 32 32 33 34 33 33 33 33 33 33 32 32 32 33 32 31 30 30 29 30 28 26 26 25 23 23 22 22 23 23 23 22
33 32 31 29 29 29 29 29 29 30 30 31 31 32 32 33 33 33 33 33 33 32 32 32 32 31 31 31 31 30 28 24 21 20 23 24 23 24 24 23 22 22 22

GFSGL_sfc_temp_054.txt.gz
Temp
59 58 57 57 59 59 57 56 55 54 54 53 52 51 51 50 50 48 47 47 45 44 42 42 42 43 41 40 39 39 38 38 34 37 40 41 38 38 40 40 42 42 42
59 57 56 58 59 57 56 56 55 53 53 52 52 51 51 50 48 46 44 44 43 41 41 42 41 46 40 39 38 37 36 37 34 32 36 37 36 37 36 36 41 44 42
58 56 58 58 57 55 55 55 54 52 52 51 51 49 49 46 44 44 43 43 41 42 43 41 41 39 37 37 34 34 34 38 34 32 32 35 35 34 34 35 37 37 43
59 60 57 56 55 54 53 53 52 52 50 50 50 50 47 45 45 45 46 43 40 41 41 41 41 40 35 33 34 31 34 30 31 30 30 31 32 33 33 32 32 34 34
59 58 55 55 55 54 52 52 52 51 51 50 49 47 46 45 47 42 43 40 41 40 42 43 41 39 41 35 34 30 29 28 28 28 27 28 29 29 29 32 30 30 32
58 55 55 54 53 51 51 50 50 50 50 49 47 45 43 47 39 39 38 38 40 39 37 38 38 40 37 37 36 35 32 26 26 26 26 26 27 29 30 29 28 27 25
55 55 55 53 52 50 51 51 49 47 47 46 44 43 42 42 39 37 37 37 36 36 35 35 37 42 35 32 34 34 32 34 32 29 26 26 27 28 29 27 26 26 26
54 53 53 52 50 50 50 49 48 47 45 44 41 42 40 41 36 35 36 35 34 35 35 35 34 33 28 30 28 27 28 30 31 33 29 28 29 30 30 30 28 27 29
52 52 52 50 49 49 48 46 45 44 44 42 42 40 39 35 35 36 35 32 33 32 34 34 35 32 31 32 27 24 26 28 34 35 34 34 34 35 34 30 26 26 24
52 51 50 50 49 48 46 45 44 42 43 41 39 38 38 36 36 36 34 29 28 30 32 33 32 29 30 30 22 20 21 25 26 26 28 30 32 32 34 32 29 26 26
52 50 50 50 48 47 46 45 43 42 40 35 33 34 35 35 34 36 36 30 28 29 30 29 29 31 31 31 30 23 23 26 26 25 26 27 29 29 30 29 28 25 25
50 49 48 48 47 47 43 43 44 40 35 31 31 32 32 34 36 35 35 34 33 27 29 29 30 32 32 31 29 30 31 27 24 21 23 25 25 26 28 30 31 31 32
48 47 47 48 46 44 41 39 38 37 32 31 33 31 31 33 32 37 35 34 33 28 29 31 32 32 32 30 32 32 27 23 23 17 21 23 25 28 29 29 31 31 31
46 45 45 43 42 41 40 38 35 35 31 32 32 31 30 30 30 31 30 32 33 31 29 30 28 27 26 26 25 27 25 24 21 19 18 23 25 25 26 28 27 28 28
45 44 42 41 39 36 38 37 35 35 34 32 32 30 27 26 29 31 31 29 29 30 26 25 24 26 26 25 25 25 24 24 21 19 18 20 23 25 25 27 27 27 25
42 41 37 35 35 36 36 35 37 36 35 36 35 32 30 34 35 35 34 34 33 32 24 22 21 22 26 23 21 22 22 22 22 21 19 19 19 22 23 25 27 26 24
39 37 36 35 34 34 35 34 32 35 36 35 35 35 35 34 34 35 35 34 33 32 25 22 22 26 24 26 23 22 20 21 22 21 19 17 18 21 21 23 25 25 23
39 36 37 37 35 35 34 34 34 32 31 32 34 34 34 34 34 34 34 33 29 29 27 25 25 26 28 25 24 23 21 19 19 20 15 17 14 15 19 21 22 21 21
40 39 37 37 35 35 34 33 33 32 31 31 32 31 32 34 34 34 33 28 26 27 28 27 28 28 28 25 23 23 19 16 16 12 14 16 18 16 14 20 20 20 20
42 38 35 36 34 34 34 33 33 33 32 31 31 31 33 31 30 29 29 29 28 28 28 28 29 29 28 27 25 24 21 18 17 18 15 12 19 13 13 14 17 18 21
41 40 37 34 33 32 32 33 32 32 32 32 32 33 33 31 30 31 30 30 29 29 29 30 30 30 28 27 24 22 24 18 18 17 15 15 12 11 15 14 15 18 21
37 37 37 33 32 31 31 31 31 30 30 30 31 32 33 32 31 31 31 31 32 32 32 31 30 30 29 28 26 25 25 18 18 16 15 14 13 13 15 13 14 12 16
34 33 33 32 32 32 31 31 31 31 31 31 32 31 31 32 32 31 31 32 32 32 32 32 31 30 29 29 29 26 25 21 20 17 14 12 12 13 11 11 13 11 10
33 32 32 32 32 31 31 30 31 31 30 30 31 31 31 31 31 32 32 32 32 32 32 32 31 31 30 30 29 28 24 22 21 17 14 12 11 13 12 12 12 10 9
32 31 31 31 30 29 29 28 27 27 26 26 26 28 29 30 29 31 32 32 32 32 32 32 32 31 30 30 29 27 25 25 19 17 16 12 11 9 10 10 9 11 9
30 30 29 28 27 26 25 24 24 24 23 23 24 24 24 25 25 24 24 29 30 30 32 32 32 31 30 30 29 27 26 23 21 18 15 16 13 12 11 11 11 10 12

GFSGL_sfc_temp_057.txt.gz
Temp
53 53 55 56 57 57 55 51 50 49 49 48 48 47 47 45 43 42 41 41 40 39 38 38 38 39 38 38 39 38 34 31 27 30 33 34 33 34 36 36 38 37 37
55 55 55 56 56 55 53 50 48 48 48 48 48 47 47 44 43 41 40 40 38 37 37 38 40 43 38 36 33 31 30 30 28 27 28 30 30 32 32 32 38 42 38
55 55 55 54 54 51 48 48 48 48 47 47 48 47 46 43 42 41 41 40 39 38 38 37 37 36 32 31 31 29 29 34 28 26 27 28 30 30 30 31 32 32 39
56 55 53 52 51 49 49 49 48 48 48 47 47 46 44 42 42 42 42 39 38 38 38 38 38 36 33 31 32 29 30 27 26 25 27 27 28 30 28 28 29 30 30
55 54 50 49 48 48 47 47 48 48 48 47 46 44 43 43 44 40 40 40 37 36 37 39 38 38 41 34 32 27 27 25 25 25 25 25 26 26 26 28 27 27 28
51 50 50 49 48 47 47 47 47 47 46 45 43 42 41 44 40 39 37 35 37 36 34 34 35 38 37 36 35 35 31 25 23 22 24 24 24 26 28 26 24 23 21
51 50 48 49 47 47 49 48 46 45 43 41 41 41 39 39 39 37 36 33 35 35 32 31 34 37 33 30 32 32 30 32 29 25 23 25 25 26 26 25 25 24 24
49 50 50 49 48 48 46 45 44 42 41 39 39 39 37 39 38 36 36 32 31 32 31 31 30 29 29 29 28 26 26 27 28 30 27 26 26 28 27 28 27 26 27
48 47 49 48 46 46 44 42 41 40 39 38 38 36 35 33 36 35 34 29 30 30 32 31 31 28 32 32 27 23 25 25 31 32 32 32 33 33 33 29 25 25 24
48 48 48 46 45 44 42 41 41 40 40 38 37 35 36 33 35 36 34 27 25 28 29 30 32 29 31 30 22 18 18 23 25 25 26 27 29 29 32 30 27 23 23
49 47 47 46 45 44 39 39 39 37 36 32 31 31 32 32 32 36 36 29 27 28 28 27 27 31 31 32 31 23 20 25 26 24 24 24 25 25 25 26 27 27 26
47 46 45 45 45 44 39 38 37 33 31 29 30 30 28 31 34 35 36 35 32 26 28 27 28 32 33 33 30 30 31 27 18 19 20 21 21 23 25 26 27 28 29
44 43 43 44 43 41 37 33 30 29 27 28 27 26 27 29 29 35 35 35 34 28 28 28 32 33 33 30 31 32 28 22 19 15 18 19 20 24 26 27 28 28 29
42 41 40 38 38 37 35 34 30 25 26 30 30 30 29 29 28 28 28 30 33 31 28 28 26 26 24 25 25 27 23 20 19 20 16 18 20 22 22 25 24 25 25
41 39 37 36 34 32 33 31 30 31 32 32 29 30 28 27 30 31 28 30 31 29 27 25 23 22 23 25 24 24 23 22 19 16 16 16 19 20 21 23 24 25 23
38 36 32 31 30 30 29 31 35 35 33 35 35 34 32 32 34 35 34 34 33 32 25 16 14 12 16 22 24 22 21 20 19 18 14 17 16 16 19 22 23 23 21
34 33 32 32 31 31 30 30 30 33 35 35 35 35 36 35 34 35 35 34 34 33 25 20 15 16 19 22 26 22 20 20 20 18 15 13 14 17 15 18 21 21 20
34 33 32 32 32 32 31 31 30 29 28 29 32 34 35 35 35 35 34 33 28 29 28 25 21 21 22 24 26 22 20 18 15 15 11 8 7 12 11 15 18 17 19
35 35 34 34 35 35 34 31 30 30 27 29 30 28 29 34 34 34 34 30 27 26 26 25 25 24 24 25 24 22 16 12 9 7 8 8 7 10 10 13 14 16 17
35 34 35 36 35 34 32 31 30 30 30 30 29 30 29 27 28 28 30 29 28 27 27 26 25 26 26 27 26 22 18 13 11 9 10 9 3 7 7 7 9 12 18
32 32 32 34 33 33 30 28 30 28 23 24 26 24 26 29 30 30 29 28 28 28 28 28 28 28 27 26 25 24 22 18 17 14 11 8 2 7 8 10 8 15 15
30 30 29 29 31 32 30 30 28 25 23 23 27 27 26 29 31 30 30 30 31 30 30 30 29 29 29 28 27 24 22 18 15 14 10 7 9 8 7 8 8 6 10
24 25 27 28 29 31 31 29 26 23 27 27 28 27 29 29 29 29 31 31 31 31 31 31 31 30 30 30 29 28 25 22 22 19 14 9 8 7 4 6 7 6 6
25 26 27 28 27 28 27 26 25 25 24 23 22 23 24 25 26 24 23 25 31 32 32 32 31 31 30 30 29 28 28 24 23 21 16 13 10 8 4 6 6 4 3
22 21 21 22 23 23 23 22 21 21 20 20 20 20 21 21 20 19 19 19 21 20 29 31 32 32 31 30 29 27 27 26 22 18 15 12 10 5 5 6 3 6 3
18 16 16 17 17 18 18 18 18 18 17 17 17 17 17 17 17 16 15 16 16 19 19 25 30 32 30 30 29 27 26 25 21 19 19 17 14 8 7 7 5 5 7

GFSGL_sfc_temp_060.txt.gz
Temp
51 51 54 54 54 54 53 50 51 49 47 46 46 46 45 44 43 41 40 39 38 37 37 37 38 38 37 40 38 37 33 33 27 28 30 30 29 29 33 34 35 34 35
55 55 54 55 54 53 52 50 49 47 46 46 46 46 46 44 42 41 40 40 39 37 37 36 37 42 35 33 31 30 29 29 27 25 26 26 27 28 29 28 34 38 34
55 55 53 53 52 50 49 48 47 46 45 45 46 46 45 43 41 40 40 40 38 37 37 36 36 35 32 30 30 29 28 33 27 25 25 26 26 27 28 30 30 30 35
55 54 51 50 49 48 47 45 46 46 45 47 46 45 44 41 41 41 41 38 37 37 37 36 36 35 32 31 31 28 29 26 26 24 25 26 25 28 27 26 26 28 29
50 48 46 47 48 46 45 44 45 47 46 45 44 43 42 41 42 39 39 37 35 35 35 37 37 36 39 34 31 27 27 25 24 24 24 24 25 24 24 26 26 26 27
48 48 48 46 45 46 44 47 46 46 45 43 42 40 39 42 42 40 38 34 34 34 34 34 35 37 37 37 36 34 30 25 23 21 21 21 23 25 25 23 23 22 21
48 48 46 45 45 45 48 46 45 43 42 41 40 39 38 38 39 39 37 32 31 31 31 31 33 35 33 31 33 32 31 31 28 23 20 21 22 24 25 23 24 24 24
47 45 45 46 47 46 45 44 42 41 40 39 38 37 36 37 39 38 36 30 30 31 30 31 30 29 29 29 28 27 27 27 27 28 25 24 25 26 26 28 27 26 27
43 46 48 46 44 44 42 41 40 39 38 38 38 36 35 33 36 36 34 30 30 30 32 31 30 28 31 33 28 25 26 26 31 32 32 32 32 32 31 27 24 23 21
45 46 46 45 44 42 40 39 38 36 37 36 35 34 35 33 35 36 35 27 29 29 30 30 33 29 31 31 24 21 20 23 24 25 26 27 28 27 30 26 25 22 23
46 45 45 45 43 42 39 37 35 33 31 30 30 30 31 32 31 36 36 29 30 29 29 28 28 32 32 32 32 24 21 25 25 25 24 23 23 23 24 25 25 23 22
45 44 43 42 42 42 37 36 35 31 29 25 24 27 30 30 33 34 36 36 33 28 28 29 28 32 33 32 31 30 31 27 21 19 19 21 20 21 22 24 26 26 26
42 41 41 41 40 39 35 33 30 29 26 26 26 27 27 29 28 33 35 35 34 30 30 29 31 32 33 31 32 32 28 23 20 13 18 18 19 21 24 25 26 27 27
40 40 39 36 36 35 34 32 29 27 26 28 28 28 27 27 28 29 30 30 33 33 29 29 28 27 22 23 23 27 24 21 20 19 17 17 19 20 19 22 22 23 23
38 37 36 34 33 32 33 32 31 32 32 30 30 29 25 25 28 32 31 28 27 29 30 28 26 25 24 23 23 23 23 23 20 17 15 15 17 18 18 19 21 22 21
35 35 32 31 32 32 31 33 34 35 34 35 36 33 31 32 34 35 35 35 34 32 28 21 21 20 20 21 20 21 22 21 20 18 14 16 15 15 15 18 20 18 19
31 32 32 31 32 32 32 31 30 36 35 35 35 35 35 35 35 36 35 35 34 32 28 25 23 21 19 21 21 21 21 21 20 20 18 16 14 15 12 15 16 18 18
32 32 30 30 31 31 31 32 32 31 31 33 32 34 34 35 35 35 35 34 30 30 28 26 26 23 21 21 22 22 22 20 17 17 15 10 4 9 10 13 14 8 16
30 30 30 30 30 30 33 33 33 33 32 31 31 27 28 33 33 34 33 31 29 27 27 27 27 27 24 23 23 22 21 19 16 11 12 8 2 9 8 10 10 10 11
28 27 27 29 31 30 29 28 30 31 31 30 28 24 23 22 25 29 24 28 30 29 28 27 27 26 26 25 24 23 21 17 15 13 9 5 1 5 6 5 4 7 14
24 24 24 26 26 27 27 27 28 30 28 27 23 23 25 26 26 28 29 25 28 30 29 28 27 27 27 26 26 25 23 22 21 19 14 12 1 5 6 5 5 11 12
23 24 24 24 26 27 27 28 29 28 27 25 25 26 26 27 27 28 29 28 30 30 30 29 28 28 28 27 27 26 25 24 20 19 13 11 10 7 4 5 4 4 7
21 19 19 22 22 23 23 23 23 23 22 22 22 21 20 19 21 21 20 20 21 21 24 31 30 30 29 29 29 28 26 25 23 21 17 12 10 8 1 4 4 3 3
16 14 15 16 16 17 18 18 18 18 19 17 17 18 18 17 16 15 15 16 17 17 20 20 23 30 30 30 30 30 29 28 26 23 20 16 13 9 3 4 4 1 1
12 10 10 11 12 12 12 13 13 12 13 13 14 14 14 15 14 12 12 13 14 14 16 17 19 19 27 31 30 29 28 27 25 23 20 19 15 12 8 5 1 4 1
12 7 7 7 8 10 9 10 9 9 10 10 11 11 11 11 12 10 10 10 11 12 13 15 16 17 17 25 31 29 27 25 22 21 20 18 16 13 12 9 2 3 4

GFSGL_sfc_temp_063.txt.gz
Temp
52 53 54 53 53 52 51 50 48 48 48 47 45 44 43 43 42 40 39 39 38 36 36 35 36 36 35 36 37 35 34 30 26 28 29 29 28 28 30 29 31 31 32
53 52 51 51 50 48 48 47 49 45 47 45 44 44 44 43 41 39 38 39 37 36 36 35 36 40 35 33 31 30 29 28 27 25 26 26 26 27 27 27 32 35 31
54 53 50 51 47 49 49 47 45 46 45 44 44 43 43 42 41 39 39 38 38 36 36 35 35 34 32 30 29 29 28 32 27 25 24 25 25 26 26 28 28 29 33
52 52 50 49 49 47 45 46 45 45 44 44 43 43 42 42 40 40 40 38 36 36 35 35 34 33 32 32 31 29 29 27 26 24 24 25 24 26 25 24 25 27 28
52 50 48 47 47 44 45 43 43 46 44 43 42 42 41 41 41 39 38 36 35 34 33 35 35 38 39 35 33 29 27 25 24 23 23 22 22 22 22 25 23 24 26
47 45 45 44 45 45 45 44 44 43 42 41 40 40 39 41 40 40 38 34 34 33 31 32 35 35 35 38 37 34 29 25 23 21 21 20 20 22 20 22 22 21 20
44 44 45 46 46 45 46 45 42 40 40 39 38 38 37 36 39 40 39 33 32 31 30 30 31 35 34 32 34 34 33 32 28 23 19 20 18 22 23 22 22 23 23
43 44 45 44 45 45 44 42 40 39 38 37 36 36 35 36 38 39 38 32 30 30 33 31 30 30 30 30 28 27 27 28 28 28 24 23 24 25 24 26 25 25 25
44 44 45 45 44 43 41 39 38 37 36 35 35 34 33 33 36 37 36 30 29 29 32 31 31 29 32 34 28 25 26 27 31 32 32 32 32 32 30 21 20 20 19
45 46 45 45 42 41 40 38 36 35 35 33 32 32 33 31 35 36 35 30 29 29 29 31 33 31 32 32 24 21 20 24 25 25 25 27 28 27 29 25 20 19 20
45 45 44 44 42 40 38 36 35 33 31 30 30 30 29 31 31 35 36 34 30 28 29 29 29 32 33 33 32 24 22 26 25 24 24 23 24 23 23 23 23 20 20
44 43 42 41 40 40 36 35 34 31 29 27 22 26 28 29 32 33 35 35 34 29 29 29 29 32 33 33 31 31 31 27 23 22 20 20 20 21 22 22 24 24 24
41 40 39 40 38 37 34 33 31 30 27 28 27 27 28 28 29 33 34 34 34 32 31 31 32 32 32 31 32 31 28 23 21 15 18 19 19 22 24 24 25 25 25
38 38 37 34 35 34 33 33 30 29 29 30 29 28 29 28 27 28 29 29 33 31 31 32 30 29 29 29 26 28 26 21 21 20 18 17 18 20 19 21 20 21 20
33 33 32 32 31 31 32 31 33 34 33 34 32 31 30 27 29 31 29 27 27 29 28 28 27 27 26 26 25 25 24 21 19 17 15 16 17 18 17 18 18 19 17
31 31 30 30 30 30 29 31 35 35 35 35 35 34 35 34 35 35 35 34 34 34 28 27 26 26 24 24 24 23 22 20 22 19 15 16 16 16 14 16 18 15 15
28 29 29 29 29 29 29 29 29 33 36 36 36 36 36 35 35 33 33 35 34 33 29 26 25 25 24 24 23 23 22 21 22 19 18 16 17 15 11 13 14 14 14
27 27 26 26 26 26 27 28 30 27 26 28 34 35 35 34 33 33 33 34 31 31 29 27 25 23 25 24 23 22 23 22 18 18 17 17 13 11 9 12 12 6 10
25 24 24 22 23 24 26 25 25 26 25 27 30 33 30 31 32 33 33 27 29 29 28 28 28 27 25 25 24 23 22 21 17 13 17 16 10 10 8 10 9 8 8
24 22 22 24 24 26 26 26 25 26 27 27 28 28 26 22 18 21 20 24 26 29 29 28 28 28 27 26 25 24 21 19 17 16 15 15 11 7 8 5 1 5 11
22 23 20 22 22 22 22 22 22 22 22 22 22 23 23 24 22 22 22 21 22 24 27 29 29 28 27 27 26 25 24 22 20 19 19 17 11 4 8 5 3 8 11
20 17 17 18 18 18 19 19 18 18 18 18 18 20 20 18 17 17 16 16 17 18 19 20 21 28 28 27 27 26 25 24 22 21 20 18 15 11 7 3 2 2 6
14 10 12 14 13 14 13 15 13 13 14 13 14 15 16 14 13 13 12 12 14 14 15 17 18 18 19 26 29 28 27 26 26 24 21 18 15 13 6 5 3 1 2
10 7 9 9 8 9 6 8 9 7 9 8 8 11 10 11 11 11 10 10 11 11 12 13 15 16 17 16 18 29 29 29 28 24 22 20 17 13 9 7 4 0 -0
3 -1 -2 2 2 4 2 6 4 0 2 4 5 7 9 9 10 10 9 9 9 9 10 11 13 14 15 15 15 17 28 29 27 24 22 20 18 14 12 9 5 4 -1
4 0 -2 -4 -3 -2 -1 2 -1 1 2 2 3 4 6 7 8 8 8 7 6 7 7 8 10 11 12 14 15 15 17 28 26 24 22 20 18 15 12 11 8 6 6

GFSGL_sfc_temp_066.txt.gz
Temp
50 50 51 52 50 50 49 49 49 48 46 46 46 45 45 41 42 40 39 39 38 37 37 36 36 36 35 35 35 34 33 34 30 31 31 32 32 32 32 32 33 33 33
49 49 48 49 50 49 48 48 47 46 46 44 44 45 44 42 41 40 39 40 37 37 37 35 35 39 34 34 32 32 31 30 29 27 29 29 29 30 30 29 32 34 33
50 50 50 50 49 46 47 46 46 43 44 45 45 45 43 42 41 39 38 38 37 37 36 35 34 33 32 32 31 30 31 33 30 28 27 28 28 29 28 29 30 31 33
51 52 49 49 48 47 46 45 43 45 45 45 44 43 42 41 40 40 39 37 36 36 35 34 34 33 32 32 32 32 31 29 28 27 26 26 27 28 27 26 26 30 29
51 50 47 46 46 46 45 45 45 46 45 44 42 41 40 40 41 38 37 36 34 34 34 34 34 35 38 35 33 31 30 27 26 25 25 25 25 24 24 26 24 26 27
48 45 46 46 46 45 43 44 45 45 43 41 39 39 39 40 40 39 38 34 34 34 32 32 32 36 34 37 37 36 31 28 25 23 24 23 24 24 24 23 23 22 21
46 46 46 45 45 43 45 45 43 42 41 39 38 37 36 36 38 39 39 34 33 32 31 31 32 34 34 32 34 35 33 33 28 26 23 24 21 24 25 23 24 24 24
46 45 45 44 44 44 44 43 41 40 39 37 36 35 34 35 38 38 38 34 32 31 30 30 30 31 32 31 31 29 29 29 30 30 27 26 25 27 26 27 25 25 26
44 45 45 45 44 43 41 40 39 37 36 35 34 33 32 32 36 36 35 31 30 30 31 30 30 30 32 35 29 26 27 28 32 33 33 31 32 32 31 25 22 21 19
44 45 45 44 43 41 40 39 36 34 34 33 32 32 34 32 34 36 35 29 32 32 32 30 33 31 32 33 29 25 22 26 27 27 27 29 30 29 30 27 23 19 20
45 44 44 43 41 41 38 35 34 32 32 30 30 30 31 31 31 35 36 31 32 32 31 29 30 32 33 33 33 26 25 28 26 26 26 26 26 26 26 26 26 22 20
43 42 42 41 39 38 34 34 33 31 29 28 26 29 29 31 33 34 35 35 33 31 31 31 31 33 33 34 33 31 31 28 25 23 22 22 22 23 25 25 26 26 26
40 38 36 36 34 33 32 31 30 29 28 29 29 29 31 33 29 33 34 34 34 30 33 33 32 32 32 31 32 31 30 29 26 24 23 23 24 25 26 26 27 27 26
33 32 31 30 31 30 31 31 28 26 27 30 30 30 31 32 31 29 29 31 32 32 31 32 32 31 29 29 29 30 30 28 27 25 23 23 22 21 22 24 22 23 21
31 30 29 29 28 28 30 29 30 30 29 30 30 31 30 31 33 34 32 31 30 29 25 24 29 28 26 26 26 27 27 26 24 23 20 20 20 20 20 21 21 21 19
29 28 27 27 27 27 27 27 32 33 34 34 34 32 32 34 35 36 36 36 34 31 27 26 27 27 27 27 25 25 25 25 25 23 21 21 20 19 19 20 20 19 17
25 27 25 25 25 24 24 25 23 27 31 32 32 33 33 33 33 33 34 34 33 32 30 28 27 28 28 27 26 25 24 25 25 23 23 21 20 19 17 18 18 18 17
24 23 21 21 21 23 24 25 25 24 23 25 30 29 28 29 31 32 32 32 29 29 29 29 29 27 25 26 25 25 25 25 22 22 20 20 19 18 17 16 17 14 15
24 22 21 20 24 25 25 22 21 21 20 21 22 23 22 27 27 27 27 25 25 26 27 28 29 29 26 26 27 26 25 24 22 18 20 19 17 18 16 15 16 11 11
23 21 19 20 20 20 20 19 19 18 19 18 18 18 19 19 17 18 18 17 17 17 18 19 21 27 28 29 26 26 25 23 22 19 18 19 17 16 17 14 11 13 16
19 19 16 19 16 16 16 15 15 14 15 13 14 16 16 15 14 14 14 13 13 14 14 16 18 19 20 26 28 26 25 24 23 21 20 18 16 16 16 15 13 13 14
15 14 14 13 13 12 11 13 10 9 10 9 9 12 10 11 12 12 11 11 11 12 13 14 14 16 18 17 17 23 26 25 24 23 21 20 18 18 16 13 12 12 13
11 5 7 11 7 6 5 6 5 2 6 5 5 7 8 7 7 10 9 9 10 9 11 12 12 13 15 15 16 17 18 26 27 25 23 21 19 18 14 13 12 10 11
6 1 6 3 -0 2 -5 -3 -0 1 3 2 -1 2 4 5 4 6 6 7 7 7 9 9 10 11 11 12 13 16 17 16 16 27 25 22 20 17 16 14 13 10 9
-2 -5 -6 -6 -6 -9 -10 -5 -6 -7 -6 -5 -4 -0 2 3 3 5 4 5 6 5 6 8 8 8 9 9 10 13 13 14 14 21 25 23 20 18 17 16 13 12 8
1 -3 -6 -10 -11 -12 -14 -14 -10 -12 -8 -4 -4 -4 -1 -1 0 2 2 2 3 3 5 6 7 6 6 7 11 12 12 14 13 20 25 23 20 18 16 16 13 13 10

GFSGL_sfc_temp_069.txt.gz
Temp
62 62 60 60 60 58 57 56 56 53 49 47 47 50 53 53 53 51 51 51 49 49 49 48 48 49 48 48 48 47 46 44 39 44 46 46 44 44 45 45 43 43 43
60 59 58 56 56 56 55 54 54 48 50 48 51 54 53 53 53 51 50 50 49 48 48 47 46 48 46 47 47 46 45 45 40 39 45 43 42 44 42 41 41 42 42
58 55 54 54 53 53 52 50 48 49 52 53 53 51 52 52 51 51 50 49 48 48 48 47 47 47 46 47 46 45 45 44 42 39 40 42 42 42 41 41 40 40 41
53 53 53 53 52 48 49 49 48 47 51 51 51 52 51 51 50 50 50 49 47 47 47 46 46 46 45 45 45 44 41 39 40 38 39 40 40 41 39 37 36 39 39
54 53 50 47 44 44 45 48 46 49 52 52 51 50 50 49 50 50 49 48 47 46 47 46 46 45 41 41 42 42 41 40 39 38 38 38 38 38 36 37 34 36 37
51 47 45 43 44 46 46 44 47 51 50 49 49 48 48 48 42 39 42 47 47 46 45 47 46 41 41 38 37 37 39 41 39 38 37 36 37 37 36 34 33 31 29
49 45 46 46 48 45 45 50 49 47 49 48 47 47 47 47 39 39 38 46 46 46 46 45 44 43 40 42 38 35 36 34 33 38 34 36 34 35 35 33 33 33 32
46 46 46 46 45 45 50 48 48 49 47 48 47 46 45 46 38 38 37 44 45 45 44 44 43 43 42 40 40 39 40 40 39 38 38 38 38 37 36 35 33 32 34
46 46 46 46 47 49 47 48 48 47 47 46 46 45 44 45 38 37 38 43 42 42 43 43 42 42 39 36 36 34 37 38 37 35 35 34 33 32 33 34 29 29 28
47 47 47 47 50 48 47 47 47 46 45 46 45 45 42 43 40 37 38 41 37 39 41 40 36 36 36 34 34 33 31 35 37 36 37 36 35 36 33 34 33 28 29
46 48 49 49 48 47 46 45 45 45 43 41 38 41 42 41 41 38 37 39 38 38 39 38 37 35 33 34 34 35 33 37 35 35 35 35 35 35 36 36 35 32 29
48 46 45 44 44 43 43 43 43 42 40 36 33 36 40 41 38 37 37 36 37 35 35 39 39 35 34 33 34 34 33 32 32 32 32 32 32 33 35 36 36 35 35
43 41 40 40 40 40 40 40 39 39 37 35 34 35 35 37 39 37 35 34 34 35 36 35 35 35 33 33 33 32 31 33 31 29 30 31 34 35 35 34 34 34 33
38 38 38 38 37 38 38 38 36 35 34 34 33 32 33 35 36 37 37 36 35 35 35 35 33 32 32 33 33 33 34 34 32 31 31 33 33 31 30 33 31 31 29
36 35 35 35 34 34 34 34 33 35 33 31 32 31 30 30 32 33 33 33 34 34 33 33 33 32 30 31 31 32 34 33 32 32 31 30 29 30 30 32 30 30 27
34 33 31 31 31 31 31 31 31 31 32 32 32 31 30 30 31 31 31 32 33 33 32 31 31 31 30 31 30 30 32 32 33 32 30 30 29 29 29 30 30 28 27
31 30 30 29 29 28 29 29 28 31 30 30 29 29 27 28 29 29 28 29 32 32 31 32 31 31 31 32 32 30 30 33 32 31 30 30 29 29 28 28 28 28 27
28 25 28 28 28 28 28 28 27 25 24 26 28 26 24 25 26 25 25 27 26 26 24 24 27 31 32 32 32 31 32 32 30 30 29 29 29 29 28 27 28 26 26
29 27 26 26 26 25 26 25 25 24 23 23 24 24 22 22 23 23 22 20 19 20 21 22 23 24 24 27 31 31 31 31 30 29 29 29 29 29 28 28 28 24 23
27 22 23 25 24 23 23 22 21 20 21 20 19 18 19 19 18 18 19 17 17 18 17 17 19 20 21 22 24 25 31 30 29 29 29 29 29 28 28 27 26 26 25
24 23 18 22 21 20 19 19 18 17 17 16 16 16 13 15 15 16 16 16 15 15 15 16 17 18 19 20 20 21 20 26 29 29 29 28 28 27 28 28 27 25 25
19 18 19 18 18 16 15 16 16 14 14 13 14 15 11 15 14 14 15 15 14 15 15 15 15 16 16 17 17 17 19 21 22 28 28 28 28 27 27 26 25 25 24
16 14 15 15 14 12 12 12 12 12 11 11 11 11 11 11 11 12 12 13 13 13 13 13 13 13 14 14 15 16 16 18 19 19 19 28 27 27 26 25 24 23 23
13 12 12 11 10 10 9 8 9 7 7 8 8 8 8 9 9 9 10 11 10 11 11 10 11 11 12 12 13 14 16 17 16 17 18 20 28 27 25 25 24 23 22
12 11 9 9 8 7 6 7 6 6 6 6 6 6 7 7 8 8 8 9 8 8 8 8 10 10 10 10 10 11 13 12 13 14 17 18 27 26 25 24 24 23 21
12 10 9 8 8 7 6 4 4 4 3 3 4 4 4 5 6 6 6 6 6 5 5 8 8 8 8 10 11 11 9 9 12 13 15 16 26 26 24 24 22 22 21

GFSGL_sfc_temp_072.txt.gz
Temp
72 68 65 66 64 63 64 64 64 62 59 55 50 49 56 58 60 59 59 59 57 57 57 56 55 56 55 55 55 55 52 52 47 51 54 55 51 49 50 52 51 50 50
72 67 64 61 59 56 56 57 57 53 52 50 51 56 58 61 60 59 58 59 57 56 56 55 54 56 54 54 54 52 52 52 49 44 49 50 48 49 47 48 49 50 49
67 62 57 55 55 54 52 52 50 50 52 51 55 58 59 59 59 59 58 57 56 56 55 55 54 54 52 53 53 52 52 52 51 46 45 49 47 47 46 48 48 48 49
62 59 56 54 53 51 49 47 46 47 48 50 53 57 57 59 59 58 57 56 56 56 55 54 54 53 52 52 52 51 51 49 47 43 41 41 44 47 47 44 44 47 46
58 55 54 53 50 46 45 45 49 52 49 50 57 58 58 57 58 57 56 55 54 54 54 54 53 51 46 45 50 49 49 45 41 39 38 40 43 44 42 46 43 43 44
58 55 54 49 46 44 43 48 47 47 52 58 57 57 56 57 44 41 43 52 53 53 52 53 54 48 45 39 38 38 40 42 40 40 39 38 42 43 43 42 41 38 35
55 52 50 47 46 49 50 50 49 53 57 56 55 55 54 55 42 40 39 50 51 52 52 52 52 53 47 49 43 37 36 36 35 41 39 40 38 41 41 40 40 39 39
54 52 52 50 47 49 54 52 52 56 54 55 54 54 53 54 42 39 38 48 50 51 51 51 50 50 50 48 48 46 45 44 42 42 43 44 43 43 42 41 39 38 38
52 50 49 49 50 54 49 52 55 55 54 54 54 53 52 52 41 39 39 48 48 48 50 50 50 49 45 41 43 40 41 42 42 39 37 37 36 35 35 38 33 32 30
51 51 54 55 47 52 54 53 55 54 52 53 52 52 47 49 43 39 40 44 41 43 46 46 42 43 39 36 39 39 35 39 41 41 41 38 36 38 34 36 35 30 32
53 50 50 53 54 53 52 53 53 52 50 47 43 45 46 46 45 39 38 41 40 40 40 41 41 38 36 35 34 37 37 41 38 39 39 39 40 40 41 38 38 35 32
53 53 52 52 50 51 50 51 51 49 46 42 36 40 44 44 39 39 37 37 37 37 38 40 42 37 37 35 34 34 34 34 37 36 35 35 36 37 38 39 39 39 38
50 48 48 47 48 48 49 48 47 46 43 40 38 39 39 41 43 38 36 35 35 36 39 38 35 35 35 34 32 32 32 33 33 33 33 35 37 39 39 39 38 38 37
47 46 46 44 45 46 48 46 44 42 39 38 37 35 35 38 39 35 34 35 35 36 36 38 37 35 34 34 34 34 34 35 35 34 34 38 38 35 34 36 34 34 32
44 43 43 43 42 42 42 40 40 39 35 34 35 35 31 30 30 31 30 30 32 33 32 36 37 38 36 36 35 34 35 34 33 35 35 35 35 34 33 35 34 33 30
41 41 38 40 39 39 41 38 31 32 31 31 30 29 30 29 28 29 28 28 30 30 34 33 33 34 34 34 33 33 34 33 34 35 34 33 33 32 32 33 34 30 29
39 37 36 36 38 37 38 37 36 34 31 30 29 28 26 25 26 27 26 27 30 30 30 29 29 29 31 31 34 34 33 35 34 34 34 32 32 32 31 31 31 31 29
34 29 36 36 37 36 36 34 34 31 29 31 31 27 26 24 25 25 25 28 28 29 28 26 26 27 27 29 30 30 33 35 34 33 32 32 32 31 30 30 31 30 30
35 34 33 33 32 31 32 31 31 29 28 29 30 29 27 23 25 26 25 25 24 25 25 25 25 25 25 26 26 26 27 29 32 32 32 32 31 31 31 31 31 30 29
32 25 27 32 31 30 30 28 28 27 26 26 26 25 24 22 24 24 24 23 22 22 22 22 23 23 23 23 24 24 24 26 27 31 31 31 31 31 31 31 31 30 29
33 30 22 30 28 27 26 26 26 24 23 23 23 23 15 17 21 22 22 21 21 20 20 20 20 20 21 21 21 21 22 23 24 25 26 31 31 30 31 32 31 31 30
27 26 26 25 25 24 22 23 23 22 21 21 21 22 17 20 21 20 20 20 19 20 20 20 19 19 19 19 19 18 18 19 22 22 22 24 27 31 31 30 30 29 29
24 22 23 23 21 19 20 20 19 19 18 18 19 19 18 18 17 18 18 17 18 18 18 18 17 17 19 19 19 18 17 17 19 20 19 19 22 26 30 30 29 28 28
21 21 20 20 19 17 17 16 17 16 15 16 16 16 16 16 15 16 16 16 16 16 16 16 15 15 16 16 18 18 18 18 17 17 17 18 18 21 28 29 29 28 28
21 19 18 17 17 16 15 16 15 15 14 14 14 14 15 14 14 15 15 14 13 14 14 13 14 15 14 14 13 14 16 15 14 13 14 18 18 20 21 29 29 28 27
19 18 17 16 16 15 14 13 13 13 12 12 12 12 12 12 13 13 12 12 12 11 11 13 14 14 13 14 15 15 13 12 12 12 14 16 17 20 23 28 28 28 26

GFSGL_sfc_temp_075.txt.gz
Temp
79 75 68 66 69 65 64 60 59 61 63 61 53 50 49 50 51 55 60 60 60 59 59 58 57 58 57 57 57 57 54 54 49 52 56 57 55 54 55 54 54 52 52
79 74 66 65 59 57 56 56 56 54 53 50 50 52 52 54 57 57 58 60 59 58 58 57 57 59 56 56 56 54 54 54 51 48 52 53 53 53 52 49 50 52 51
75 67 60 56 55 55 54 53 52 50 50 52 51 49 51 54 58 61 60 59 59 58 58 57 56 56 55 56 55 54 55 55 53 51 49 53 52 52 50 49 48 49 51
63 62 57 56 54 52 52 52 51 49 48 47 48 49 50 57 60 61 60 59 58 58 57 57 56 55 54 54 54 54 54 52 51 50 49 48 47 48 47 44 43 47 47
63 59 54 53 52 54 52 50 48 47 47 52 50 50 56 60 61 59 59 57 56 55 56 57 56 54 48 48 52 51 50 48 48 47 45 43 43 42 41 44 42 43 45
57 53 53 52 51 48 46 47 48 50 50 50 52 59 58 59 43 45 45 52 53 53 53 54 56 51 50 42 42 41 43 45 43 42 41 40 41 42 43 41 40 39 37
55 52 51 50 48 47 48 48 49 52 53 55 58 57 56 57 44 42 40 50 51 51 52 52 52 55 49 54 46 39 39 38 36 42 39 40 40 43 43 41 40 39 39
52 51 51 51 51 53 54 55 55 56 56 57 56 56 55 56 43 41 39 49 50 50 51 51 51 51 52 49 49 48 48 47 43 43 42 43 44 45 43 42 40 39 40
53 56 56 56 54 52 52 54 55 56 55 55 56 55 54 54 41 39 40 48 47 47 49 49 49 48 45 41 43 43 43 43 45 41 40 40 38 36 36 38 35 33 32
57 56 56 54 56 56 54 55 56 56 55 56 54 53 47 50 39 39 41 43 41 42 44 45 41 42 37 37 39 38 35 38 39 41 43 40 38 40 34 37 37 32 32
58 58 58 57 55 55 56 55 55 54 52 49 45 46 47 46 45 39 38 40 39 38 39 40 42 38 37 37 36 38 35 38 38 36 37 41 39 40 41 39 39 36 32
57 55 56 55 55 56 54 53 52 52 48 45 38 41 45 45 39 38 36 35 34 35 36 39 40 38 36 36 36 36 35 33 34 33 34 35 37 38 40 41 39 39 39
55 53 54 53 53 53 52 50 49 49 45 43 40 40 41 41 44 36 35 33 34 34 36 36 35 35 35 36 34 34 33 33 33 32 33 36 38 39 40 38 38 39 39
53 51 51 50 49 50 50 49 46 44 42 40 39 38 37 39 39 36 34 35 34 34 34 36 34 33 34 34 34 37 35 34 33 34 35 38 39 37 36 38 35 33 32
49 48 48 47 46 45 45 42 42 37 35 36 36 35 32 31 32 29 30 30 30 30 31 33 35 35 35 36 36 37 36 35 34 36 36 37 37 37 36 36 33 33 30
46 45 42 42 42 43 43 38 33 32 31 30 29 29 31 29 27 28 28 28 28 30 30 32 30 29 29 30 33 32 34 34 34 36 36 35 35 35 35 35 34 32 30
42 38 37 39 40 40 40 39 39 31 32 31 29 28 27 26 26 27 27 27 29 30 30 30 28 26 26 28 29 30 30 32 32 34 34 33 34 34 33 32 32 31 30
34 32 39 38 38 38 38 36 36 34 31 33 30 29 29 27 26 26 27 27 30 30 29 28 27 26 26 26 26 26 27 28 30 29 33 33 32 32 32 31 32 30 30
36 34 34 34 33 32 33 33 33 32 30 31 32 32 31 27 25 27 28 27 25 26 27 26 26 25 24 24 24 24 25 25 26 27 28 31 32 32 31 31 31 31 31
30 28 28 33 32 32 31 30 30 30 29 29 29 29 29 24 21 25 26 25 23 24 23 23 23 23 22 22 22 22 23 23 23 24 25 27 29 32 31 31 31 30 30
34 30 24 30 30 29 28 28 28 28 27 26 26 27 17 20 20 23 24 23 22 21 21 21 21 21 22 22 21 20 20 20 21 22 23 22 23 25 30 32 31 31 31
28 28 27 27 27 27 26 25 26 25 25 24 24 25 22 21 22 21 22 21 21 21 22 21 20 20 20 20 19 19 18 18 19 19 20 20 20 22 24 29 30 30 30
25 24 25 26 24 23 23 24 23 23 22 21 22 21 21 20 19 20 19 20 20 19 19 19 18 18 19 19 19 18 17 17 18 19 16 16 17 20 20 22 28 30 29
24 23 23 23 23 20 21 21 20 20 20 20 19 18 18 18 18 18 18 18 18 18 17 17 17 16 17 17 18 18 18 18 18 18 16 14 14 17 20 21 22 30 29
23 22 22 21 21 20 20 20 19 19 18 17 16 16 16 16 17 17 17 17 16 15 16 15 15 16 16 15 15 16 16 16 16 14 14 14 14 15 17 19 21 25 29
22 22 20 20 19 19 18 17 16 16 15 15 14 14 14 14 15 14 14 14 14 14 12 14 15 14 14 15 16 16 14 14 13 12 13 14 14 14 17 19 21 23 28

GFSGL_sfc_temp_078.txt.gz
Temp
75 73 70 68 66 64 63 61 59 57 55 51 51 50 49 49 49 47 48 49 52 53 53 51 50 52 48 47 47 46 44 43 40 43 44 45 44 44 47 45 47 44 45
75 73 67 64 63 61 57 56 54 52 52 50 50 50 50 51 51 49 49 52 52 52 52 51 51 55 48 47 45 44 44 44 42 40 43 42 42 43 43 42 46 49 45
74 66 63 59 58 56 55 54 53 51 51 51 51 50 50 49 49 49 52 52 53 52 51 49 49 49 46 45 45 44 44 49 42 38 41 41 40 41 39 39 39 39 46
66 61 57 56 55 53 52 51 51 51 51 50 50 49 49 49 51 53 55 53 51 51 50 49 49 48 46 45 46 43 45 40 38 37 38 37 36 38 36 34 35 36 38
59 56 53 51 51 51 50 50 50 50 49 48 48 48 49 51 54 52 53 49 47 47 48 50 49 48 46 44 46 42 41 41 40 38 37 37 35 35 33 33 35 33 34
54 51 51 51 50 50 49 48 47 47 47 48 49 49 49 53 41 44 46 46 47 46 44 46 47 46 47 43 41 40 41 40 39 37 38 35 34 32 32 32 33 31 27
51 51 50 49 47 46 47 48 47 46 47 47 48 49 51 51 42 42 42 45 44 43 42 43 45 51 44 45 43 40 38 38 36 39 36 35 34 33 32 31 33 31 29
50 49 49 48 47 47 48 48 47 49 49 49 50 52 50 50 42 41 39 42 42 42 42 42 42 41 41 39 37 36 37 39 40 39 37 36 37 37 34 34 32 31 30
49 49 49 49 49 49 50 51 51 51 51 50 50 49 48 42 39 38 40 40 40 38 42 41 40 37 39 40 34 33 34 35 41 41 40 38 38 39 36 30 26 25 24
51 51 53 53 52 51 51 51 52 52 52 51 49 45 43 39 38 38 39 33 33 32 35 38 37 36 36 36 33 32 31 33 33 35 35 36 36 35 35 33 30 27 27
57 55 54 53 53 53 52 51 51 49 45 38 36 38 41 40 37 37 36 32 30 30 30 31 32 36 36 36 35 33 32 34 33 33 33 35 35 35 32 32 33 31 28
55 54 55 54 54 54 50 49 49 45 39 35 33 35 36 37 34 35 35 33 32 29 29 30 31 35 35 35 34 35 35 33 33 32 31 31 32 33 34 34 34 33 32
54 53 52 52 52 52 49 45 42 42 37 34 33 32 33 34 31 34 34 33 33 28 29 31 33 33 33 32 34 35 34 31 32 30 31 31 32 35 34 34 34 33 33
51 49 49 48 47 47 47 44 38 36 34 33 32 31 30 32 28 28 28 27 30 29 28 27 28 29 30 32 31 33 31 33 32 31 31 31 31 32 33 33 30 31 30
48 47 45 43 42 39 36 34 32 31 31 31 30 30 27 26 26 27 27 26 24 26 24 26 26 26 27 27 28 29 30 31 29 31 31 30 31 29 30 30 29 31 29
45 41 37 36 36 37 34 31 33 31 31 31 30 29 29 28 27 27 28 28 29 29 24 23 22 18 19 23 24 25 26 26 26 27 28 31 30 28 27 29 28 29 27
35 35 35 35 34 34 34 33 29 30 32 31 30 29 28 27 27 27 27 28 28 28 22 21 17 17 18 22 23 23 23 24 26 26 25 26 29 29 27 29 29 29 28
34 32 33 33 32 32 31 31 31 30 27 28 30 29 29 27 26 27 27 27 24 25 23 21 17 18 20 21 21 20 21 22 22 22 22 24 25 26 29 29 29 27 28
29 29 30 29 28 29 30 30 29 29 28 27 28 27 25 25 26 26 28 22 18 19 22 21 18 19 18 19 19 19 18 19 18 19 20 22 22 22 23 28 29 29 27
27 27 28 30 29 29 29 28 27 27 26 26 25 24 23 21 17 15 18 17 16 17 17 18 18 18 18 18 18 17 17 17 17 17 17 19 19 19 19 22 26 28 27
30 26 25 28 28 27 26 25 25 24 24 23 22 19 16 16 14 16 19 16 18 17 12 17 18 14 16 16 16 15 15 15 15 16 16 16 16 15 17 19 21 28 27
26 26 26 25 24 24 21 22 22 22 22 21 20 21 18 16 18 18 17 14 17 14 15 16 15 15 15 15 13 13 13 12 14 15 14 14 14 14 15 17 18 19 27
24 23 24 24 23 22 21 22 20 20 19 18 18 18 17 16 16 16 16 15 15 16 12 11 11 14 14 12 14 14 13 13 13 13 11 11 12 12 11 13 17 18 19
23 22 22 22 21 19 18 18 18 17 18 17 16 15 14 14 14 14 14 15 12 10 11 9 13 11 11 12 14 14 15 14 14 13 12 9 8 10 11 12 13 15 18
22 21 20 19 18 18 17 17 17 16 15 14 13 13 13 13 13 13 12 11 12 8 11 10 9 10 12 11 10 11 13 14 11 8 9 9 8 8 10 11 13 15 18
20 19 18 18 17 16 15 14 13 13 13 12 12 10 11 11 11 9 10 8 9 9 6 8 9 8 8 9 11 14 12 11 11 11 10 9 8 9 11 11 12 13 14

GFSGL_sfc_temp_081.txt.gz
Temp
70 67 66 64 62 60 60 59 59 58 56 54 51 49 50 51 49 48 48 48 48 47 49 48 48 49 47 45 44 44 42 40 37 39 40 42 40 41 44 43 42 42 42
70 65 65 63 62 60 61 59 56 53 52 51 51 52 51 49 49 49 48 49 48 48 49 49 48 51 45 44 42 42 41 41 40 40 39 38 40 43 42 40 45 48 43
64 65 62 61 60 58 56 55 54 52 51 52 51 50 50 51 50 49 49 49 49 50 49 47 47 46 43 42 42 40 40 44 38 34 34 36 36 37 37 38 38 38 43
66 60 57 56 56 55 53 52 52 52 50 51 51 51 50 50 50 50 50 49 48 47 47 46 46 45 43 42 42 40 41 37 36 33 33 33 33 35 34 32 31 32 34
57 56 54 53 53 52 51 51 51 51 50 50 49 49 49 49 50 49 51 47 44 44 44 46 45 45 44 42 42 38 36 34 32 32 34 30 29 30 31 31 31 30 30
52 51 51 51 51 50 50 49 49 48 48 49 49 49 47 52 46 44 44 42 44 43 41 41 42 43 43 41 40 38 36 32 31 29 33 32 33 30 31 31 29 29 25
50 50 50 49 48 47 47 47 47 47 47 47 48 48 47 47 41 42 41 42 41 40 38 38 40 45 39 38 37 36 35 37 33 31 31 32 33 32 32 33 30 30 28
49 49 48 47 46 47 47 47 46 47 47 47 47 47 46 45 40 39 40 39 38 38 38 37 36 35 36 36 34 31 31 32 34 36 32 33 34 36 36 35 34 30 29
48 48 48 47 46 47 46 46 47 47 47 47 48 46 41 39 38 38 38 36 36 34 37 36 36 33 36 38 33 30 31 31 38 38 38 38 38 38 37 34 30 29 21
49 48 49 48 48 47 48 48 49 49 49 46 44 40 38 35 37 38 36 31 31 30 32 33 34 34 34 34 31 29 28 30 31 32 33 33 34 34 35 35 33 28 25
51 50 50 51 51 50 50 50 48 44 40 34 35 36 35 34 34 36 35 30 29 29 29 29 29 33 34 34 34 30 29 32 32 33 33 33 33 34 35 35 32 31 29
52 51 51 50 52 51 48 47 45 40 35 34 34 32 32 31 34 34 34 33 32 29 28 29 29 32 33 33 32 33 33 31 33 32 32 31 31 32 33 34 33 31 34
51 50 50 50 49 49 45 42 39 38 35 33 33 32 31 31 30 32 31 31 31 28 28 29 29 30 30 29 32 32 29 27 27 27 30 31 33 33 31 32 34 33 31
48 47 46 44 42 42 42 39 35 34 33 32 31 31 30 28 27 27 27 26 28 27 26 26 26 27 27 26 26 28 27 26 25 25 24 27 31 32 30 33 32 32 31
43 42 40 38 36 33 33 33 31 30 31 29 28 29 27 25 26 27 27 26 24 27 23 23 24 25 24 24 24 25 25 24 23 23 24 24 26 29 30 31 32 30 29
38 37 34 34 33 31 29 29 31 30 31 31 30 29 28 28 28 28 28 29 29 29 23 20 16 14 16 20 19 20 21 20 22 22 22 22 22 25 24 30 30 28 29
34 33 32 31 31 31 31 30 27 29 30 31 31 31 30 29 28 27 28 28 29 28 19 18 12 11 11 18 18 18 17 18 21 20 18 19 21 22 23 22 29 29 29
30 30 29 28 28 28 28 28 28 28 25 26 30 29 30 28 27 27 28 28 22 24 22 18 14 14 15 18 17 16 17 15 16 16 16 16 17 18 18 20 20 27 28
28 28 28 26 26 27 27 27 27 27 26 26 27 27 25 26 25 25 25 18 19 19 19 18 13 12 12 14 7 8 5 6 9 6 12 15 15 15 15 16 17 20 22
25 25 26 27 27 27 26 25 25 25 24 24 23 22 21 20 14 10 11 11 13 16 15 14 14 12 12 9 4 4 8 4 11 9 11 13 12 13 13 14 15 16 18
25 26 26 27 25 25 24 22 22 21 21 20 19 16 17 15 13 11 15 11 11 11 9 9 8 6 7 4 8 1 3 0 5 9 12 10 10 9 12 13 13 14 18
24 24 24 23 23 20 20 20 19 18 18 17 15 18 15 11 9 12 12 7 2 5 8 10 6 7 6 11 10 -2 1 2 3 9 8 7 8 9 10 10 10 12 15
21 19 20 20 19 17 15 16 13 11 11 10 11 11 9 4 4 9 6 -0 6 9 8 4 -2 3 6 2 2 8 11 9 9 8 8 7 7 6 6 7 10 11 12
19 16 18 16 13 11 9 7 8 12 13 10 4 1 2 -0 -3 -3 2 1 1 1 -3 -1 3 6 5 4 9 9 10 9 11 11 4 6 5 5 6 6 8 10 11
14 12 9 6 4 2 3 6 2 0 2 1 -1 -0 2 -3 2 -1 -4 -4 -2 -6 1 -1 -2 2 4 2 3 5 7 11 9 9 10 9 7 3 3 5 8 10 11
12 10 8 9 8 4 6 2 -0 -3 -3 2 -2 -6 -3 -0 -2 -7 -4 -3 2 -2 -4 -1 -1 -0 1 4 6 10 8 9 9 10 11 10 8 7 6 7 9 9 9

GFSGL_sfc_temp_087.txt.gz
Temp
62 62 61 61 61 61 61 61 60 60 57 56 56 55 53 52 51 52 51 50 50 48 48 48 48 49 48 47 46 45 43 39 34 36 37 38 37 39 41 40 41 40 39
63 63 62 62 62 61 60 61 59 57 57 56 55 54 52 52 52 51 50 50 50 48 48 48 48 49 47 46 44 43 42 37 36 33 35 35 35 37 37 37 41 43 39
62 62 62 61 61 60 60 58 57 57 56 55 54 54 52 52 51 52 51 50 49 49 48 48 47 47 45 43 43 41 37 40 35 32 32 32 33 34 34 35 35 35 39
62 61 61 61 60 61 60 57 57 56 57 55 54 54 53 52 52 51 51 49 49 49 48 47 47 45 44 42 41 37 37 34 32 30 29 29 30 32 30 29 30 31 32
61 61 61 61 59 57 57 57 58 58 57 55 54 53 53 52 51 50 50 49 48 45 45 45 44 43 42 41 38 35 33 30 29 28 27 27 27 28 28 29 28 31 30
60 59 54 54 55 55 55 55 52 52 52 53 52 51 50 51 43 43 46 46 45 42 40 40 41 41 39 38 38 36 34 31 29 26 27 27 27 27 28 27 27 27 26
53 52 51 52 50 50 51 51 50 50 50 50 50 49 49 48 44 42 40 43 41 39 38 38 40 40 37 37 36 36 34 36 32 30 27 26 26 28 28 27 26 27 29
51 50 50 50 49 49 49 49 48 48 48 48 47 48 46 45 40 39 37 38 37 38 37 37 35 34 35 34 32 31 32 32 32 32 29 28 28 30 30 31 31 32 33
50 50 49 48 48 47 46 46 46 46 46 46 46 44 42 39 37 37 38 37 36 35 35 35 34 32 34 35 31 29 29 31 35 36 36 36 36 36 36 33 30 29 28
48 48 48 48 47 46 46 46 46 46 44 42 39 39 37 36 36 37 36 34 32 31 32 32 33 31 32 33 30 28 27 30 29 30 31 33 34 33 34 33 32 27 28
49 49 48 48 47 47 46 46 43 41 38 35 33 34 34 34 34 35 35 32 31 30 30 29 30 31 32 32 32 29 29 29 28 27 28 28 28 29 30 32 32 30 28
48 48 48 48 48 46 43 41 40 37 34 32 31 30 30 31 32 32 32 32 32 30 29 28 28 30 31 31 30 31 30 27 25 24 24 24 24 25 26 27 29 32 33
45 42 42 42 41 42 40 38 36 36 33 32 30 28 27 28 28 29 30 30 29 28 28 28 29 29 29 28 30 29 27 24 23 21 21 21 23 24 26 26 28 28 30
39 38 38 36 35 36 35 35 33 33 32 32 30 28 27 27 26 27 28 27 28 27 27 27 27 27 27 27 27 26 25 24 22 20 19 21 21 21 20 23 21 22 23
37 36 34 33 31 30 30 30 30 30 31 31 30 29 26 25 26 26 27 27 27 27 25 25 25 24 23 23 23 23 23 22 20 19 18 17 17 18 17 20 19 19 19
32 32 31 31 31 30 29 28 31 30 30 30 30 29 28 28 28 27 27 27 28 28 24 21 18 17 18 20 19 19 20 19 18 18 14 14 13 13 14 15 16 15 14
31 31 31 31 30 30 29 29 27 28 30 30 29 29 28 27 27 27 26 26 26 25 21 20 16 15 16 18 18 17 15 15 16 13 10 10 11 12 12 11 12 12 12
28 28 28 27 27 27 27 26 26 26 25 26 28 28 28 27 26 25 24 23 21 22 21 18 16 16 16 16 15 14 12 8 6 9 5 3 3 9 7 8 9 7 9
27 26 26 26 25 25 25 25 24 24 23 23 24 23 22 24 23 23 22 18 17 17 17 16 15 14 13 12 4 -0 -6 -6 -5 -7 -2 -2 -2 5 5 7 7 7 7
25 25 25 25 23 23 22 21 20 19 19 18 18 17 19 18 14 13 13 11 11 12 12 14 14 12 4 2 -5 -6 -8 -8 -3 -4 -2 -7 -8 -4 2 3 5 5 6
24 23 22 21 19 19 18 17 16 16 15 15 14 14 14 13 12 11 11 10 9 7 7 9 7 2 4 5 6 -2 -4 -8 -3 3 -0 1 -6 -4 2 5 5 5 5
20 19 18 17 16 14 15 14 12 11 11 12 12 12 10 6 6 7 5 -1 -3 6 8 7 5 7 7 5 4 -4 -2 -2 -4 -0 -2 -1 2 3 2 3 2 2 3
16 14 14 13 13 9 8 9 7 5 4 1 3 4 2 -5 -6 -1 -4 -9 -4 -6 -3 -1 -4 -0 2 -2 -5 -3 -4 -0 1 3 2 3 3 3 -3 1 1 1 1
12 11 11 8 5 5 1 -0 0 2 3 3 -1 2 0 -1 -4 -2 -8 -13 -12 -11 -12 -9 -5 -3 -2 -5 -7 -4 1 3 5 6 4 3 3 4 4 4 3 3 1
8 6 3 1 -0 -5 -5 -5 -7 -8 -6 -4 -3 -2 2 -2 0 -8 -8 -9 -7 -13 -8 -8 -8 -6 -6 -5 -5 -3 -2 3 2 1 3 3 3 0 1 3 3 2 0
5 3 0 -0 -4 -7 -9 -12 -11 -9 -7 -6 -5 -3 -4 -5 -4 -12 -8 -7 -8 -7 -7 -7 -6 -6 -6 -4 -2 1 -1 -1 -2 0 1 2 1 0 1 3 3 3 3

GFSGL_sfc_temp_090.txt.gz
Temp
57 56 56 56 56 56 56 57 57 57 58 57 58 57 55 53 52 52 51 51 51 50 51 50 50 50 48 48 47 46 45 43 41 42 42 42 41 41 43 43 43 42 43
59 60 58 57 57 57 57 58 58 58 58 58 57 56 56 54 52 52 52 52 50 50 50 50 50 49 48 48 46 44 44 43 40 39 40 38 38 40 40 39 43 44 43
59 59 59 58 58 57 58 59 59 59 58 57 57 57 57 55 54 53 54 53 51 52 51 50 49 47 46 44 44 44 42 43 39 37 36 35 36 37 37 38 38 39 41
58 58 57 58 58 59 59 59 59 58 59 57 56 56 56 55 54 53 52 52 51 51 50 49 49 48 47 44 43 42 40 38 36 33 32 34 34 36 34 34 34 35 36
58 57 58 58 58 56 57 57 57 58 58 58 57 56 54 54 53 52 51 51 49 48 47 46 45 44 43 42 41 38 37 35 34 32 31 31 31 32 33 33 32 32 33
58 57 58 57 56 55 56 56 57 57 56 57 54 53 52 52 46 44 48 49 48 45 42 40 40 39 38 37 37 37 37 35 33 32 31 31 32 32 32 31 30 28 28
56 54 52 53 53 54 54 54 54 54 53 52 52 52 52 51 43 43 42 46 45 41 38 37 38 38 37 36 36 36 35 36 33 33 30 30 30 31 31 30 29 29 30
51 51 51 51 51 51 51 51 50 49 49 48 47 47 45 42 39 39 39 39 37 37 37 36 34 34 35 35 34 34 33 33 34 33 32 31 31 32 31 32 31 32 34
50 50 50 50 49 48 48 46 47 46 46 44 44 42 40 37 37 37 37 36 34 33 34 34 34 33 34 34 32 30 30 32 35 35 35 35 36 36 35 33 30 29 28
48 48 49 48 47 46 46 46 46 44 42 40 37 37 36 35 36 36 36 34 31 30 30 30 30 30 32 32 30 30 28 30 30 30 31 31 32 32 32 32 31 28 29
48 48 48 48 46 46 44 43 41 37 35 33 31 32 32 33 34 34 34 32 31 30 28 28 30 30 30 31 31 30 29 29 28 28 28 28 29 28 29 29 29 27 25
46 44 44 44 44 43 40 39 37 35 32 31 30 29 30 30 32 32 31 30 30 28 27 28 28 29 30 30 29 30 29 27 26 25 24 24 24 25 25 26 27 28 29
42 40 40 40 40 40 38 37 35 34 32 31 30 28 27 28 28 30 29 28 28 27 27 27 27 28 28 28 29 28 26 25 23 21 21 21 23 23 25 24 25 26 26
38 36 35 34 34 34 35 34 33 33 32 31 29 27 26 27 27 27 27 26 27 27 26 26 26 27 27 26 26 25 24 23 21 20 19 21 21 21 19 21 19 20 18
32 31 31 32 32 30 30 30 30 30 31 30 29 29 26 25 25 27 27 26 26 26 25 25 25 24 23 23 23 22 22 21 19 19 19 17 17 17 16 18 17 16 14
31 31 31 31 31 30 29 28 31 31 31 30 30 28 28 28 28 28 28 28 27 26 24 22 20 19 19 20 19 19 19 18 18 18 16 15 13 12 13 15 14 12 11
30 30 30 30 29 28 28 28 25 28 31 30 30 29 28 28 28 27 26 26 25 25 21 21 17 16 17 19 18 17 16 16 16 14 12 10 10 10 11 10 11 10 9
27 26 26 26 25 25 24 24 25 24 23 24 26 26 26 26 25 25 25 23 20 21 19 16 16 16 16 16 15 14 14 10 8 9 8 6 3 8 7 8 8 6 7
25 24 24 23 22 22 22 21 21 21 19 19 19 20 20 23 22 21 20 14 14 14 15 15 15 14 13 12 8 3 1 2 0 -3 1 1 2 5 5 6 6 5 5
23 22 21 21 20 19 18 17 16 16 15 14 12 12 14 13 10 8 9 4 6 8 8 10 11 9 6 7 4 1 2 -0 1 1 1 2 1 2 3 3 4 4 6
21 20 19 18 17 16 14 13 12 11 11 11 9 8 7 6 3 2 3 1 2 3 2 5 7 7 7 7 7 2 0 -5 -2 1 4 4 0 0 3 4 5 6 5
17 17 15 13 12 10 10 10 7 7 6 6 6 8 2 -3 1 2 2 -3 -7 -2 1 0 -0 3 4 3 2 -2 -3 -4 -3 -1 -1 1 3 5 3 3 3 3 3
13 11 10 9 8 4 3 5 2 1 1 -2 1 2 1 -4 -3 -0 -4 -11 -6 -5 -4 -3 -6 -2 0 -2 -4 -3 -4 -2 0 2 2 3 4 4 3 1 2 1 3
9 7 7 3 2 -0 -5 -7 -4 -2 -1 -5 -8 -4 -2 -2 -10 -12 -13 -12 -8 -10 -10 -11 -7 -5 -3 -4 -5 -4 -0 1 3 4 3 2 3 3 3 3 3 3 3
4 2 -0 -4 -5 -10 -9 -8 -11 -15 -13 -13 -13 -13 -6 -11 -6 -11 -11 -10 -8 -11 -7 -8 -7 -5 -6 -6 -6 -5 -4 0 2 2 2 2 1 0 -0 1 1 3 3
2 -1 -4 -5 -9 -11 -15 -19 -20 -19 -18 -17 -16 -17 -16 -11 -8 -14 -11 -9 -7 -6 -7 -5 -6 -7 -7 -5 -3 0 1 1 0 1 1 1 -0 0 1 1 2 3 4

GFSGL_sfc_temp_093.txt.gz
Temp
61 61 61 61 61 62 62 62 63 64 65 64 65 65 64 64 62 60 59 59 54 54 53 53 52 54 51 50 49 48 50 52 51 52 58 57 46 47 50 52 55 55 56
62 62 61 61 60 61 61 62 63 63 64 64 64 65 64 62 58 55 54 55 53 53 52 51 51 52 50 50 51 49 53 51 48 47 51 43 43 47 52 52 53 55 55
62 61 62 60 60 59 61 62 63 63 64 64 64 63 62 59 56 58 57 56 54 54 54 52 52 52 50 50 51 52 51 45 45 44 42 41 42 47 48 50 49 50 50
63 62 62 62 62 62 62 62 62 63 64 64 64 63 62 61 59 58 57 55 54 55 56 54 53 52 50 50 49 47 45 41 39 39 37 39 43 47 47 47 45 48 48
62 62 62 63 63 63 63 63 63 64 64 64 63 61 60 59 57 56 55 55 55 53 52 52 51 50 47 48 46 42 40 37 35 35 35 37 41 39 41 46 44 46 46
62 61 63 62 62 62 62 62 63 63 63 62 60 58 58 56 48 45 49 52 53 51 48 42 42 41 40 38 38 37 39 36 34 35 36 35 35 37 41 41 40 38 37
62 62 62 62 62 62 62 62 62 62 61 58 57 56 54 52 44 43 41 47 45 41 39 39 38 37 36 35 35 35 34 34 33 36 35 34 35 38 39 38 38 37 38
61 58 58 58 56 56 57 57 54 51 50 48 47 46 42 39 38 39 38 40 38 37 37 36 35 34 34 33 33 32 32 32 34 34 35 37 38 38 38 38 38 37 39
53 53 53 53 51 50 49 48 48 46 43 42 41 39 37 36 36 37 37 35 33 32 33 33 33 32 32 33 31 30 30 31 34 34 34 34 34 34 35 35 33 33 32
48 48 49 49 48 47 46 44 42 40 38 37 35 35 35 35 35 35 35 33 31 30 30 30 30 30 30 31 31 31 30 31 31 31 32 32 31 33 31 33 32 29 31
48 48 47 46 44 44 42 41 39 36 34 33 31 32 33 33 34 34 34 32 31 30 29 28 28 29 29 30 31 31 31 31 30 31 30 31 31 30 31 31 30 28 27
45 43 43 43 43 42 39 38 37 35 32 31 30 29 30 31 32 32 32 31 31 29 28 28 29 29 29 30 31 29 28 27 28 28 28 27 26 26 27 28 28 28 29
41 39 38 39 39 39 37 36 34 34 31 30 29 28 27 28 28 30 30 29 28 29 29 28 27 27 28 29 28 27 26 28 27 25 24 24 25 25 25 25 27 27 28
38 37 36 36 35 36 35 35 33 33 31 31 29 27 27 27 28 29 29 30 29 29 28 29 27 27 28 28 28 27 27 26 24 24 23 24 24 22 21 23 22 23 22
37 36 35 33 32 31 31 31 31 30 31 31 31 32 30 29 29 30 30 30 30 28 29 29 28 28 27 27 27 26 26 25 22 22 21 20 20 21 21 22 22 22 20
35 34 33 33 33 32 31 30 31 31 31 31 31 31 30 29 29 29 28 28 28 27 28 26 25 25 24 25 24 24 23 22 22 21 21 20 19 18 19 20 21 19 18
32 32 31 31 31 31 32 31 27 27 28 28 28 28 28 27 27 27 27 26 26 27 24 22 21 21 21 22 21 21 19 20 19 19 18 17 17 17 16 16 17 17 16
28 28 29 29 29 29 29 28 28 26 24 23 23 24 25 24 24 23 23 24 22 22 21 19 18 19 19 18 18 17 16 17 16 16 15 15 14 14 13 14 14 13 14
27 26 26 25 25 25 25 24 24 22 21 20 21 20 19 21 20 19 19 17 16 16 17 16 16 15 15 15 14 13 13 12 12 11 12 12 12 12 12 12 12 11 11
24 22 23 23 22 22 22 21 20 19 18 17 16 16 18 18 15 14 14 13 13 13 13 13 13 13 12 12 12 12 11 11 10 11 10 11 11 11 10 10 11 11 12
23 21 20 20 19 19 18 17 17 17 16 15 13 11 9 14 12 12 11 10 9 10 9 10 10 10 10 10 10 9 8 8 8 8 9 10 9 9 11 11 11 11 11
20 18 17 16 16 15 15 15 14 13 12 12 12 11 8 11 11 10 9 7 8 9 9 8 8 8 8 8 7 6 5 5 6 7 7 7 9 9 10 10 10 10 10
16 15 14 13 13 11 11 12 11 10 9 8 9 9 9 7 7 7 6 6 6 6 6 6 5 5 7 6 6 6 4 4 6 6 6 7 8 8 8 8 9 8 9
14 13 11 10 9 9 8 7 7 5 6 6 6 6 5 5 5 4 3 4 3 4 4 3 3 3 3 3 5 6 6 6 6 7 7 6 6 7 8 8 8 7 8
10 9 7 7 6 6 5 5 4 4 4 3 3 2 3 3 3 2 2 1 1 1 1 1 2 1 1 -0 0 1 2 3 4 5 6 6 5 5 5 6 6 7 8
8 7 6 6 5 4 4 3 2 2 1 1 1 0 -0 -0 1 -0 -1 -0 -1 -1 -1 0 0 -1 -1 1 3 3 2 2 3 3 4 6 5 5 6 6 6 7 8

GFSGL_sfc_temp_096.txt.gz
Temp
70 69 68 68 69 69 69 70 70 70 71 70 70 70 70 71 71 70 70 70 68 68 68 65 63 62 59 56 55 54 51 50 49 54 57 65 63 61 63 59 62 58 55
69 70 69 69 69 68 68 69 70 70 70 70 70 70 71 72 72 71 68 68 65 65 60 58 56 56 55 54 52 51 51 51 50 48 53 49 59 51 50 54 53 56 57
70 69 69 68 68 68 67 67 69 69 69 70 70 69 70 70 70 70 67 62 60 61 61 58 56 55 53 53 52 51 52 52 50 49 50 50 47 44 43 47 47 51 57
71 70 68 68 68 68 68 68 68 68 68 69 69 70 69 70 71 70 66 63 65 65 62 56 56 55 53 53 52 51 50 49 49 45 42 38 39 40 41 41 41 45 49
71 70 69 69 69 69 68 67 68 68 68 69 70 70 70 70 69 68 64 61 58 57 56 54 55 53 47 48 51 50 48 43 39 39 36 35 36 35 36 39 38 42 43
71 70 71 70 70 69 68 68 68 69 70 70 70 69 67 62 49 46 50 56 53 51 51 43 42 41 38 37 37 35 38 38 35 35 34 34 33 33 34 35 36 36 35
70 71 70 70 69 69 69 68 67 65 65 63 61 58 48 43 39 43 41 46 43 40 39 39 37 37 37 36 34 34 34 34 32 36 34 33 33 34 36 36 36 36 36
70 70 70 69 68 69 68 66 60 53 50 47 44 42 39 38 37 38 38 38 36 35 35 35 34 33 34 34 34 32 32 32 33 34 34 34 35 38 38 37 36 36 39
61 62 63 63 58 53 49 49 47 43 40 38 38 38 36 35 36 36 37 34 32 31 33 33 32 31 32 34 32 31 31 32 33 33 33 32 32 32 32 35 34 34 34
50 49 50 49 47 45 43 40 40 38 36 36 34 35 35 35 35 36 36 34 31 31 31 31 31 31 31 31 31 31 30 32 33 33 33 32 31 35 31 33 33 29 30
47 46 45 44 42 41 39 38 37 34 33 32 31 32 33 34 34 34 35 33 32 31 30 29 30 29 30 30 30 32 31 32 31 33 34 33 32 33 33 33 32 29 28
44 42 41 41 41 40 38 37 36 34 32 31 31 30 31 32 32 32 32 32 32 31 30 31 31 29 30 31 32 29 28 29 32 31 30 29 30 30 30 30 29 29 30
42 41 40 40 39 40 38 36 35 35 32 31 30 29 28 30 30 31 31 30 30 32 33 30 29 29 30 30 29 27 27 32 30 28 28 28 29 29 29 28 29 29 28
41 41 41 39 38 38 37 35 34 34 32 32 30 29 30 32 33 34 34 34 33 34 32 33 31 30 29 30 30 31 31 30 28 27 28 29 29 28 27 28 26 27 27
41 40 39 37 35 32 32 33 32 31 33 33 32 32 31 28 28 29 30 30 31 31 32 33 32 31 30 31 31 30 30 29 27 26 25 25 25 25 25 26 25 25 23
39 39 38 38 37 35 32 29 30 30 30 30 30 31 29 28 29 29 28 27 28 29 30 27 26 26 26 26 25 24 26 24 23 23 22 22 21 20 21 22 23 21 20
35 35 37 36 36 34 33 31 26 27 27 27 27 27 26 25 25 25 26 27 26 28 25 24 23 22 22 23 23 22 20 21 21 21 19 19 18 18 17 18 18 19 18
34 33 35 34 34 33 32 31 31 28 25 24 23 24 23 23 22 22 23 26 25 24 24 22 20 20 20 20 20 18 18 18 17 17 16 16 16 15 15 15 16 15 15
32 31 31 31 31 31 31 30 29 28 26 26 26 24 23 22 21 20 21 21 20 20 20 20 20 19 18 18 17 16 15 15 14 14 14 14 14 14 14 14 14 13 14
29 28 29 29 29 28 28 27 26 25 24 22 20 19 22 23 20 19 19 17 17 18 17 17 17 17 16 16 15 14 14 14 14 13 13 13 13 13 12 13 13 13 14
27 26 25 27 25 25 25 24 23 22 22 21 17 14 13 19 18 17 17 15 15 15 15 15 15 15 15 14 14 13 12 12 12 12 12 12 12 11 13 13 13 14 14
26 25 24 23 23 22 21 22 21 20 19 18 18 16 13 17 16 16 15 14 14 14 15 14 13 14 14 12 12 11 10 10 11 11 11 10 11 12 12 12 12 13 13
23 22 21 20 19 18 19 19 18 17 16 16 16 15 15 14 13 13 12 12 12 12 13 11 11 10 12 11 11 11 9 10 10 10 9 9 10 11 11 11 11 11 12
21 20 18 17 17 17 16 15 14 12 14 14 14 13 12 12 12 11 10 10 9 10 10 9 9 8 8 8 10 11 11 11 10 9 9 9 9 10 11 11 11 11 11
18 16 16 15 15 14 14 14 13 13 13 12 12 11 11 11 11 10 9 8 7 7 7 7 8 8 7 6 6 7 8 7 7 7 8 9 9 9 9 10 11 11 12
16 15 14 14 14 13 13 12 11 11 10 10 10 10 9 9 9 8 7 7 5 5 6 7 7 7 6 8 9 8 5 4 5 5 6 8 8 9 11 10 10 11 11

GFSGL_sfc_temp_099.txt.gz
Temp
71 69 68 70 71 71 71 71 71 72 72 72 71 71 71 71 71 71 70 70 69 69 70 69 69 70 67 65 60 58 57 55 51 56 57 56 53 51 54 54 55 58 58
73 71 70 70 70 70 70 71 72 72 72 72 72 72 72 72 72 71 70 71 70 69 69 69 68 65 59 59 61 57 55 55 51 50 54 53 53 53 55 54 56 60 60
75 73 72 70 70 70 70 71 71 71 71 72 72 71 71 71 72 72 72 71 71 70 70 68 65 59 58 59 58 54 54 53 52 49 50 52 52 46 49 46 48 48 52
73 73 72 71 71 72 72 72 71 72 71 71 72 72 72 72 73 73 73 72 70 70 66 63 62 60 57 55 55 53 52 51 50 48 48 42 39 39 40 39 39 42 42
73 72 72 72 72 72 71 71 71 70 71 72 71 71 71 72 72 71 70 66 64 62 61 53 42 41 39 39 45 48 48 48 46 43 36 36 36 35 36 38 36 36 40
73 72 73 72 72 71 71 70 70 70 71 70 70 70 68 55 39 41 48 53 47 45 43 39 39 38 36 36 35 35 34 37 37 36 34 34 33 34 34 34 33 33 33
75 75 74 73 72 71 71 70 69 67 66 53 48 45 41 41 39 39 39 40 38 37 36 36 35 36 36 37 34 34 33 34 31 34 32 32 32 33 34 34 34 34 35
74 75 75 73 73 72 69 57 49 46 43 41 39 38 37 37 36 36 36 35 34 33 33 34 34 33 34 35 35 33 32 32 33 33 33 34 34 35 35 35 34 34 35
73 73 73 73 61 53 47 43 41 39 37 36 37 36 35 35 35 35 35 33 32 31 33 33 33 32 32 34 34 33 33 32 33 33 33 32 32 32 33 33 32 31 31
52 50 50 49 46 42 40 37 37 36 35 35 34 35 35 34 35 36 36 34 32 31 32 32 31 31 31 32 32 32 32 32 34 34 35 35 33 35 31 32 31 28 28
45 44 43 42 40 39 37 36 35 33 33 31 31 32 33 33 33 34 35 34 34 33 33 32 31 31 31 32 32 32 30 33 33 34 34 34 34 34 34 34 32 29 27
42 41 40 40 40 38 36 36 35 33 31 30 30 30 31 32 33 33 33 33 34 33 32 33 33 31 32 31 32 30 30 31 33 32 32 32 31 31 31 32 31 30 30
40 39 39 40 39 39 37 36 35 35 33 31 31 31 31 33 33 33 33 33 32 34 34 31 33 34 34 31 29 29 31 31 30 28 28 29 30 31 31 31 31 31 31
39 39 39 38 37 37 36 37 37 36 34 33 32 30 30 31 31 33 33 34 34 34 33 35 33 32 31 31 33 32 31 30 28 27 26 28 29 28 27 28 26 27 25
39 39 37 36 33 32 33 33 30 30 34 31 30 30 28 26 27 29 28 29 30 30 33 33 31 30 30 30 30 29 29 28 25 25 24 24 24 24 23 25 24 24 21
41 39 36 35 33 31 29 28 30 29 29 29 29 28 27 27 27 28 28 27 27 30 30 28 26 25 24 25 25 25 26 24 23 22 22 21 20 19 19 20 21 20 18
37 37 36 35 34 31 31 28 23 25 27 27 26 26 25 24 24 25 27 28 27 28 26 25 23 22 22 23 23 22 20 21 21 19 19 18 18 17 17 17 17 18 17
33 33 35 35 35 34 33 32 31 28 24 23 24 24 24 23 23 24 25 28 26 25 24 22 21 21 21 21 20 19 18 18 18 17 16 16 16 15 14 14 15 15 15
31 32 32 32 32 32 33 32 31 30 27 27 27 26 25 25 24 23 23 22 21 21 21 21 21 20 19 19 17 17 16 16 15 15 15 15 14 14 13 14 14 14 13
32 31 31 31 31 30 30 29 27 26 24 22 20 20 24 25 22 21 20 19 19 19 19 19 19 18 17 17 16 16 15 14 14 14 13 13 13 13 12 13 13 13 13
31 30 29 30 29 28 27 26 26 25 23 20 16 16 16 21 20 20 19 17 17 17 16 17 16 16 16 16 15 14 13 12 13 13 12 12 12 11 13 13 13 14 14
29 27 26 25 25 24 23 24 23 23 22 21 20 17 17 20 19 18 18 16 15 16 16 15 14 15 15 13 13 12 11 11 12 12 11 11 11 12 12 12 12 13 13
25 24 23 23 22 22 22 22 21 21 20 19 20 19 18 17 17 16 15 14 14 14 14 13 12 12 13 13 12 12 10 11 11 11 9 9 10 11 11 10 11 11 11
24 23 22 21 21 21 19 17 16 16 18 18 18 17 16 15 15 14 14 13 12 12 12 11 11 11 11 10 12 12 12 12 11 10 9 8 8 9 10 10 10 11 11
22 21 20 20 19 18 18 18 18 17 17 16 16 15 15 15 14 13 13 12 11 10 10 11 12 11 11 10 10 11 12 9 8 7 7 8 7 8 9 10 11 11 12
21 20 19 19 18 18 18 17 16 16 15 14 14 14 13 13 13 12 12 11 8 7 10 11 11 11 10 11 12 12 8 7 8 8 8 8 8 9 10 10 10 10 10

GFSGL_sfc_temp_102.txt.gz
Temp
66 65 64 64 65 64 63 63 64 65 65 64 63 63 64 64 64 62 62 62 62 62 62 61 61 62 60 61 60 60 58 56 53 57 59 58 56 54 56 55 54 54 54
67 66 66 65 65 65 64 64 65 65 65 65 65 65 65 65 64 63 62 64 62 61 61 61 61 62 60 60 60 58 57 57 55 53 56 55 53 53 53 52 52 55 54
69 66 65 65 66 64 64 65 66 65 65 66 66 65 65 65 65 64 64 63 63 63 62 61 61 59 58 56 56 56 57 56 54 52 52 54 50 45 46 46 45 46 49
69 67 65 65 65 66 65 65 65 66 65 65 65 65 65 65 66 66 66 64 64 63 60 48 43 41 41 42 48 47 49 50 51 50 49 47 40 40 40 39 40 41 42
70 68 67 66 67 67 66 66 66 66 66 66 66 66 66 66 59 52 59 60 52 46 42 41 39 38 37 37 38 36 39 41 42 40 38 36 35 35 35 37 37 35 37
69 68 69 68 68 66 66 66 65 65 66 65 63 54 48 45 39 41 47 44 43 41 38 37 37 38 36 36 35 35 34 35 34 34 33 33 32 32 33 32 32 32 32
69 70 69 69 68 66 67 66 64 59 50 45 42 41 38 38 37 38 39 38 36 36 35 35 35 36 36 36 35 35 34 34 31 33 31 31 31 32 33 32 32 32 32
69 71 71 69 68 68 61 47 44 42 39 38 37 37 36 35 36 36 35 35 33 33 33 33 32 32 33 35 35 33 31 32 32 33 31 31 32 33 32 32 31 32 32
70 70 70 69 52 47 42 40 39 37 36 35 35 35 34 34 35 35 35 33 31 30 31 32 32 31 33 35 33 31 31 32 34 34 34 33 33 33 33 30 29 27 26
51 50 48 46 43 39 38 37 36 35 34 34 33 33 34 33 35 35 35 33 31 31 31 31 32 31 33 33 31 29 27 27 31 31 33 34 35 35 32 30 28 25 25
44 43 41 40 38 38 37 35 34 33 32 31 31 31 31 32 33 35 35 34 33 32 31 30 31 32 32 33 32 28 28 29 31 30 30 30 31 30 29 29 28 25 22
41 39 39 38 38 37 34 33 33 32 31 30 29 30 31 32 33 34 34 34 34 30 29 30 30 34 32 31 30 31 32 30 28 27 26 25 25 25 26 27 27 27 26
39 39 37 37 37 36 34 33 32 32 31 31 30 29 29 31 32 33 34 33 33 30 30 32 33 33 33 30 31 31 28 25 24 21 21 21 23 24 26 25 26 26 26
36 35 35 33 33 33 35 35 34 33 31 30 28 26 26 26 26 28 28 29 31 31 31 30 29 29 28 28 28 27 26 24 21 19 18 20 22 21 20 22 19 20 18
33 32 31 30 29 28 28 28 28 29 29 27 26 26 24 22 25 27 27 26 26 28 27 26 24 23 22 23 22 23 22 21 17 17 17 17 17 18 17 19 18 17 14
33 32 30 29 28 27 26 24 28 28 28 28 27 25 25 27 28 29 29 29 30 30 24 19 17 16 17 18 17 17 18 17 17 17 15 15 14 14 14 15 16 14 13
32 31 30 29 27 25 24 22 20 24 27 26 26 26 26 26 27 28 29 28 28 26 19 17 14 13 14 16 15 15 13 15 17 15 13 13 13 13 12 12 13 13 12
32 31 31 29 28 26 25 25 24 21 18 19 25 24 26 25 25 26 27 26 19 21 19 15 13 13 14 15 14 14 13 13 12 13 11 11 10 10 10 10 11 9 10
30 29 30 30 30 30 29 27 26 24 22 21 23 23 24 26 24 23 23 17 15 15 16 16 14 13 13 14 9 9 8 8 7 6 8 8 8 10 8 9 10 10 10
28 29 30 29 28 27 26 24 23 20 17 15 15 16 19 20 16 15 15 13 13 13 13 13 13 13 10 10 7 5 7 6 8 8 6 7 7 8 7 8 8 9 10
27 28 27 27 26 25 24 22 22 19 15 13 13 12 14 17 15 14 13 11 11 11 10 11 10 8 9 8 9 7 6 3 7 7 8 7 6 6 8 9 9 9 10
25 25 24 22 23 22 22 21 20 19 18 16 15 15 14 14 14 12 12 10 9 10 11 9 9 9 9 8 7 2 5 4 6 7 6 5 6 6 7 7 6 8 9
23 22 21 21 21 20 19 19 18 17 16 16 15 14 13 12 11 11 10 7 9 8 7 8 4 5 8 3 4 8 6 6 7 7 5 4 4 4 4 5 6 5 6
22 21 20 19 18 16 15 13 14 14 15 14 13 12 11 10 9 8 6 5 6 5 4 3 5 7 5 3 5 6 9 8 7 5 4 3 2 4 4 4 4 6 7
20 19 18 17 17 16 15 15 15 14 13 13 12 11 11 9 10 7 7 6 5 1 2 4 5 5 5 3 4 8 8 5 5 4 4 4 3 2 3 4 5 7 5
19 18 17 17 16 15 15 13 12 12 11 10 11 9 9 9 8 4 6 6 1 1 4 4 5 4 4 7 8 10 4 6 6 6 5 5 4 4 4 4 3 4 6

GFSGL_sfc_temp_105.txt.gz
Temp
60 59 59 59 60 60 61 60 60 60 61 60 61 61 61 60 61 61 61 61 59 59 58 58 58 59 58 57 57 58 57 56 54 58 58 60 54 54 55 56 56 56 55
63 62 59 60 60 59 59 60 61 61 61 61 62 61 61 62 61 60 58 61 59 58 58 58 58 59 57 58 57 57 57 57 56 55 58 57 53 53 53 54 54 55 55
63 63 62 61 60 59 59 60 60 61 61 62 61 61 61 61 61 60 60 60 59 59 59 57 53 51 53 49 51 52 52 53 53 51 49 51 49 44 45 45 44 45 48
62 61 62 60 60 61 60 60 60 61 61 61 62 61 61 62 62 62 62 61 60 51 47 44 42 41 41 43 43 41 43 44 45 44 44 40 39 40 40 38 39 41 41
62 61 60 60 59 60 59 59 61 61 61 62 60 62 62 60 54 55 58 54 47 42 40 40 39 39 38 37 39 36 38 38 37 37 34 35 34 34 33 35 34 35 37
63 62 62 61 62 60 60 59 58 59 61 57 48 48 44 43 39 42 45 43 41 39 37 37 37 37 36 35 34 34 34 34 32 33 31 31 31 32 33 33 33 32 31
63 64 63 62 62 61 61 61 60 50 45 42 40 39 37 37 38 38 38 38 36 36 35 34 34 34 34 34 33 34 34 33 31 32 30 29 29 30 30 30 29 29 29
63 64 64 63 63 61 54 46 43 41 39 37 36 36 35 35 36 36 36 35 33 33 32 32 31 31 33 32 33 32 32 32 32 32 30 29 29 32 29 29 28 28 29
63 63 64 64 48 45 41 39 38 37 35 35 35 34 34 34 35 35 34 32 31 30 31 31 31 31 32 35 31 29 28 29 34 36 36 35 34 32 31 27 23 21 20
45 45 46 45 42 39 37 36 35 35 33 34 33 34 34 34 35 35 34 33 30 29 30 31 33 32 33 32 28 27 25 26 28 28 29 30 31 30 30 27 24 20 20
43 43 41 40 38 37 36 35 34 32 31 31 30 31 31 33 33 35 35 33 31 30 30 30 31 33 32 32 31 28 27 27 27 26 25 24 24 24 25 25 24 21 19
41 40 39 38 38 36 34 34 33 32 30 29 29 29 30 31 33 34 34 33 33 30 29 28 30 32 32 30 28 29 27 25 22 21 20 20 20 20 22 22 23 23 23
39 38 37 37 36 35 33 33 32 32 31 29 29 27 27 28 28 31 33 32 32 29 29 31 31 31 29 27 27 26 23 20 17 15 15 16 18 20 21 21 22 22 22
35 34 34 34 33 34 34 33 31 30 28 27 26 23 23 24 25 26 27 27 31 28 27 25 25 25 23 23 22 22 20 18 16 15 14 15 18 17 16 18 16 17 15
32 31 30 29 28 27 27 27 26 27 27 25 24 24 22 22 24 27 28 27 26 25 22 22 20 20 18 18 18 18 17 17 14 14 13 13 14 14 14 16 15 14 11
29 28 27 26 26 25 24 24 27 26 26 26 26 25 26 28 29 30 30 29 27 25 20 15 12 12 13 14 12 12 14 13 14 14 11 12 11 11 11 12 13 11 9
28 27 26 25 24 23 22 21 19 23 26 26 26 27 28 29 29 28 28 26 25 22 15 13 10 6 9 12 12 11 10 12 13 11 10 9 9 10 9 9 10 9 9
28 27 25 24 22 21 20 20 20 19 18 20 25 25 26 26 26 26 25 22 17 18 15 11 9 8 11 11 11 10 9 8 7 8 5 4 2 7 6 6 8 6 7
29 28 28 27 26 25 23 22 21 20 19 19 20 22 23 24 23 22 20 13 11 11 12 12 10 9 9 9 2 1 -6 -2 -4 -5 0 2 -3 4 4 6 7 6 7
26 26 25 25 24 23 22 19 17 16 15 15 14 15 17 16 11 10 10 7 8 9 9 9 9 7 4 4 -2 -4 -2 -5 -0 2 -6 -9 -8 2 3 4 5 5 6
25 25 25 25 23 22 20 17 15 14 14 14 13 15 15 13 10 8 8 6 5 6 1 5 4 2 4 0 4 -2 -3 -10 -2 -2 -4 2 -4 1 4 5 4 4 6
24 23 22 21 21 20 19 18 16 15 14 13 12 13 11 9 9 7 5 -1 -5 1 2 0 1 2 5 1 -1 -7 -6 -10 -8 -4 -0 -0 2 2 1 0 1 3 3
21 20 20 19 18 18 16 16 14 13 12 11 11 10 9 5 3 3 -0 -5 1 -1 -2 -2 -6 0 -0 -5 -4 -2 -5 0 2 -0 -1 -1 -0 -0 -1 1 1 -0 1
19 18 16 15 14 13 12 11 11 10 10 8 4 3 4 2 -4 -3 -7 -6 -3 -6 -7 -6 2 3 -0 -4 -5 -1 6 3 0 -1 -3 1 0 1 1 1 1 1 3
17 16 15 14 13 13 12 11 9 7 7 5 2 1 4 2 0 -7 -2 -4 -7 -10 -4 1 -3 -2 -3 -2 0 4 1 1 2 4 3 3 1 1 1 1 1 2 0
17 16 15 14 12 11 9 6 4 5 4 2 -2 -6 -0 -4 -4 -4 -2 -7 -8 -8 -7 -6 -3 -2 1 0 2 5 3 3 -1 -1 -1 2 2 2 3 2 2 2 2

GFSGL_sfc_temp_108.txt.gz
Temp
61 59 58 57 58 58 59 59 58 59 58 58 58 57 58 58 58 58 58 59 58 59 59 59 59 59 58 58 57 57 56 55 53 57 59 60 52 54 54 54 54 55 54
61 60 59 57 58 59 59 59 58 58 59 59 59 57 58 59 58 59 59 60 58 58 58 57 57 58 57 58 55 54 55 56 55 54 57 55 52 50 47 47 47 50 49
59 59 59 57 56 57 58 58 58 58 58 59 59 59 59 59 59 59 59 59 57 58 58 56 54 51 52 47 48 47 47 49 48 47 47 44 43 41 40 43 43 44 45
60 60 57 56 56 57 57 58 58 58 58 58 59 60 60 59 60 59 58 56 56 50 45 42 41 40 40 42 41 40 42 43 42 41 40 38 37 39 37 34 35 36 37
60 61 59 58 57 57 56 57 57 58 59 59 58 59 59 60 58 58 58 56 45 40 40 39 38 38 38 37 37 36 38 37 37 35 33 33 32 31 31 33 32 32 33
59 59 60 59 59 57 57 56 56 56 57 54 51 47 43 43 39 42 45 43 41 38 36 35 36 36 35 34 34 34 33 33 32 32 30 30 29 29 30 29 29 27 27
59 60 59 59 58 57 57 57 54 47 45 42 40 39 37 38 38 39 38 38 36 35 34 34 34 34 34 34 33 33 33 33 31 31 28 28 28 28 29 27 26 25 23
60 60 60 59 59 58 53 46 43 41 39 37 36 36 35 35 36 36 35 34 33 32 32 32 32 32 32 32 31 30 31 32 32 31 30 29 28 28 26 25 22 22 24
59 60 60 60 50 45 42 39 38 37 36 35 35 34 33 33 35 35 34 32 31 31 31 30 30 29 31 33 30 28 28 28 33 33 32 31 31 30 28 22 20 18 17
47 47 50 47 44 40 38 37 36 36 34 34 33 34 34 33 34 34 33 32 30 30 30 30 31 30 31 30 28 26 23 24 25 24 24 25 26 25 26 22 19 15 15
44 44 43 42 39 38 36 35 34 33 32 32 31 32 33 33 34 34 34 32 30 29 29 28 30 30 30 30 28 25 23 24 23 22 22 21 21 21 21 21 20 16 13
42 40 38 38 38 36 34 33 33 32 30 29 29 29 31 31 32 33 32 32 32 30 28 28 28 29 29 27 25 25 24 21 20 18 17 16 16 17 19 19 21 20 20
38 37 36 36 35 34 33 33 31 31 30 29 27 26 25 27 30 31 31 30 29 27 28 28 28 27 26 24 24 23 20 17 15 13 12 13 15 17 19 19 20 20 20
35 35 35 34 34 33 33 32 30 29 27 26 25 23 24 24 25 27 28 27 27 26 25 24 23 23 21 20 20 20 18 17 14 12 11 13 15 15 14 15 13 14 12
32 31 30 29 28 27 27 27 27 27 27 24 23 24 22 22 25 27 26 24 23 23 21 20 19 18 16 16 16 16 16 15 12 12 11 11 11 12 11 13 13 12 8
28 27 26 26 25 25 24 24 28 27 28 28 27 25 26 28 29 28 27 26 24 22 17 14 12 12 12 12 11 11 12 11 11 12 9 9 8 8 8 10 10 8 7
26 26 25 25 24 23 23 22 21 25 27 28 28 27 27 27 27 26 25 24 22 20 13 11 9 8 10 12 11 10 7 9 11 9 7 6 6 7 6 6 7 7 6
25 24 23 22 21 21 21 20 20 20 19 20 26 26 26 26 25 25 23 21 15 15 13 10 9 9 10 9 9 7 6 4 3 5 2 -1 -3 3 3 4 5 4 5
24 23 23 22 21 21 21 21 21 20 19 18 18 20 21 23 22 20 19 13 12 12 12 10 9 8 6 5 -6 -8 -11 -8 -9 -11 -5 -3 -10 -0 1 2 3 3 3
25 25 24 23 22 20 20 18 18 17 17 16 14 13 14 13 9 8 8 8 8 8 8 7 7 4 -0 -2 -10 -13 -8 -10 -6 -3 -10 -13 -11 -5 -0 0 1 0 1
24 23 22 21 20 18 17 16 16 16 15 14 13 13 13 10 8 7 6 3 3 2 -2 3 0 -0 -0 -5 -0 -8 -9 -16 -7 -4 -5 -4 -12 -6 -0 -0 -1 0 2
23 22 21 19 18 16 16 16 15 14 13 12 11 10 9 7 6 4 3 -3 -8 -2 -1 -1 0 1 -1 -1 -3 -12 -10 -13 -10 -5 -7 -6 -3 -2 -2 -2 -2 -1 -1
21 20 19 18 18 17 15 15 12 11 10 10 9 8 6 4 2 2 -2 -10 -3 -8 -7 -6 -7 -3 -4 -8 -8 -5 -4 -3 -1 -5 -7 -7 -1 -1 -3 -3 -1 -1 -1
18 17 16 15 15 14 12 10 9 8 8 5 4 3 3 -0 -3 -5 -9 -12 -11 -14 -14 -9 -2 -3 -3 -9 -9 -6 2 -1 -1 -5 -7 -6 -1 -0 -1 -1 -1 -1 -1
17 15 15 14 13 11 10 9 7 5 4 2 3 4 2 0 -0 -6 -10 -12 -11 -13 -9 -10 -11 -7 -7 -6 -4 -1 -1 -1 -5 -4 -5 -7 -5 -4 -2 -1 -1 0 0
16 14 13 12 10 9 8 6 4 3 2 1 0 -3 -4 -3 -4 -11 -12 -12 -11 -11 -10 -10 -7 -6 -5 -3 -0 4 -1 -4 -6 -5 -7 -3 -2 -2 -1 -0 -0 1 1

GFSGL_sfc_temp_111.txt.gz
Temp
59 59 57 58 57 57 57 59 59 59 59 59 59 59 58 58 59 58 58 57 56 56 56 56 57 58 57 57 56 56 55 55 52 57 55 55 51 50 48 49 49 48 48
58 59 57 57 58 57 57 57 58 58 58 58 58 58 58 58 57 57 57 57 56 55 56 56 56 57 56 56 55 55 54 54 54 53 54 46 42 44 44 42 44 45 44
58 59 58 58 58 57 57 57 57 58 58 58 58 57 57 57 57 57 57 58 57 57 56 55 51 50 50 48 48 47 47 48 47 47 44 42 40 38 39 39 39 39 41
57 60 58 57 57 57 57 57 55 57 57 58 58 58 58 58 58 58 58 56 53 47 44 42 41 41 42 43 41 41 43 42 41 40 38 35 34 35 35 32 33 34 34
56 57 58 58 57 56 56 56 57 56 56 57 57 57 57 57 56 55 55 52 44 40 39 38 38 38 37 37 37 36 37 37 36 34 33 32 30 30 28 30 29 30 32
56 57 58 57 55 55 55 55 56 57 55 55 52 50 47 45 40 44 47 44 41 38 35 35 36 36 35 35 35 34 33 33 31 30 29 28 27 28 29 27 26 24 23
57 56 58 56 55 54 55 54 54 49 47 43 42 41 39 39 39 40 39 39 37 35 35 34 34 34 34 33 33 33 32 33 31 30 26 25 23 23 25 23 21 21 21
57 57 57 56 55 55 53 47 43 42 40 38 37 37 36 36 37 37 35 34 33 33 33 33 32 32 32 31 30 29 30 29 29 29 26 26 25 24 23 23 21 20 22
57 57 58 57 51 47 43 40 39 38 36 35 35 34 34 34 35 35 34 32 30 29 30 31 31 31 32 32 28 27 26 27 30 30 29 28 28 27 25 19 16 14 13
56 56 54 49 46 41 39 38 37 36 34 34 33 33 34 32 35 35 34 31 29 28 30 30 31 29 30 29 27 25 22 22 23 23 22 23 23 23 23 21 17 12 12
44 46 46 45 43 40 37 37 35 34 33 32 32 32 32 33 33 34 34 31 29 29 28 27 28 28 28 27 26 24 22 23 22 21 20 19 20 19 19 19 19 15 12
40 39 39 38 38 37 35 34 34 33 31 30 29 29 31 31 33 33 33 32 31 28 26 26 26 26 26 25 24 24 23 20 19 17 16 15 15 15 17 18 19 19 19
37 35 34 34 34 35 34 32 31 31 30 29 29 28 28 29 30 31 31 30 29 26 26 26 26 25 24 22 22 21 19 17 14 12 12 12 14 16 17 17 18 18 17
35 34 33 32 31 31 31 31 30 28 27 27 26 25 26 26 26 26 26 26 27 24 23 22 21 20 19 19 19 18 17 16 14 11 11 12 14 13 12 13 11 12 10
30 29 28 28 27 27 27 27 26 27 27 25 26 26 25 24 25 25 24 23 22 21 20 19 17 17 16 15 15 15 15 14 11 10 10 10 10 10 9 11 10 10 7
28 27 26 26 27 26 26 25 29 28 29 29 29 28 27 28 28 27 26 25 24 22 17 14 12 12 12 12 10 10 11 11 10 10 7 7 5 5 6 7 8 6 5
25 26 25 25 25 25 25 24 22 26 29 29 29 28 28 28 27 26 25 24 22 19 13 11 10 10 10 10 10 9 7 8 9 7 4 3 3 4 3 4 5 5 4
25 25 24 24 23 23 24 23 23 22 21 22 26 26 26 26 25 24 23 20 15 15 13 10 8 8 9 8 8 6 5 3 2 4 -0 -3 -7 0 0 1 2 1 1
23 22 22 21 21 21 21 21 21 20 19 19 19 20 23 24 23 21 19 14 12 11 11 9 8 8 6 5 -2 -4 -10 -8 -9 -11 -8 -7 -12 -3 -2 0 0 -0 -1
22 22 22 21 21 20 20 19 18 17 16 14 13 12 13 12 8 8 9 8 9 9 9 8 7 4 2 0 -8 -11 -9 -11 -9 -7 -12 -16 -14 -10 -4 -2 -2 -3 -1
22 21 20 20 19 19 18 17 17 16 14 13 11 12 12 9 7 6 6 4 5 4 0 4 2 1 0 -3 1 -8 -10 -19 -11 -9 -7 -5 -13 -9 -2 -2 -2 -2 -0
21 19 19 18 18 17 16 16 15 14 13 11 9 9 8 6 5 4 3 -2 -5 0 1 1 1 1 -1 -1 -3 -14 -12 -14 -14 -8 -8 -8 -5 -3 -4 -4 -4 -4 -1
20 18 17 17 16 15 14 14 12 11 10 9 8 7 5 3 3 2 -1 -6 -2 -7 -5 -6 -7 -4 -6 -11 -10 -6 -8 -6 -3 -6 -10 -10 -4 -3 -8 -6 -3 -3 -2
18 17 16 15 14 13 11 10 9 8 7 6 5 3 2 -1 -5 -6 -9 -12 -9 -10 -13 -11 -5 -5 -5 -11 -12 -9 0 -4 -4 -7 -11 -12 -7 -4 -5 -4 -3 -3 -2
16 15 14 13 12 10 10 8 7 6 5 4 3 2 -0 -2 -2 -6 -13 -13 -12 -15 -11 -13 -13 -9 -9 -9 -8 -4 -6 -6 -10 -9 -12 -11 -10 -9 -8 -4 -3 -2 -2
14 13 12 10 9 8 7 5 4 4 2 2 0 -4 -2 -1 -5 -12 -13 -12 -12 -12 -11 -12 -11 -10 -10 -6 -3 -2 -8 -9 -11 -10 -13 -7 -8 -7 -6 -5 -4 -3 -1

GFSGL_sfc_temp_114.txt.gz
Temp
59 60 58 58 58 58 58 59 59 59 60 60 60 60 60 60 60 59 59 59 58 57 57 57 56 57 56 56 55 55 55 55 52 55 55 49 45 45 44 46 45 44 43
57 59 58 58 58 57 57 58 58 58 59 59 59 59 59 59 59 59 58 58 57 56 56 56 55 56 55 56 55 55 55 55 54 53 48 43 39 42 40 40 41 42 43
55 59 57 57 57 57 57 57 57 57 57 58 58 58 58 58 59 59 58 57 57 57 56 55 55 54 54 51 50 50 48 48 46 47 40 39 37 36 37 37 36 36 41
56 58 57 57 57 57 57 57 57 57 57 57 58 57 57 57 57 57 57 56 52 48 45 44 44 46 46 45 43 43 43 41 41 40 36 34 34 34 33 30 31 33 33
55 57 57 57 57 57 56 56 56 57 57 57 57 57 57 57 56 56 55 48 42 39 39 38 38 39 39 39 39 39 39 37 36 34 32 31 29 29 27 28 28 29 30
55 56 58 56 56 56 55 56 56 56 56 56 53 52 49 47 43 45 47 43 41 38 35 35 36 36 35 35 35 34 35 34 31 31 29 25 24 25 26 24 24 23 22
56 58 57 56 55 55 55 55 54 50 48 45 44 45 42 42 41 41 40 40 38 36 34 34 34 34 34 33 33 32 31 31 30 28 24 24 21 22 24 22 21 21 22
55 57 57 56 55 55 54 47 44 43 41 39 38 38 37 37 38 38 37 36 35 34 34 33 32 31 32 31 29 27 26 27 27 28 25 24 24 23 23 22 20 20 23
55 55 55 56 53 49 45 42 40 39 37 35 35 35 34 34 35 35 34 32 31 31 32 32 32 30 32 33 28 25 25 26 29 29 28 28 27 26 24 20 17 15 14
55 55 55 52 49 45 41 39 37 36 34 34 33 34 34 33 35 34 34 32 30 29 29 29 30 29 30 29 26 24 21 22 23 22 23 23 24 23 23 21 18 13 13
46 47 48 47 44 41 38 37 35 34 33 32 31 32 32 33 33 34 34 32 29 28 26 26 26 28 28 27 26 23 21 22 20 20 20 19 20 20 19 20 20 17 13
41 39 38 39 39 38 36 35 34 33 31 30 30 30 31 32 33 33 32 31 30 26 24 24 25 26 26 24 23 22 21 19 19 17 16 15 15 16 17 18 19 19 19
36 35 35 35 35 34 33 32 31 31 30 29 29 28 28 30 30 31 30 29 28 25 25 26 26 25 23 22 21 20 18 16 15 13 12 12 14 16 17 16 17 18 17
32 31 32 32 31 31 32 31 30 30 29 28 26 25 25 25 26 27 26 26 26 23 22 20 19 19 18 17 17 17 16 15 13 12 11 13 14 13 12 13 12 12 10
29 29 29 29 28 27 28 28 28 28 29 27 26 26 24 22 23 24 23 21 21 20 19 18 16 16 15 14 14 14 15 14 11 11 10 10 10 10 9 11 10 10 7
28 28 28 27 27 27 27 26 30 30 30 30 30 27 26 28 28 27 26 25 24 22 17 14 12 12 12 12 11 11 11 10 10 10 7 7 6 6 6 8 9 6 5
27 27 26 27 26 26 26 26 24 27 30 30 29 29 29 28 28 27 26 24 23 19 13 12 10 10 10 11 10 9 8 8 9 7 5 4 3 5 4 5 5 5 4
25 25 25 25 25 25 25 25 25 23 22 23 27 27 27 27 26 25 23 20 15 15 13 11 10 10 10 9 9 8 6 4 4 5 2 1 -2 2 1 2 3 1 1
22 22 23 23 23 23 23 23 22 21 20 19 20 21 24 25 23 22 20 14 12 11 11 10 9 8 7 5 2 1 0 0 -1 -2 -2 -2 -6 -2 -1 1 1 -1 -1
22 22 22 22 21 20 19 18 17 16 16 14 13 13 14 12 9 9 10 11 10 10 9 8 7 6 4 2 -2 -3 -2 -3 -2 -0 -5 -6 -6 -4 -2 -2 -1 -1 0
21 21 20 20 19 19 18 17 16 15 13 12 10 11 12 10 8 8 7 7 7 7 6 5 5 4 3 2 3 -3 -2 -8 -3 -2 -3 -2 -8 -5 -1 -1 -1 0 0
20 19 19 18 18 17 17 16 14 13 11 9 8 8 9 8 7 5 4 2 3 5 6 5 5 5 4 3 0 -7 -6 -8 -6 -4 -4 -5 -4 -2 -2 -2 -2 -2 -1
19 17 17 16 16 15 14 13 12 10 9 8 8 6 5 4 4 3 1 -0 2 1 3 1 0 0 -1 -5 -4 -1 -2 -1 -1 -4 -6 -8 -5 -3 -4 -4 -3 -2 -1
18 17 16 14 13 12 11 10 9 8 6 5 4 4 3 2 0 -1 -4 -5 -4 -4 -5 -5 -1 -0 -1 -8 -7 -4 1 -2 -2 -3 -9 -8 -6 -4 -4 -4 -2 -2 -2
15 14 13 12 11 10 9 8 6 6 5 4 2 1 -0 -1 -2 -6 -7 -6 -6 -8 -7 -9 -9 -7 -8 -9 -6 -3 -6 -7 -9 -9 -7 -8 -8 -8 -6 -4 -4 -2 -2
13 12 10 10 8 8 6 4 4 3 2 1 -0 -2 -1 -2 -4 -10 -12 -9 -10 -10 -9 -11 -9 -10 -9 -5 -3 -3 -9 -9 -9 -10 -10 -5 -7 -7 -6 -6 -4 -3 -1

GFSGL_sfc_temp_117.txt.gz
Temp
62 65 65 63 62 61 61 62 65 64 65 64 63 61 60 60 60 60 60 60 59 58 58 57 57 57 56 56 56 56 55 54 52 56 54 47 44 43 44 44 44 42 41
63 64 64 63 61 60 60 62 63 61 62 62 61 61 61 60 60 59 58 58 58 57 57 57 56 57 57 57 56 56 56 56 55 53 47 40 40 40 40 38 39 42 40
61 63 62 62 60 59 61 60 61 60 59 59 59 59 58 60 59 59 59 58 58 57 58 57 58 57 56 56 56 55 54 51 51 51 39 39 35 37 36 37 35 37 39
59 63 62 61 59 59 59 59 60 60 57 58 58 58 58 59 59 59 58 58 57 57 56 56 56 56 55 53 50 48 46 45 44 41 37 34 34 33 32 31 31 33 32
58 61 62 61 60 59 58 59 58 58 59 58 57 57 57 57 57 57 55 48 45 41 40 40 40 40 39 40 42 42 42 40 38 35 32 30 29 27 27 28 28 29 29
58 60 62 59 58 58 57 57 57 57 57 56 55 53 52 49 42 43 46 43 41 38 35 35 36 36 34 34 33 33 35 35 32 30 26 24 24 26 25 25 25 26 27
57 60 60 58 57 57 57 57 56 52 50 47 46 45 43 43 41 40 39 40 37 35 34 34 33 34 33 31 31 31 30 30 29 28 24 23 21 23 25 24 25 27 31
57 59 59 58 57 57 56 50 47 46 44 42 40 39 38 38 38 38 37 36 34 34 33 33 32 31 31 30 28 26 25 26 26 27 25 24 24 25 27 26 26 28 33
56 57 58 59 56 53 48 44 42 40 38 37 37 36 35 35 36 36 35 33 32 31 32 32 31 30 31 32 27 25 24 24 28 28 27 26 25 24 25 25 24 24 24
55 57 58 58 52 48 43 41 39 37 35 34 34 34 34 34 35 35 35 33 30 29 29 30 31 29 30 30 27 25 21 22 23 23 22 22 24 23 23 23 22 18 19
47 53 52 52 47 44 40 38 36 34 34 33 32 32 33 34 34 35 34 32 29 27 27 27 28 29 28 28 27 25 22 23 21 22 22 22 23 24 24 23 23 20 18
39 42 41 41 40 39 37 36 35 34 32 31 30 30 31 32 33 33 32 30 29 26 24 25 26 27 27 25 24 24 23 22 22 22 21 19 18 21 24 24 24 24 24
35 35 36 36 36 36 34 33 33 33 32 30 29 28 28 29 29 31 30 28 27 25 25 26 26 25 24 22 22 21 20 19 18 18 17 18 20 22 22 22 23 23 23
31 31 32 33 33 33 33 33 32 31 30 29 27 26 26 26 26 27 26 26 27 24 22 20 20 20 19 19 18 18 20 21 20 19 18 20 21 20 19 20 19 19 19
30 30 30 30 29 29 29 29 29 30 30 27 27 27 25 24 24 25 23 21 20 20 19 19 17 18 17 17 17 19 20 20 17 18 18 18 18 18 17 18 17 18 17
29 28 28 28 29 29 28 28 31 30 30 30 29 27 26 27 27 27 26 25 24 22 21 19 17 17 17 16 15 15 17 16 16 16 15 15 15 15 15 17 16 16 15
28 28 28 28 28 27 27 27 25 28 30 30 29 29 29 28 28 27 26 24 24 23 19 16 16 16 17 17 16 16 14 14 15 14 13 12 13 14 14 15 15 15 15
26 27 27 27 27 27 26 26 25 24 24 24 28 28 28 28 27 26 24 22 18 20 18 16 16 17 17 16 16 15 14 14 13 13 12 11 10 12 13 13 14 11 12
24 24 25 25 24 24 24 24 23 23 23 22 23 25 25 26 24 23 22 20 18 17 17 17 16 16 16 15 13 13 12 11 11 11 10 10 9 11 11 12 13 9 9
23 23 22 22 21 21 20 20 19 19 18 18 18 17 18 19 16 16 18 17 17 16 16 15 15 15 13 13 12 11 11 12 11 11 10 10 10 11 11 11 11 11 12
23 22 22 23 21 21 21 19 18 17 16 15 15 16 17 17 15 15 15 15 15 14 14 14 13 12 13 12 13 12 11 11 11 10 10 10 8 10 11 12 11 11 11
23 22 22 21 20 19 18 17 16 16 15 13 12 12 13 15 14 13 13 13 13 14 14 14 13 13 13 13 12 11 10 10 11 11 10 8 9 11 11 11 10 10 11
21 20 19 19 18 17 16 16 15 14 13 13 13 12 12 11 11 11 11 11 12 12 13 13 12 10 11 10 12 13 12 12 11 9 8 8 9 10 9 10 9 9 9
20 19 18 17 17 16 14 13 13 12 12 11 11 10 10 9 9 8 8 9 9 9 10 10 11 10 8 9 12 12 12 10 11 9 3 6 8 8 8 8 9 8 8
19 18 17 16 14 13 13 12 12 11 11 10 9 9 8 8 7 7 7 7 7 8 6 7 8 7 6 3 5 5 3 2 4 1 7 6 5 4 5 6 6 8 8
18 17 16 15 14 13 12 11 10 10 9 9 9 8 8 7 7 6 6 6 6 5 6 6 6 2 1 5 3 2 1 1 3 0 4 6 5 6 7 6 6 7 8

GFSGL_sfc_temp_120.txt.gz
Temp
63 62 66 68 70 70 66 66 67 65 63 61 62 61 60 60 61 60 58 61 65 66 68 68 66 64 61 61 61 60 60 60 54 54 51 46 44 42 42 43 42 39 38
62 62 64 67 71 70 68 69 68 67 69 68 65 62 60 59 60 60 60 62 66 66 65 64 63 61 60 59 59 60 57 57 55 54 47 40 39 39 38 37 40 40 37
62 62 62 66 69 67 68 68 64 63 64 63 63 62 61 61 59 59 60 60 60 61 62 62 61 58 56 56 56 56 56 55 55 53 40 38 36 37 35 35 35 36 38
60 60 61 65 67 68 69 65 63 63 63 60 61 61 60 59 60 60 59 58 58 58 58 58 57 56 57 56 56 56 54 50 46 40 35 34 33 32 31 31 30 33 33
58 59 61 65 67 68 67 63 63 63 61 61 61 60 57 58 58 58 58 57 55 49 44 43 42 43 42 45 49 46 45 41 38 35 32 30 28 27 26 28 29 31 29
57 58 64 65 65 66 65 62 61 60 59 59 59 55 51 47 41 43 46 44 41 39 36 35 35 36 35 34 34 34 37 37 33 30 28 26 25 25 26 25 26 28 28
54 58 63 66 65 65 64 62 58 56 53 48 47 46 43 42 39 40 40 40 38 37 35 34 33 33 32 31 30 30 30 30 30 29 25 24 24 26 27 26 28 31 30
51 57 61 64 64 65 62 58 52 50 47 43 40 40 39 38 37 37 36 35 34 34 33 32 31 30 30 29 27 25 25 26 27 27 25 25 26 29 29 29 29 31 35
51 56 59 62 61 60 54 50 46 43 41 40 39 38 37 36 36 36 36 33 32 31 31 31 30 29 31 32 27 25 25 25 29 29 28 27 27 27 29 29 28 30 29
42 51 58 60 57 52 47 43 42 39 37 37 35 36 36 35 36 36 36 33 31 29 29 29 30 29 30 29 27 25 22 22 23 24 24 25 26 27 28 31 30 26 28
40 42 55 56 51 47 42 40 38 36 35 34 33 34 35 35 35 35 35 32 31 29 28 28 29 30 30 29 29 26 24 25 24 24 25 25 28 28 28 29 30 29 27
38 38 46 46 44 42 39 37 36 35 33 32 31 31 32 32 33 33 33 32 32 29 27 27 28 29 28 27 26 26 25 25 25 24 24 25 27 28 30 31 30 30 30
36 35 34 38 39 39 37 35 34 34 33 31 29 28 28 30 30 31 31 29 29 26 26 27 28 27 26 25 25 25 24 25 24 24 25 27 27 28 29 28 30 29 29
33 32 33 32 33 34 34 34 33 33 31 30 28 27 27 27 28 28 28 27 28 26 24 22 22 21 21 22 23 24 25 27 26 26 25 27 28 27 25 26 26 27 28
32 32 32 32 30 30 31 31 31 31 31 29 28 27 25 24 26 27 25 22 20 20 20 20 21 22 24 24 25 26 27 27 23 24 24 24 24 24 24 26 26 26 25
30 30 30 31 30 29 28 28 31 30 30 30 29 27 26 27 27 27 26 25 24 24 24 24 24 25 25 25 23 22 23 22 22 23 22 23 23 23 24 25 26 25 24
29 29 29 29 28 28 27 27 25 28 30 29 29 28 28 28 27 27 26 26 25 26 24 22 20 21 22 23 22 21 19 21 22 23 22 22 23 23 24 23 24 23 22
28 28 28 28 27 27 27 26 26 25 24 25 28 28 28 28 27 26 25 25 25 26 26 24 22 23 24 23 22 22 22 22 22 22 21 20 21 22 22 22 23 19 20
25 25 25 25 25 26 26 25 25 24 24 24 24 25 26 25 25 27 29 28 26 25 25 25 25 25 24 24 22 22 21 20 20 20 20 20 19 22 20 21 21 17 18
24 24 24 23 22 22 22 22 22 23 23 23 22 21 23 26 24 24 25 25 24 24 24 24 24 23 22 22 21 19 19 20 20 21 20 20 20 21 20 20 20 19 20
27 26 24 24 22 22 21 21 21 21 21 20 20 23 25 25 23 23 23 23 23 23 22 22 22 21 21 21 22 21 21 20 19 19 20 20 18 19 20 21 20 20 20
27 26 26 24 24 23 22 22 21 20 19 18 18 19 21 22 21 21 21 21 21 22 22 21 22 22 22 22 21 20 19 18 19 19 19 17 18 20 19 19 19 19 19
26 24 24 23 23 22 21 21 20 20 19 18 19 19 19 19 19 19 18 18 19 20 20 20 19 18 19 19 21 21 20 19 18 16 16 17 18 19 18 18 18 17 17
26 24 24 23 22 21 20 19 19 18 18 18 18 17 18 17 17 16 16 18 18 17 17 17 17 17 15 17 19 19 18 17 18 17 9 13 15 17 16 16 17 16 16
24 23 22 22 21 19 19 18 18 18 17 17 16 16 16 16 16 15 15 15 15 15 14 15 15 13 11 10 12 13 8 7 9 5 13 13 13 11 13 14 14 15 15
25 24 23 22 20 19 19 18 18 17 17 17 17 17 16 15 15 15 14 13 13 13 13 13 12 11 10 13 11 8 4 3 7 4 7 12 13 13 14 14 13 14 15

GFSGL_sfc_temp_126.txt.gz
Temp
64 63 64 64 63 63 64 66 68 66 65 63 61 59 59 58 58 58 58 59 59 59 60 60 61 61 60 62 62 61 62 62 52 47 46 44 42 40 39 39 39 38 39
63 62 62 63 63 63 63 64 64 66 65 63 62 60 58 58 57 57 57 59 59 59 59 59 59 61 61 61 60 59 59 59 54 46 43 40 39 40 38 37 37 37 36
60 59 59 62 62 61 63 63 65 65 65 64 62 59 58 57 57 57 58 59 59 59 59 60 59 60 61 60 58 57 56 56 54 46 40 38 36 37 35 35 34 33 35
58 57 56 59 61 62 62 63 63 64 64 65 63 61 60 58 57 57 58 58 58 59 59 59 60 60 60 59 58 57 55 53 49 42 37 34 33 34 34 32 30 31 30
54 55 55 56 61 61 61 62 62 62 63 64 63 63 62 59 58 57 57 57 57 57 56 56 55 55 52 56 58 54 54 48 45 40 34 31 30 30 30 30 30 28 29
54 53 55 54 58 60 60 60 61 61 61 61 60 57 53 51 41 46 53 57 56 56 54 46 45 42 40 39 38 38 45 45 40 38 33 32 28 27 29 29 29 27 25
52 52 52 51 54 59 60 60 59 59 56 51 49 48 44 42 40 41 40 42 40 40 41 40 36 36 36 34 33 33 33 34 34 35 34 30 27 27 28 28 28 29 27
49 50 49 47 50 57 59 59 56 52 48 45 43 42 39 38 38 38 37 36 34 34 34 34 34 32 33 33 31 29 27 28 30 30 29 28 28 30 31 32 31 28 29
45 44 45 44 44 48 54 54 49 45 42 40 39 38 37 36 36 37 36 35 33 32 32 32 33 33 34 35 30 27 26 27 31 31 31 31 32 33 32 29 27 27 27
39 40 42 43 43 45 50 49 45 42 39 38 36 37 36 35 36 37 36 34 30 29 30 30 32 31 32 32 29 27 23 24 25 26 27 28 29 30 31 31 31 27 27
39 39 40 42 41 43 47 44 40 37 36 34 34 34 35 35 35 36 36 33 31 29 28 27 29 30 30 30 29 26 24 25 24 25 26 27 28 29 29 29 30 27 25
37 37 38 39 40 46 43 41 38 36 34 32 32 31 32 33 34 35 34 33 32 28 26 27 28 29 29 28 27 28 28 27 26 26 25 25 26 27 28 28 29 28 28
34 34 35 37 36 37 39 37 36 35 33 32 30 29 29 31 31 33 32 31 30 27 28 29 30 29 29 27 28 28 27 27 26 24 25 25 27 28 30 29 29 29 28
32 32 33 33 32 33 33 35 35 34 33 31 29 27 27 27 27 28 28 28 30 28 27 26 26 26 26 26 27 28 28 28 27 26 25 26 27 26 25 26 25 23 20
31 31 31 31 31 30 29 29 32 32 33 31 29 28 25 24 26 28 27 24 23 24 24 25 24 24 24 25 26 27 28 28 26 26 25 25 25 25 24 23 23 23 21
29 30 29 29 28 28 28 27 30 31 31 31 31 29 28 29 29 28 27 27 27 27 24 22 21 22 22 22 22 23 25 25 25 25 24 24 23 21 20 22 22 18 16
27 29 28 28 27 26 26 26 24 28 30 29 29 29 29 28 28 29 29 29 29 28 23 22 22 21 21 21 22 23 22 24 25 23 22 20 19 21 21 21 19 19 18
26 27 27 27 26 26 25 25 24 23 23 24 28 28 29 29 29 29 29 27 24 24 22 21 21 21 22 22 22 21 22 22 21 21 20 19 17 18 16 19 17 12 14
24 25 26 26 25 24 24 24 23 23 23 23 24 26 27 29 29 28 28 24 22 22 23 22 23 23 23 23 22 21 21 19 19 19 18 15 13 17 14 16 14 12 13
24 24 24 25 23 22 22 21 20 20 21 21 22 22 24 24 22 22 23 22 22 21 22 22 23 23 22 20 18 19 19 19 19 18 15 12 12 14 12 12 10 11 14
25 24 23 22 22 22 22 22 22 22 22 22 22 23 23 22 21 21 21 21 22 22 22 22 22 21 21 20 21 21 20 18 18 17 16 12 9 10 13 13 12 13 13
25 24 23 22 22 21 20 21 20 20 20 20 21 22 23 22 21 20 21 21 22 22 23 22 22 22 22 22 21 19 17 16 15 14 9 10 12 13 12 11 10 9 12
25 24 23 22 21 20 20 20 19 19 19 19 19 19 19 19 19 20 20 20 20 21 21 21 20 19 21 21 21 20 17 14 12 11 10 10 11 10 8 9 9 8 7
26 24 23 21 21 20 20 19 19 19 19 19 19 19 18 18 18 17 18 18 18 18 18 18 18 17 18 18 16 12 10 12 13 8 7 6 8 10 6 6 7 5 5
26 24 22 21 21 20 20 19 19 18 18 18 17 17 18 17 16 16 17 16 15 14 14 14 13 12 10 8 7 6 6 4 2 2 7 7 5 4 4 5 4 6 5
25 24 23 22 21 20 19 19 18 18 18 18 17 16 16 16 15 15 15 15 14 14 13 13 12 11 10 6 5 4 3 1 -0 -0 -2 4 4 5 5 4 3 2 5

GFSGL_sfc_temp_129.txt.gz
Temp
55 56 56 59 62 61 62 62 63 64 63 62 61 59 59 58 59 59 59 60 59 59 60 60 60 62 61 58 61 63 61 62 51 44 44 42 41 40 40 40 40 39 39
55 54 55 56 59 61 61 62 63 63 63 62 60 58 59 58 58 58 58 58 58 58 59 59 60 60 60 60 58 61 60 58 53 44 41 40 39 38 37 36 37 38 37
53 52 53 54 56 59 61 62 62 62 62 62 60 58 58 58 57 57 58 58 58 59 59 59 59 59 58 59 57 58 59 56 51 45 40 38 37 37 35 34 33 33 35
51 51 51 53 54 55 59 61 62 62 62 61 61 60 59 58 58 57 57 58 58 58 59 59 60 59 59 58 56 55 55 51 48 43 38 35 35 35 34 30 29 31 31
51 51 51 52 53 54 56 60 62 62 62 62 61 60 59 58 58 57 57 57 57 57 57 59 58 57 52 54 57 54 52 47 44 40 35 32 30 31 31 32 29 28 29
49 49 51 51 50 50 53 57 60 61 60 59 60 60 59 57 47 46 52 56 56 55 54 52 55 50 49 46 45 46 49 47 43 41 38 35 32 33 31 31 27 26 25
47 47 48 48 46 46 49 50 59 59 58 54 53 51 48 46 40 43 44 52 52 51 51 43 38 41 41 38 36 36 35 37 41 39 38 35 31 32 32 30 30 29 26
45 43 42 42 43 44 46 48 55 55 53 49 45 43 40 39 39 39 38 37 35 34 34 35 36 34 37 35 36 33 32 32 33 33 35 31 31 33 33 32 28 27 29
40 38 40 40 40 42 42 44 48 48 47 42 40 39 37 36 37 36 37 35 33 32 33 33 33 34 35 38 34 32 31 30 33 33 33 33 33 33 31 28 26 26 24
36 36 38 39 40 40 40 42 47 46 41 39 36 36 36 35 36 37 36 34 31 30 31 32 34 33 32 35 33 31 27 27 28 28 29 30 30 31 31 32 31 27 23
34 35 37 38 39 40 40 41 41 39 38 35 34 34 35 35 35 36 36 33 31 30 29 28 30 32 33 33 33 31 27 26 25 25 25 25 26 27 28 28 28 29 24
32 34 35 36 37 39 39 41 39 37 35 33 32 32 32 33 35 35 34 33 32 28 26 28 29 31 30 30 28 28 27 25 25 24 23 23 24 25 27 28 28 28 28
31 33 33 35 35 35 36 36 35 36 34 32 31 30 30 31 32 33 32 31 30 27 28 30 30 30 29 28 28 28 27 26 25 23 23 24 26 27 29 28 28 28 28
29 31 31 31 31 30 32 33 33 33 32 32 30 29 28 28 28 28 29 29 30 29 28 26 26 26 27 27 27 28 27 26 25 24 24 25 27 26 25 26 25 24 22
28 30 29 29 29 28 29 30 32 32 32 32 32 29 27 25 26 29 29 27 26 25 26 26 25 26 25 26 26 26 26 26 24 24 23 23 24 25 25 25 25 24 21
27 28 27 27 27 27 27 27 31 31 31 31 31 30 29 30 31 30 29 29 29 29 25 23 23 24 23 23 22 22 23 24 24 24 23 23 23 23 23 23 22 20 17
25 27 27 26 25 24 24 25 24 28 30 30 30 30 30 29 29 30 29 29 29 28 24 23 22 22 21 21 21 22 21 23 24 23 23 22 22 22 20 19 19 17 17
25 26 25 24 24 24 24 24 24 24 23 25 28 29 30 30 29 30 29 28 23 24 22 21 20 21 21 21 21 21 21 22 22 22 21 20 20 19 18 17 15 9 12
24 24 23 23 22 22 23 23 24 24 24 24 26 27 29 29 29 28 27 23 21 21 21 20 20 20 20 21 21 21 20 19 19 18 18 18 17 18 15 14 13 12 14
23 23 23 22 22 21 22 21 21 21 21 21 22 22 23 23 21 21 22 21 21 20 20 20 21 21 20 19 20 20 19 19 18 17 16 16 14 16 15 14 13 13 14
23 22 22 22 21 21 21 21 21 21 20 20 20 22 22 21 20 20 20 21 21 21 20 20 20 20 20 20 21 20 19 18 18 16 16 15 15 13 14 13 14 13 13
23 22 21 20 20 20 20 21 20 20 20 19 19 20 21 20 20 19 20 20 20 21 21 21 21 21 21 20 19 18 17 16 16 15 15 15 15 14 12 11 9 9 10
23 21 21 20 20 20 19 19 19 19 18 18 18 18 19 18 18 18 18 19 19 19 20 20 19 19 18 18 19 17 15 13 12 13 12 13 11 9 8 7 6 4 3
22 21 20 20 19 19 18 18 18 18 18 17 17 17 16 16 16 16 16 16 16 15 15 15 16 15 12 11 12 12 12 11 10 9 9 10 8 7 5 4 3 1 1
21 20 20 19 19 18 17 17 17 16 16 16 16 15 15 15 15 14 14 14 13 12 12 12 11 9 7 7 6 6 7 3 3 4 6 6 4 1 0 1 -1 2 -2
21 21 20 19 18 18 17 17 16 16 15 15 15 15 14 13 14 14 13 13 12 11 11 10 8 6 6 6 5 4 3 3 1 -1 -1 3 4 2 1 -2 -2 -2 0

GFSGL_sfc_temp_132.txt.gz
Temp
53 54 53 53 54 56 59 60 61 63 62 62 62 62 61 61 61 61 61 60 60 60 60 60 60 62 60 59 60 61 60 61 53 43 43 42 41 41 40 41 41 40 41
52 52 52 53 53 53 55 59 62 62 63 62 61 60 59 59 59 59 59 59 59 59 59 59 59 60 59 60 59 59 59 59 51 42 40 39 38 38 38 36 38 38 38
50 49 50 51 51 51 52 55 58 61 62 62 61 60 59 58 58 58 58 59 58 59 59 58 59 59 58 58 59 58 58 55 50 42 40 39 37 36 34 34 34 34 37
49 48 48 49 49 49 50 52 55 59 61 61 61 60 59 57 58 58 58 58 58 58 58 59 59 59 59 59 57 58 57 53 49 45 40 37 36 35 34 31 30 32 32
47 46 46 47 48 47 47 48 51 53 60 62 60 60 59 58 57 57 57 57 57 57 56 58 58 57 52 54 58 55 54 50 47 42 38 35 32 32 31 32 29 28 29
45 45 45 44 44 44 45 45 48 51 55 61 60 59 58 57 48 46 53 56 56 55 55 54 55 50 49 46 46 46 50 49 45 42 40 36 34 34 33 31 27 26 25
43 42 42 41 41 41 43 44 44 47 49 57 58 59 57 55 45 45 45 54 53 53 53 49 46 45 47 41 42 42 41 43 44 44 39 38 34 36 34 30 30 31 27
39 38 39 39 39 40 41 42 42 44 46 54 53 51 49 42 40 42 41 42 39 36 36 36 39 35 38 39 36 37 36 36 38 40 43 40 38 37 37 36 32 26 27
35 35 36 37 38 39 39 40 41 41 43 47 46 44 42 37 37 38 39 36 34 33 33 33 34 34 37 40 36 34 32 32 35 36 36 36 37 36 33 30 26 26 23
32 32 34 36 37 37 38 38 40 41 42 40 38 40 38 36 37 37 38 35 32 32 32 32 34 33 35 36 36 34 32 31 32 31 31 32 32 32 32 34 30 27 23
31 32 34 36 36 37 37 38 38 40 38 35 34 35 35 36 36 37 37 34 32 31 31 31 32 34 34 34 36 34 31 29 28 28 28 27 27 27 28 29 30 29 24
30 31 32 34 35 36 34 35 38 37 35 33 32 32 33 33 35 36 35 34 33 30 28 29 31 33 33 32 31 31 30 29 28 26 25 24 23 23 24 25 26 28 29
29 29 31 32 32 32 31 32 34 35 33 32 32 32 31 32 32 34 33 32 31 29 30 31 32 31 30 29 29 29 28 27 25 24 22 22 23 25 27 27 28 29 29
26 27 28 27 28 30 30 30 32 33 33 32 32 31 30 30 29 30 29 30 31 30 29 27 27 27 26 26 26 26 26 26 25 23 22 23 27 26 25 26 24 24 23
24 25 24 25 27 27 28 28 29 31 33 33 32 31 28 27 28 30 30 29 27 26 25 26 25 25 24 24 25 25 25 25 24 24 24 24 25 25 24 26 25 24 22
24 24 24 23 25 25 23 26 31 31 32 32 32 31 29 30 31 32 31 30 29 29 27 24 23 23 23 23 22 22 23 23 24 24 24 24 24 23 23 23 24 22 20
23 23 23 23 24 23 20 22 21 27 31 31 32 31 32 31 31 31 30 30 30 29 24 23 22 22 22 22 22 22 21 22 24 23 23 23 23 22 22 21 20 20 19
23 23 22 21 21 21 21 22 22 23 23 25 29 29 30 31 30 30 29 28 23 24 23 22 21 22 22 21 21 21 21 22 22 22 21 21 20 20 19 18 17 16 17
22 22 22 22 22 22 22 21 22 22 23 24 26 27 29 29 28 27 27 22 21 20 21 21 21 21 21 21 21 21 21 20 21 20 20 19 19 19 17 18 17 16 16
22 22 22 22 22 22 22 21 21 20 20 20 21 21 22 22 20 20 21 21 20 20 21 20 21 21 20 20 20 20 20 19 19 19 18 18 18 18 17 16 14 14 13
22 21 21 21 21 21 21 20 20 20 19 19 19 21 21 20 20 20 20 20 20 19 20 20 20 20 20 20 20 20 18 18 19 18 18 18 18 16 16 16 14 14 13
22 21 21 20 20 19 19 20 19 18 18 18 18 19 20 20 19 19 19 19 20 20 21 21 20 20 20 20 19 18 17 17 17 18 17 17 17 16 16 14 13 13 13
21 20 20 20 20 19 18 18 18 17 17 17 17 16 17 17 17 17 17 18 18 19 20 19 18 17 18 18 18 18 16 15 15 17 15 15 15 13 13 12 10 9 7
19 20 20 19 18 18 17 17 17 16 16 16 15 15 15 14 14 14 14 14 14 14 15 14 14 13 13 13 13 13 13 13 14 14 14 13 11 11 10 9 8 0 -1
17 18 18 18 17 17 16 16 15 15 15 15 14 14 14 14 13 13 13 13 13 12 11 10 10 9 9 8 8 8 9 7 9 12 12 10 8 7 5 4 -0 2 -2
18 18 17 17 16 16 16 15 14 14 14 13 13 13 13 13 13 12 12 12 11 9 8 8 7 7 7 6 6 6 5 5 4 6 9 9 7 3 3 1 2 -0 -1

GFSGL_sfc_temp_135.txt.gz
Temp
51 52 51 51 52 53 53 54 56 59 60 61 62 62 63 62 62 61 61 61 60 61 61 61 60 61 61 60 59 59 58 58 54 42 43 43 42 42 42 42 43 42 43
49 50 50 50 51 50 50 51 52 54 58 61 61 61 62 62 61 61 60 61 60 60 61 60 60 60 60 60 59 58 57 57 51 42 41 40 40 39 38 38 38 40 40
48 47 47 48 48 48 48 49 50 52 54 59 61 60 60 60 60 61 61 60 60 60 60 59 59 59 58 59 59 58 58 57 52 42 40 40 37 36 35 35 35 35 38
46 45 44 44 45 45 46 46 47 48 50 54 59 61 60 59 59 59 59 59 58 58 58 59 59 59 59 59 58 57 57 53 48 45 41 38 36 35 35 32 31 34 32
43 43 42 42 43 43 43 44 45 46 48 52 54 60 60 59 58 58 58 58 57 57 57 58 58 57 52 54 58 57 56 52 47 43 39 36 34 32 32 34 32 31 29
41 40 40 40 41 41 41 41 43 44 45 47 50 54 59 58 49 47 53 56 56 56 55 55 56 50 50 46 46 46 52 50 47 42 40 36 34 34 34 32 29 28 26
37 37 38 38 38 39 40 41 42 42 42 43 45 49 57 58 46 46 46 56 55 55 54 52 49 49 48 49 43 43 43 43 47 48 41 40 35 36 35 32 32 32 28
34 34 35 35 36 38 39 40 40 41 41 42 43 47 53 54 43 44 44 52 49 45 43 42 45 40 38 41 38 37 38 44 43 45 46 43 42 39 38 37 34 29 29
31 31 32 33 34 36 36 37 38 39 40 41 43 43 44 47 40 41 43 41 37 34 34 34 35 35 37 40 37 36 33 32 37 40 43 42 40 40 38 33 30 29 25
29 29 31 33 34 34 35 36 37 38 38 40 39 38 38 39 38 39 42 39 35 33 33 33 35 34 36 36 37 36 34 32 34 34 35 36 37 35 35 37 35 33 24
29 30 31 33 33 34 34 34 34 35 38 37 34 35 35 36 37 38 39 40 36 33 32 32 33 34 36 36 36 35 34 33 32 32 32 32 32 32 32 33 33 32 27
29 29 29 31 32 33 32 32 32 33 36 34 32 32 33 33 35 36 36 36 35 33 30 32 33 34 34 33 32 32 32 32 32 30 29 27 26 26 26 26 26 26 27
27 27 27 29 29 29 29 29 29 31 34 33 32 32 31 32 32 33 33 33 32 30 31 32 33 33 32 31 32 31 31 31 29 27 24 23 23 23 24 24 25 26 26
25 24 25 25 27 27 26 29 29 29 30 33 32 31 31 30 29 30 30 31 32 31 30 28 27 27 27 27 27 27 28 28 27 24 23 22 23 23 23 24 23 23 22
24 24 24 24 22 22 24 24 27 29 30 29 33 32 30 28 29 30 30 29 29 27 26 26 26 25 24 24 24 25 25 25 23 24 23 22 22 23 23 26 25 25 22
23 23 22 21 21 20 19 20 28 31 32 32 33 32 30 31 32 32 32 31 29 29 27 24 23 24 23 23 22 22 23 23 24 24 24 23 23 23 22 24 25 23 21
21 22 21 19 20 20 20 20 19 24 31 31 32 32 32 32 32 32 31 30 30 28 24 24 23 22 22 22 22 22 22 24 26 25 24 23 23 22 22 22 21 21 19
20 22 21 20 21 21 20 20 19 20 21 23 29 30 31 31 31 31 30 27 23 24 23 22 22 22 22 22 22 22 22 23 23 23 22 22 22 21 20 20 20 18 17
21 20 21 22 22 22 21 20 18 18 19 19 21 23 24 27 27 27 26 22 21 20 21 21 21 22 21 22 22 22 22 21 21 20 20 21 20 20 18 19 18 17 18
20 22 21 21 21 21 21 20 19 18 18 18 19 19 21 21 20 20 21 21 21 21 20 20 20 21 21 21 21 21 20 20 19 19 18 19 19 19 18 17 17 16 16
20 21 21 20 20 20 19 18 18 18 17 17 18 20 20 19 18 18 19 19 19 20 20 20 20 20 21 21 20 20 19 19 19 19 18 18 18 17 17 17 16 16 15
20 20 20 19 19 18 18 18 18 17 16 16 16 18 19 18 18 18 18 19 19 20 20 20 19 19 20 20 19 19 18 18 18 18 18 18 18 17 16 15 14 14 14
18 18 19 19 19 18 17 17 16 16 15 15 15 15 15 14 14 14 14 16 16 16 17 17 16 16 16 16 18 19 18 17 18 18 17 16 16 15 15 14 13 12 12
18 18 18 18 17 16 16 15 15 15 14 14 14 13 13 13 13 13 13 14 13 13 14 14 14 14 13 13 14 15 15 16 17 17 17 15 14 14 13 12 10 8 7
16 16 16 16 16 16 15 15 14 14 13 13 13 13 13 13 12 12 12 11 11 10 9 10 10 10 9 9 9 10 13 13 13 14 14 13 12 11 11 9 8 7 4
17 16 15 15 15 15 14 14 13 13 12 12 12 12 12 11 11 11 11 10 9 8 8 7 7 7 8 8 8 8 8 10 11 12 12 11 9 8 8 6 5 4 2